GFSSGP_prec_precacc24_057.txt.gz
Total_Precipitation_Accumulation
0.00 0.00 0.00 0.00 0.00 0.00 0.00 0.00 0.00 0.00 0.00 0.00 0.01 0.11 0.04 0.04 0.06 0.15 0.33 0.69 1.36 1.45 1.77 1.42 0.56 0.23 0.02 0.00 0.00 0.00 0.00 0.00 0.00 0.00 0.00 0.00 0.00 0.00 0.00 0.00 0.00 0.00 0.00 0.00 0.00 0.00 0.00 0.00 0.00
0.00 0.00 0.00 0.00 0.00 0.00 0.00 0.00 0.00 0.00 0.01 0.15 0.13 0.20 0.21 0.55 0.29 0.22 0.31 0.32 0.24 0.31 0.41 1.94 1.96 0.71 0.23 0.07 0.00 0.00 0.00 0.00 0.01 0.00 0.00 0.00 0.00 0.00 0.00 0.00 0.00 0.00 0.00 0.00 0.00 0.00 0.00 0.00 0.00
0.00 0.00 0.00 0.00 0.00 0.00 0.00 0.00 0.00 0.01 0.00 0.01 0.02 0.07 0.31 1.03 0.55 0.29 0.43 0.48 0.60 0.45 0.47 0.49 0.99 1.11 0.62 0.17 0.05 0.00 0.00 0.00 0.01 0.01 0.00 0.00 0.00 0.00 0.00 0.00 0.00 0.00 0.00 0.00 0.00 0.00 0.00 0.00 0.00
0.00 0.00 0.00 0.00 0.00 0.00 0.00 0.00 0.00 0.00 0.00 0.01 0.01 0.19 0.42 0.64 0.46 0.42 0.33 0.67 1.19 1.05 1.02 1.05 0.92 0.65 0.88 0.49 0.18 0.02 0.00 0.00 0.01 0.01 0.00 0.00 0.00 0.00 0.00 0.00 0.00 0.00 0.00 0.00 0.00 0.00 0.00 0.00 0.00
0.00 0.00 0.00 0.00 0.00 0.00 0.00 0.00 0.00 0.00 0.12 0.14 0.01 0.35 0.62 0.36 0.19 0.35 0.34 0.53 0.94 1.55 1.69 1.19 2.07 1.60 1.21 0.72 0.48 0.17 0.03 0.00 0.02 0.02 0.00 0.00 0.00 0.00 0.00 0.00 0.00 0.00 0.00 0.00 0.00 0.00 0.00 0.00 0.00
0.00 0.00 0.00 0.00 0.00 0.00 0.00 0.00 0.00 0.00 0.01 0.04 0.10 0.48 0.68 0.22 0.25 0.31 0.18 0.50 0.96 1.28 1.71 1.90 2.55 3.83 2.72 1.80 1.05 0.41 0.12 0.01 0.04 0.03 0.00 0.00 0.00 0.00 0.00 0.00 0.00 0.00 0.00 0.00 0.00 0.00 0.00 0.00 0.00
0.00 0.00 0.00 0.00 0.00 0.00 0.09 0.09 0.00 0.04 0.05 0.22 0.31 0.57 0.38 0.14 0.34 0.32 0.40 0.86 1.31 1.93 2.39 1.96 2.66 3.55 4.19 4.43 2.47 0.77 0.27 0.08 0.06 0.06 0.00 0.00 0.00 0.00 0.00 0.00 0.00 0.00 0.00 0.00 0.00 0.00 0.00 0.00 0.00
0.00 0.00 0.00 0.00 0.00 0.01 0.08 0.02 0.04 0.02 0.12 0.35 0.15 0.42 0.47 0.24 0.38 0.37 0.29 0.68 1.35 1.50 3.21 2.35 2.72 4.61 3.30 3.72 2.74 0.95 0.55 0.20 0.10 0.05 0.01 0.00 0.00 0.00 0.00 0.00 0.00 0.00 0.00 0.00 0.00 0.00 0.00 0.00 0.00
0.00 0.00 0.00 0.00 0.00 0.00 0.00 0.01 0.16 0.04 0.09 0.18 0.04 0.11 0.24 0.20 0.20 0.25 0.20 0.31 0.78 1.06 1.56 2.17 3.36 4.54 5.06 3.58 2.39 1.17 0.69 0.46 0.18 0.05 0.02 0.00 0.00 0.00 0.00 0.00 0.00 0.00 0.00 0.00 0.00 0.00 0.00 0.00 0.00
0.00 0.00 0.00 0.00 0.00 0.00 0.00 0.00 0.15 0.05 0.15 0.45 0.18 0.07 0.12 0.16 0.11 0.13 0.11 0.26 0.40 0.64 1.28 1.79 1.63 1.18 1.18 1.66 1.66 0.94 0.52 0.55 0.42 0.07 0.03 0.00 0.00 0.00 0.00 0.00 0.00 0.00 0.00 0.00 0.00 0.00 0.00 0.00 0.00
0.00 0.00 0.00 0.00 0.00 0.00 0.00 0.01 0.08 0.21 0.33 0.38 0.38 0.06 0.05 0.07 0.09 0.09 0.05 0.09 0.31 0.48 0.87 0.94 0.70 0.59 0.42 0.31 0.44 0.55 0.34 0.35 0.57 0.26 0.07 0.00 0.01 0.00 0.00 0.00 0.00 0.00 0.00 0.00 0.00 0.00 0.00 0.00 0.00
0.00 0.00 0.00 0.00 0.00 0.00 0.00 0.01 0.08 0.21 0.26 0.07 0.03 0.02 0.05 0.03 0.03 0.05 0.05 0.09 0.26 0.36 0.54 0.46 0.24 0.22 0.21 0.14 0.17 0.25 0.24 0.27 0.31 0.23 0.06 0.00 0.00 0.00 0.00 0.00 0.00 0.00 0.00 0.00 0.00 0.00 0.00 0.00 0.00
0.00 0.00 0.00 0.00 0.00 0.00 0.00 0.00 0.06 0.29 0.08 0.00 0.03 0.16 0.11 0.07 0.03 0.04 0.11 0.13 0.21 0.40 0.39 0.49 0.39 0.19 0.12 0.09 0.12 0.18 0.17 0.21 0.16 0.12 0.09 0.00 0.00 0.00 0.00 0.00 0.00 0.00 0.00 0.00 0.00 0.00 0.00 0.00 0.00
0.00 0.00 0.00 0.00 0.00 0.00 0.00 0.04 0.09 0.37 0.05 0.01 0.01 0.18 0.42 0.54 0.08 0.03 0.05 0.08 0.14 0.28 0.40 0.42 0.38 0.32 0.22 0.11 0.05 0.07 0.08 0.10 0.13 0.03 0.04 0.00 0.00 0.00 0.00 0.00 0.00 0.00 0.00 0.00 0.00 0.00 0.00 0.00 0.00
0.00 0.00 0.00 0.00 0.00 0.00 0.04 0.18 0.34 0.11 0.04 0.03 0.00 0.01 0.35 0.85 0.22 0.03 0.01 0.02 0.05 0.17 0.30 0.50 0.54 0.34 0.26 0.18 0.17 0.14 0.07 0.04 0.04 0.04 0.02 0.01 0.00 0.01 0.01 0.01 0.01 0.00 0.00 0.00 0.00 0.00 0.00 0.00 0.00
0.00 0.00 0.00 0.00 0.00 0.00 0.14 0.48 0.05 0.02 0.04 0.03 0.00 0.00 0.05 0.09 0.02 0.00 0.00 0.00 0.00 0.04 0.19 0.47 0.53 0.50 0.24 0.13 0.13 0.12 0.07 0.04 0.03 0.01 0.02 0.03 0.02 0.03 0.02 0.03 0.01 0.00 0.00 0.00 0.00 0.00 0.00 0.00 0.00
0.00 0.00 0.00 0.00 0.00 0.00 0.04 0.33 0.11 0.03 0.04 0.01 0.00 0.00 0.00 0.00 0.00 0.00 0.00 0.00 0.00 0.00 0.05 0.42 0.59 0.41 0.22 0.13 0.12 0.06 0.04 0.02 0.02 0.03 0.08 0.07 0.03 0.08 0.02 0.07 0.09 0.00 0.00 0.00 0.00 0.00 0.00 0.00 0.00
0.00 0.00 0.00 0.02 0.02 0.01 0.01 0.03 0.25 0.11 0.00 0.00 0.00 0.00 0.00 0.00 0.00 0.00 0.00 0.00 0.00 0.00 0.00 0.12 0.67 0.49 0.30 0.20 0.11 0.19 0.11 0.05 0.05 0.07 0.15 0.13 0.03 0.03 0.04 0.10 0.06 0.00 0.00 0.00 0.00 0.00 0.00 0.00 0.00
0.00 0.00 0.00 0.00 0.01 0.00 0.00 0.01 0.01 0.00 0.00 0.00 0.00 0.00 0.00 0.00 0.00 0.00 0.00 0.00 0.00 0.00 0.00 0.03 0.31 0.52 0.32 0.25 0.15 0.22 0.22 0.08 0.06 0.13 0.21 0.18 0.06 0.09 0.14 0.13 0.06 0.01 0.01 0.02 0.00 0.00 0.00 0.00 0.00
0.00 0.00 0.00 0.00 0.00 0.00 0.00 0.00 0.00 0.00 0.00 0.00 0.00 0.00 0.00 0.00 0.00 0.00 0.00 0.00 0.00 0.00 0.00 0.00 0.09 0.20 0.21 0.23 0.16 0.09 0.14 0.17 0.09 0.08 0.11 0.09 0.10 0.08 0.14 0.14 0.11 0.05 0.05 0.04 0.03 0.01 0.01 0.00 0.00
0.00 0.00 0.00 0.00 0.00 0.00 0.00 0.00 0.00 0.01 0.01 0.01 0.00 0.00 0.00 0.00 0.00 0.00 0.00 0.00 0.00 0.00 0.00 0.00 0.00 0.02 0.08 0.08 0.15 0.12 0.13 0.14 0.13 0.07 0.10 0.08 0.09 0.07 0.14 0.08 0.09 0.16 0.07 0.04 0.05 0.03 0.02 0.01 0.00
0.00 0.00 0.00 0.00 0.00 0.00 0.00 0.00 0.00 0.00 0.01 0.00 0.00 0.00 0.00 0.00 0.00 0.00 0.00 0.00 0.00 0.00 0.00 0.00 0.00 0.00 0.02 0.01 0.02 0.06 0.12 0.10 0.09 0.09 0.05 0.07 0.04 0.07 0.20 0.09 0.05 0.17 0.14 0.04 0.04 0.04 0.05 0.04 0.03
0.00 0.00 0.00 0.00 0.00 0.00 0.00 0.00 0.00 0.00 0.02 0.00 0.00 0.00 0.00 0.00 0.00 0.00 0.00 0.00 0.00 0.00 0.00 0.00 0.00 0.00 0.00 0.04 0.04 0.04 0.03 0.08 0.12 0.08 0.06 0.07 0.06 0.08 0.18 0.10 0.08 0.07 0.14 0.09 0.05 0.05 0.07 0.07 0.05
0.00 0.00 0.00 0.00 0.00 0.00 0.00 0.00 0.00 0.00 0.01 0.00 0.00 0.00 0.00 0.00 0.00 0.00 0.00 0.00 0.00 0.00 0.00 0.00 0.00 0.00 0.04 0.13 0.20 0.11 0.09 0.08 0.23 0.23 0.12 0.14 0.11 0.16 0.30 0.28 0.16 0.11 0.09 0.13 0.10 0.06 0.06 0.06 0.06
0.00 0.00 0.00 0.01 0.00 0.00 0.00 0.00 0.00 0.00 0.00 0.00 0.00 0.00 0.00 0.00 0.00 0.00 0.00 0.00 0.00 0.00 0.00 0.00 0.00 0.07 0.07 0.07 0.09 0.13 0.12 0.17 0.14 0.14 0.16 0.20 0.18 0.21 0.24 0.24 0.14 0.12 0.13 0.11 0.11 0.11 0.09 0.11 0.15
0.00 0.00 0.01 0.09 0.03 0.02 0.03 0.00 0.00 0.00 0.00 0.00 0.00 0.00 0.00 0.00 0.00 0.00 0.00 0.00 0.00 0.00 0.00 0.00 0.00 0.04 0.13 0.15 0.05 0.07 0.05 0.04 0.06 0.11 0.14 0.10 0.12 0.09 0.16 0.16 0.16 0.13 0.14 0.14 0.12 0.14 0.15 0.15 0.15
0.00 0.00 0.00 0.02 0.05 0.04 0.05 0.01 0.00 0.00 0.00 0.00 0.00 0.00 0.00 0.00 0.00 0.00 0.00 0.00 0.00 0.00 0.00 0.00 0.00 0.08 0.22 0.19 0.09 0.04 0.01 0.00 0.01 0.01 0.04 0.06 0.06 0.09 0.09 0.07 0.13 0.13 0.12 0.11 0.10 0.09 0.10 0.10 0.10
0.00 0.00 0.00 0.00 0.03 0.05 0.00 0.01 0.01 0.00 0.00 0.00 0.00 0.00 0.00 0.00 0.00 0.00 0.01 0.06 0.01 0.03 0.04 0.10 0.08 0.09 0.22 0.26 0.22 0.06 0.03 0.04 0.06 0.05 0.11 0.14 0.16 0.16 0.12 0.07 0.04 0.05 0.05 0.05 0.06 0.05 0.07 0.08 0.06
0.00 0.00 0.00 0.00 0.00 0.01 0.02 0.00 0.00 0.00 0.00 0.00 0.00 0.00 0.00 0.00 0.00 0.00 0.01 0.04 0.05 0.12 0.11 0.08 0.19 0.46 0.34 0.29 0.14 0.07 0.06 0.18 0.25 0.16 0.22 0.25 0.27 0.27 0.25 0.19 0.12 0.07 0.08 0.10 0.08 0.06 0.06 0.06 0.07
0.00 0.00 0.00 0.00 0.00 0.00 0.02 0.00 0.00 0.00 0.00 0.00 0.00 0.00 0.00 0.00 0.00 0.00 0.00 0.00 0.02 0.02 0.02 0.01 0.06 0.16 0.22 0.27 0.22 0.36 0.53 0.45 0.60 0.58 0.59 0.57 0.37 0.29 0.26 0.27 0.24 0.21 0.16 0.16 0.14 0.13 0.13 0.14 0.16

GFSSGP_prec_precacc24_060.txt.gz
Total_Precipitation_Accumulation
0.00 0.00 0.00 0.00 0.00 0.00 0.00 0.00 0.00 0.00 0.00 0.00 0.00 0.10 0.04 0.04 0.06 0.15 0.32 0.68 1.35 1.44 1.74 1.41 0.56 0.23 0.02 0.00 0.00 0.00 0.00 0.00 0.00 0.00 0.00 0.00 0.00 0.00 0.00 0.00 0.00 0.00 0.00 0.00 0.00 0.00 0.00 0.00 0.00
0.00 0.00 0.00 0.00 0.00 0.00 0.00 0.00 0.00 0.00 0.01 0.14 0.07 0.12 0.12 0.51 0.28 0.20 0.25 0.26 0.21 0.31 0.35 1.85 1.97 0.72 0.23 0.07 0.00 0.00 0.00 0.00 0.01 0.00 0.00 0.00 0.00 0.00 0.00 0.00 0.00 0.00 0.00 0.00 0.00 0.00 0.00 0.00 0.00
0.00 0.00 0.00 0.00 0.00 0.00 0.00 0.00 0.00 0.01 0.00 0.01 0.00 0.02 0.22 0.94 0.49 0.24 0.41 0.43 0.55 0.43 0.44 0.47 0.99 1.14 0.63 0.18 0.05 0.00 0.00 0.00 0.01 0.01 0.00 0.00 0.00 0.00 0.00 0.00 0.00 0.00 0.00 0.00 0.00 0.00 0.00 0.00 0.00
0.00 0.00 0.00 0.00 0.00 0.00 0.00 0.00 0.00 0.00 0.00 0.01 0.01 0.16 0.38 0.45 0.43 0.41 0.29 0.59 1.14 1.01 1.03 1.07 0.95 0.75 0.90 0.50 0.18 0.02 0.00 0.00 0.01 0.01 0.00 0.00 0.00 0.00 0.00 0.00 0.00 0.00 0.01 0.00 0.00 0.00 0.00 0.00 0.00
0.00 0.00 0.00 0.00 0.00 0.00 0.00 0.00 0.00 0.00 0.12 0.14 0.01 0.32 0.60 0.28 0.15 0.32 0.26 0.30 0.79 1.51 1.72 1.29 2.08 1.70 1.37 0.75 0.52 0.17 0.03 0.00 0.02 0.02 0.00 0.00 0.00 0.00 0.00 0.00 0.00 0.00 0.00 0.00 0.00 0.00 0.00 0.00 0.00
0.00 0.00 0.00 0.00 0.00 0.00 0.00 0.00 0.00 0.00 0.01 0.04 0.10 0.48 0.65 0.14 0.21 0.26 0.16 0.43 0.84 1.24 1.83 1.97 2.66 3.92 2.87 2.00 1.19 0.52 0.12 0.01 0.04 0.03 0.00 0.00 0.00 0.00 0.00 0.00 0.00 0.00 0.00 0.00 0.00 0.00 0.00 0.00 0.00
0.00 0.00 0.00 0.00 0.00 0.00 0.09 0.09 0.00 0.04 0.05 0.22 0.31 0.56 0.36 0.13 0.32 0.26 0.32 0.78 1.22 1.67 2.31 1.90 2.86 3.86 4.41 4.72 2.86 1.25 0.44 0.08 0.07 0.06 0.00 0.00 0.00 0.01 0.00 0.00 0.00 0.00 0.00 0.00 0.00 0.00 0.00 0.00 0.00
0.00 0.00 0.00 0.00 0.00 0.01 0.08 0.02 0.03 0.02 0.12 0.35 0.15 0.41 0.44 0.22 0.37 0.36 0.28 0.60 1.24 1.31 2.87 2.32 2.91 4.95 3.79 4.06 3.03 1.26 0.80 0.27 0.10 0.06 0.01 0.00 0.00 0.00 0.00 0.00 0.00 0.01 0.00 0.00 0.00 0.00 0.00 0.00 0.00
0.00 0.00 0.00 0.00 0.00 0.00 0.00 0.01 0.16 0.04 0.09 0.18 0.04 0.11 0.23 0.19 0.19 0.25 0.21 0.30 0.74 0.94 1.49 2.03 3.41 4.82 5.47 4.03 2.66 1.37 0.94 0.74 0.28 0.07 0.02 0.00 0.00 0.00 0.00 0.00 0.00 0.01 0.00 0.00 0.00 0.00 0.00 0.00 0.00
0.00 0.00 0.00 0.00 0.00 0.00 0.00 0.00 0.15 0.05 0.15 0.45 0.16 0.06 0.10 0.12 0.10 0.13 0.11 0.27 0.38 0.60 1.30 1.54 1.43 1.47 2.03 2.12 2.04 1.32 1.09 0.94 0.72 0.16 0.05 0.00 0.00 0.00 0.00 0.00 0.00 0.00 0.00 0.00 0.00 0.00 0.00 0.00 0.00
0.00 0.00 0.00 0.00 0.00 0.00 0.00 0.01 0.08 0.21 0.33 0.38 0.36 0.04 0.04 0.06 0.09 0.09 0.06 0.10 0.31 0.47 0.95 0.90 0.42 0.28 0.45 0.47 0.65 0.80 0.89 0.77 0.89 0.50 0.13 0.02 0.01 0.00 0.00 0.00 0.00 0.00 0.00 0.00 0.00 0.00 0.00 0.00 0.00
0.00 0.00 0.00 0.00 0.00 0.00 0.00 0.01 0.08 0.21 0.26 0.07 0.02 0.01 0.02 0.02 0.03 0.05 0.05 0.10 0.29 0.41 0.55 0.47 0.20 0.14 0.13 0.13 0.22 0.36 0.48 0.72 0.55 0.46 0.13 0.02 0.00 0.00 0.00 0.00 0.00 0.00 0.00 0.00 0.00 0.00 0.00 0.00 0.00
0.00 0.00 0.00 0.00 0.00 0.00 0.00 0.00 0.06 0.27 0.08 0.00 0.01 0.06 0.05 0.04 0.03 0.03 0.08 0.11 0.22 0.42 0.39 0.43 0.33 0.18 0.08 0.06 0.12 0.25 0.38 0.60 0.38 0.33 0.13 0.00 0.00 0.00 0.00 0.00 0.00 0.00 0.00 0.00 0.00 0.00 0.00 0.00 0.00
0.00 0.00 0.00 0.00 0.00 0.00 0.00 0.04 0.09 0.37 0.05 0.01 0.01 0.05 0.30 0.48 0.05 0.01 0.04 0.08 0.14 0.28 0.39 0.41 0.37 0.31 0.20 0.10 0.05 0.10 0.30 0.38 0.31 0.20 0.05 0.00 0.00 0.00 0.00 0.00 0.00 0.00 0.00 0.00 0.00 0.00 0.00 0.00 0.00
0.00 0.00 0.00 0.00 0.00 0.00 0.04 0.18 0.34 0.11 0.04 0.03 0.00 0.00 0.31 0.80 0.16 0.02 0.01 0.02 0.05 0.17 0.30 0.50 0.55 0.32 0.24 0.16 0.18 0.14 0.20 0.26 0.19 0.15 0.03 0.01 0.00 0.00 0.01 0.01 0.01 0.00 0.00 0.00 0.00 0.00 0.00 0.00 0.00
0.00 0.00 0.00 0.00 0.00 0.00 0.14 0.48 0.05 0.02 0.04 0.03 0.00 0.00 0.05 0.09 0.02 0.00 0.00 0.00 0.00 0.04 0.19 0.48 0.53 0.47 0.30 0.13 0.13 0.12 0.12 0.17 0.12 0.11 0.02 0.01 0.01 0.02 0.02 0.03 0.01 0.00 0.00 0.00 0.00 0.00 0.00 0.00 0.00
0.00 0.00 0.00 0.00 0.00 0.00 0.04 0.33 0.11 0.03 0.04 0.01 0.00 0.00 0.00 0.00 0.00 0.00 0.00 0.00 0.00 0.00 0.05 0.42 0.60 0.40 0.21 0.14 0.13 0.07 0.06 0.10 0.08 0.06 0.07 0.04 0.02 0.08 0.02 0.07 0.09 0.00 0.00 0.00 0.00 0.00 0.00 0.00 0.00
0.00 0.00 0.00 0.02 0.02 0.01 0.01 0.03 0.25 0.11 0.00 0.00 0.00 0.00 0.00 0.00 0.00 0.00 0.00 0.00 0.00 0.00 0.00 0.14 0.67 0.49 0.28 0.20 0.12 0.22 0.12 0.05 0.09 0.09 0.18 0.13 0.03 0.03 0.04 0.10 0.06 0.00 0.00 0.00 0.00 0.00 0.00 0.00 0.00
0.00 0.00 0.00 0.00 0.01 0.00 0.00 0.01 0.01 0.00 0.00 0.00 0.00 0.00 0.00 0.00 0.00 0.00 0.00 0.00 0.00 0.00 0.00 0.04 0.34 0.54 0.31 0.27 0.16 0.23 0.22 0.09 0.08 0.14 0.22 0.19 0.06 0.09 0.14 0.13 0.06 0.01 0.01 0.02 0.00 0.00 0.00 0.00 0.00
0.00 0.00 0.00 0.00 0.00 0.00 0.00 0.00 0.00 0.00 0.00 0.00 0.00 0.00 0.00 0.00 0.00 0.00 0.00 0.00 0.00 0.00 0.00 0.00 0.15 0.27 0.28 0.25 0.16 0.10 0.14 0.17 0.08 0.09 0.11 0.09 0.10 0.08 0.14 0.14 0.11 0.05 0.05 0.04 0.03 0.02 0.02 0.01 0.00
0.00 0.00 0.00 0.00 0.00 0.00 0.00 0.00 0.00 0.01 0.01 0.01 0.00 0.00 0.00 0.00 0.00 0.00 0.00 0.00 0.00 0.00 0.00 0.00 0.01 0.06 0.11 0.10 0.19 0.16 0.17 0.16 0.18 0.09 0.10 0.08 0.09 0.07 0.14 0.08 0.09 0.16 0.07 0.04 0.06 0.05 0.04 0.03 0.03
0.00 0.00 0.00 0.00 0.00 0.00 0.00 0.00 0.00 0.00 0.01 0.00 0.00 0.00 0.00 0.00 0.00 0.00 0.00 0.00 0.00 0.00 0.00 0.00 0.00 0.00 0.02 0.02 0.07 0.11 0.13 0.06 0.03 0.05 0.03 0.05 0.03 0.07 0.20 0.09 0.05 0.17 0.14 0.05 0.05 0.06 0.06 0.05 0.05
0.00 0.00 0.00 0.00 0.00 0.00 0.00 0.00 0.00 0.00 0.02 0.00 0.00 0.00 0.00 0.00 0.00 0.00 0.00 0.00 0.00 0.00 0.00 0.00 0.00 0.00 0.01 0.04 0.03 0.04 0.03 0.05 0.10 0.07 0.05 0.04 0.03 0.07 0.17 0.09 0.08 0.08 0.17 0.13 0.08 0.06 0.08 0.08 0.06
0.00 0.00 0.00 0.00 0.00 0.00 0.00 0.00 0.00 0.00 0.01 0.00 0.00 0.00 0.00 0.00 0.00 0.00 0.00 0.00 0.00 0.00 0.00 0.00 0.00 0.00 0.00 0.03 0.05 0.06 0.04 0.04 0.19 0.21 0.12 0.13 0.10 0.14 0.28 0.27 0.18 0.11 0.09 0.14 0.12 0.10 0.08 0.08 0.06
0.00 0.00 0.00 0.01 0.00 0.00 0.00 0.00 0.00 0.00 0.00 0.00 0.00 0.00 0.00 0.00 0.00 0.00 0.00 0.00 0.00 0.00 0.00 0.00 0.00 0.00 0.01 0.03 0.04 0.09 0.07 0.10 0.07 0.10 0.13 0.17 0.14 0.18 0.23 0.24 0.14 0.12 0.13 0.11 0.12 0.15 0.12 0.14 0.16
0.00 0.00 0.01 0.09 0.03 0.02 0.03 0.00 0.00 0.00 0.00 0.00 0.00 0.00 0.00 0.00 0.00 0.00 0.00 0.00 0.00 0.00 0.00 0.00 0.00 0.00 0.01 0.04 0.03 0.05 0.02 0.01 0.03 0.10 0.13 0.08 0.09 0.08 0.16 0.16 0.16 0.13 0.14 0.14 0.12 0.14 0.15 0.15 0.16
0.00 0.00 0.00 0.02 0.05 0.04 0.05 0.01 0.00 0.00 0.00 0.00 0.00 0.00 0.00 0.00 0.00 0.00 0.00 0.00 0.00 0.00 0.00 0.00 0.00 0.01 0.00 0.02 0.05 0.03 0.01 0.00 0.00 0.01 0.03 0.02 0.03 0.08 0.09 0.07 0.13 0.13 0.12 0.11 0.10 0.09 0.10 0.10 0.10
0.00 0.00 0.00 0.00 0.03 0.05 0.00 0.01 0.01 0.00 0.00 0.00 0.00 0.00 0.00 0.00 0.00 0.00 0.01 0.06 0.01 0.03 0.04 0.10 0.08 0.09 0.15 0.12 0.13 0.04 0.03 0.03 0.04 0.03 0.07 0.09 0.13 0.15 0.11 0.07 0.04 0.05 0.05 0.05 0.06 0.05 0.07 0.08 0.07
0.00 0.00 0.00 0.00 0.00 0.01 0.02 0.00 0.00 0.00 0.00 0.00 0.00 0.00 0.00 0.00 0.00 0.00 0.01 0.04 0.05 0.12 0.11 0.08 0.19 0.46 0.34 0.29 0.13 0.06 0.04 0.15 0.21 0.12 0.16 0.18 0.24 0.26 0.24 0.19 0.11 0.07 0.08 0.10 0.08 0.06 0.06 0.06 0.07
0.00 0.00 0.00 0.00 0.00 0.00 0.02 0.00 0.00 0.00 0.00 0.00 0.00 0.00 0.00 0.00 0.00 0.00 0.00 0.00 0.02 0.02 0.02 0.01 0.06 0.16 0.22 0.26 0.20 0.32 0.47 0.39 0.56 0.54 0.54 0.52 0.34 0.27 0.25 0.27 0.24 0.21 0.16 0.16 0.14 0.13 0.13 0.14 0.17

GFSSGP_prec_precacc24_063.txt.gz
Total_Precipitation_Accumulation
0.00 0.00 0.00 0.00 0.00 0.00 0.00 0.00 0.00 0.00 0.00 0.00 0.00 0.10 0.04 0.03 0.05 0.11 0.20 0.61 1.34 1.41 1.71 1.41 0.55 0.24 0.03 0.01 0.00 0.00 0.00 0.00 0.00 0.00 0.00 0.00 0.00 0.01 0.00 0.00 0.00 0.00 0.00 0.00 0.00 0.00 0.00 0.00 0.00
0.00 0.00 0.00 0.00 0.00 0.00 0.00 0.00 0.00 0.00 0.01 0.14 0.07 0.10 0.09 0.45 0.28 0.20 0.24 0.25 0.19 0.22 0.27 1.82 1.96 0.74 0.32 0.13 0.01 0.00 0.00 0.00 0.01 0.00 0.00 0.00 0.00 0.00 0.00 0.00 0.00 0.00 0.00 0.00 0.00 0.00 0.00 0.00 0.00
0.00 0.00 0.00 0.00 0.00 0.00 0.00 0.00 0.00 0.01 0.00 0.01 0.00 0.01 0.15 0.77 0.39 0.23 0.40 0.39 0.43 0.38 0.28 0.44 0.98 1.18 0.80 0.26 0.09 0.04 0.00 0.00 0.01 0.01 0.00 0.00 0.00 0.00 0.00 0.00 0.00 0.00 0.00 0.00 0.00 0.00 0.00 0.00 0.00
0.00 0.00 0.00 0.00 0.00 0.00 0.00 0.00 0.00 0.00 0.00 0.01 0.01 0.13 0.36 0.21 0.08 0.07 0.21 0.51 0.88 0.81 0.85 1.07 0.95 0.81 0.98 0.75 0.47 0.19 0.01 0.00 0.01 0.01 0.00 0.00 0.00 0.00 0.00 0.00 0.00 0.00 0.01 0.00 0.00 0.00 0.00 0.00 0.00
0.00 0.00 0.00 0.00 0.00 0.00 0.00 0.00 0.00 0.00 0.12 0.14 0.01 0.25 0.59 0.25 0.10 0.03 0.07 0.21 0.56 1.17 1.70 1.35 2.08 1.72 1.47 1.01 0.89 0.65 0.16 0.01 0.02 0.02 0.00 0.00 0.00 0.00 0.00 0.00 0.00 0.00 0.00 0.00 0.00 0.00 0.00 0.00 0.00
0.00 0.00 0.00 0.00 0.00 0.00 0.00 0.00 0.00 0.00 0.01 0.04 0.10 0.41 0.60 0.07 0.18 0.22 0.12 0.33 0.70 1.04 1.65 1.95 2.79 4.14 3.13 2.43 1.67 1.03 0.25 0.02 0.04 0.03 0.00 0.00 0.00 0.00 0.00 0.00 0.00 0.00 0.00 0.00 0.00 0.00 0.00 0.00 0.00
0.00 0.00 0.00 0.00 0.00 0.00 0.09 0.09 0.00 0.04 0.05 0.22 0.31 0.49 0.33 0.07 0.22 0.23 0.31 0.62 0.87 1.12 1.78 1.66 2.85 4.32 4.89 5.33 3.83 2.22 0.86 0.09 0.07 0.06 0.00 0.00 0.00 0.01 0.00 0.01 0.00 0.00 0.00 0.00 0.00 0.00 0.00 0.00 0.00
0.00 0.00 0.00 0.00 0.00 0.00 0.08 0.02 0.03 0.02 0.12 0.35 0.15 0.33 0.41 0.20 0.31 0.32 0.25 0.52 0.98 0.95 2.55 1.99 2.80 5.08 4.04 4.30 3.87 2.37 1.65 0.50 0.12 0.06 0.01 0.00 0.00 0.00 0.01 0.02 0.00 0.01 0.00 0.00 0.00 0.00 0.00 0.00 0.00
0.00 0.00 0.00 0.00 0.00 0.00 0.00 0.01 0.16 0.04 0.09 0.18 0.04 0.09 0.20 0.18 0.19 0.24 0.19 0.25 0.51 0.73 1.29 1.91 3.31 4.74 5.48 4.12 3.03 2.28 2.08 1.53 0.44 0.10 0.07 0.02 0.00 0.00 0.01 0.03 0.00 0.01 0.00 0.00 0.00 0.00 0.00 0.00 0.00
0.00 0.00 0.00 0.00 0.00 0.00 0.00 0.00 0.15 0.05 0.15 0.44 0.16 0.05 0.09 0.10 0.08 0.13 0.11 0.26 0.29 0.48 1.14 1.46 1.39 1.45 2.08 2.24 2.15 1.78 2.08 1.57 0.87 0.23 0.06 0.01 0.01 0.00 0.00 0.04 0.02 0.00 0.00 0.00 0.00 0.00 0.00 0.00 0.00
0.00 0.00 0.00 0.00 0.00 0.00 0.00 0.01 0.08 0.21 0.31 0.35 0.34 0.03 0.03 0.03 0.07 0.08 0.05 0.10 0.29 0.45 0.86 0.80 0.36 0.25 0.44 0.56 0.76 1.02 1.81 1.24 1.10 0.63 0.18 0.09 0.08 0.03 0.01 0.05 0.03 0.00 0.00 0.00 0.00 0.00 0.00 0.00 0.00
0.00 0.00 0.00 0.00 0.00 0.00 0.00 0.01 0.08 0.21 0.24 0.06 0.00 0.01 0.01 0.01 0.02 0.05 0.05 0.11 0.31 0.46 0.51 0.36 0.15 0.10 0.09 0.12 0.26 0.47 0.88 1.26 0.75 0.63 0.32 0.16 0.05 0.01 0.01 0.02 0.01 0.00 0.00 0.00 0.00 0.00 0.00 0.00 0.00
0.00 0.00 0.00 0.00 0.00 0.00 0.00 0.00 0.06 0.26 0.08 0.00 0.00 0.01 0.02 0.02 0.02 0.02 0.08 0.11 0.20 0.39 0.39 0.33 0.22 0.14 0.04 0.02 0.08 0.27 0.51 1.03 0.53 0.44 0.34 0.19 0.02 0.01 0.01 0.03 0.02 0.00 0.00 0.00 0.00 0.00 0.00 0.00 0.00
0.00 0.00 0.00 0.00 0.00 0.00 0.00 0.04 0.08 0.36 0.05 0.01 0.00 0.00 0.07 0.35 0.05 0.01 0.03 0.08 0.14 0.27 0.35 0.34 0.28 0.25 0.16 0.08 0.04 0.10 0.40 0.65 0.42 0.32 0.25 0.18 0.01 0.01 0.02 0.02 0.01 0.00 0.00 0.00 0.00 0.00 0.00 0.00 0.00
0.00 0.00 0.00 0.00 0.00 0.00 0.02 0.11 0.34 0.11 0.04 0.03 0.00 0.00 0.04 0.41 0.11 0.01 0.01 0.01 0.05 0.17 0.28 0.47 0.52 0.29 0.20 0.11 0.16 0.16 0.38 0.61 0.33 0.29 0.19 0.08 0.02 0.01 0.01 0.01 0.01 0.00 0.00 0.00 0.00 0.00 0.00 0.00 0.00
0.00 0.00 0.00 0.00 0.00 0.00 0.01 0.21 0.05 0.02 0.04 0.03 0.00 0.00 0.00 0.03 0.00 0.00 0.00 0.00 0.01 0.04 0.21 0.48 0.53 0.45 0.27 0.11 0.13 0.13 0.28 0.48 0.33 0.27 0.13 0.03 0.02 0.02 0.02 0.03 0.01 0.00 0.00 0.00 0.00 0.00 0.00 0.00 0.00
0.00 0.00 0.00 0.00 0.00 0.00 0.01 0.27 0.11 0.03 0.04 0.01 0.00 0.00 0.00 0.00 0.00 0.00 0.00 0.00 0.00 0.00 0.06 0.43 0.58 0.37 0.19 0.11 0.12 0.08 0.12 0.29 0.27 0.21 0.10 0.05 0.02 0.07 0.02 0.07 0.09 0.00 0.00 0.00 0.00 0.00 0.00 0.00 0.00
0.00 0.00 0.00 0.00 0.02 0.01 0.01 0.02 0.25 0.11 0.00 0.00 0.00 0.00 0.00 0.00 0.00 0.00 0.00 0.00 0.00 0.00 0.01 0.14 0.67 0.47 0.26 0.17 0.12 0.23 0.14 0.18 0.17 0.16 0.20 0.13 0.03 0.03 0.04 0.10 0.06 0.00 0.00 0.00 0.00 0.00 0.00 0.00 0.00
0.00 0.00 0.00 0.00 0.00 0.00 0.00 0.01 0.01 0.00 0.00 0.00 0.00 0.00 0.00 0.00 0.00 0.00 0.00 0.00 0.00 0.00 0.01 0.04 0.34 0.53 0.27 0.25 0.16 0.24 0.23 0.15 0.09 0.13 0.21 0.18 0.06 0.09 0.14 0.13 0.06 0.01 0.01 0.02 0.00 0.00 0.00 0.00 0.00
0.00 0.00 0.00 0.00 0.00 0.00 0.00 0.00 0.00 0.00 0.00 0.00 0.00 0.00 0.00 0.00 0.00 0.00 0.00 0.00 0.00 0.00 0.00 0.01 0.15 0.28 0.32 0.27 0.18 0.10 0.15 0.20 0.10 0.09 0.10 0.11 0.11 0.08 0.14 0.14 0.11 0.05 0.05 0.04 0.03 0.02 0.02 0.01 0.00
0.00 0.00 0.00 0.00 0.00 0.00 0.00 0.00 0.00 0.01 0.01 0.01 0.00 0.00 0.00 0.00 0.00 0.00 0.00 0.00 0.00 0.00 0.00 0.01 0.01 0.06 0.13 0.23 0.22 0.18 0.19 0.17 0.23 0.13 0.13 0.09 0.10 0.08 0.14 0.08 0.09 0.16 0.07 0.06 0.06 0.05 0.04 0.03 0.03
0.00 0.00 0.00 0.00 0.00 0.00 0.00 0.00 0.00 0.00 0.01 0.00 0.00 0.00 0.00 0.00 0.00 0.00 0.00 0.00 0.00 0.00 0.00 0.00 0.01 0.01 0.01 0.03 0.08 0.11 0.14 0.06 0.03 0.05 0.04 0.05 0.03 0.10 0.21 0.08 0.05 0.17 0.15 0.07 0.07 0.06 0.06 0.08 0.08
0.00 0.00 0.00 0.00 0.00 0.00 0.00 0.00 0.00 0.00 0.02 0.00 0.00 0.00 0.00 0.00 0.00 0.00 0.00 0.00 0.00 0.00 0.00 0.00 0.00 0.01 0.01 0.01 0.03 0.04 0.04 0.05 0.06 0.07 0.06 0.04 0.02 0.07 0.21 0.10 0.08 0.11 0.18 0.16 0.14 0.10 0.08 0.09 0.17
0.00 0.00 0.00 0.00 0.00 0.00 0.00 0.00 0.00 0.00 0.01 0.00 0.00 0.00 0.00 0.00 0.00 0.00 0.00 0.00 0.00 0.00 0.00 0.00 0.00 0.00 0.01 0.01 0.03 0.05 0.03 0.03 0.10 0.17 0.10 0.11 0.09 0.13 0.28 0.28 0.18 0.14 0.13 0.21 0.14 0.12 0.09 0.08 0.08
0.00 0.00 0.00 0.01 0.00 0.00 0.00 0.00 0.00 0.00 0.00 0.00 0.00 0.00 0.00 0.00 0.00 0.00 0.00 0.00 0.00 0.00 0.00 0.00 0.00 0.00 0.00 0.01 0.01 0.02 0.03 0.07 0.04 0.05 0.08 0.12 0.12 0.16 0.21 0.23 0.13 0.13 0.16 0.16 0.16 0.16 0.13 0.16 0.19
0.00 0.00 0.00 0.07 0.03 0.01 0.03 0.00 0.00 0.00 0.00 0.00 0.00 0.00 0.00 0.00 0.00 0.00 0.00 0.00 0.00 0.00 0.00 0.00 0.00 0.00 0.00 0.00 0.01 0.03 0.01 0.01 0.01 0.01 0.05 0.05 0.07 0.06 0.13 0.15 0.16 0.13 0.14 0.15 0.15 0.15 0.16 0.17 0.18
0.00 0.00 0.00 0.02 0.05 0.04 0.05 0.01 0.00 0.00 0.00 0.00 0.00 0.00 0.00 0.00 0.00 0.00 0.00 0.00 0.00 0.00 0.00 0.00 0.00 0.01 0.00 0.00 0.01 0.01 0.01 0.00 0.00 0.01 0.02 0.01 0.03 0.07 0.07 0.06 0.13 0.13 0.12 0.11 0.10 0.10 0.10 0.11 0.11
0.00 0.00 0.00 0.00 0.03 0.04 0.00 0.01 0.01 0.00 0.00 0.00 0.00 0.00 0.00 0.00 0.00 0.00 0.01 0.06 0.01 0.03 0.04 0.10 0.08 0.09 0.13 0.05 0.00 0.00 0.03 0.03 0.05 0.02 0.03 0.06 0.09 0.12 0.10 0.07 0.03 0.04 0.05 0.05 0.06 0.05 0.07 0.08 0.07
0.00 0.00 0.00 0.00 0.00 0.01 0.02 0.00 0.00 0.00 0.00 0.00 0.00 0.00 0.00 0.00 0.00 0.00 0.01 0.04 0.05 0.12 0.11 0.08 0.19 0.46 0.34 0.28 0.06 0.03 0.04 0.15 0.21 0.11 0.15 0.17 0.23 0.24 0.23 0.18 0.11 0.07 0.07 0.10 0.08 0.06 0.07 0.06 0.07
0.00 0.00 0.00 0.00 0.00 0.00 0.02 0.00 0.00 0.00 0.00 0.00 0.00 0.00 0.00 0.00 0.00 0.00 0.00 0.00 0.02 0.02 0.02 0.01 0.06 0.16 0.22 0.26 0.19 0.32 0.47 0.38 0.54 0.53 0.54 0.51 0.33 0.26 0.24 0.26 0.24 0.21 0.16 0.16 0.14 0.13 0.13 0.14 0.16

GFSSGP_prec_precacc24_069.txt.gz
Total_Precipitation_Accumulation
0.00 0.00 0.00 0.00 0.00 0.00 0.00 0.00 0.00 0.00 0.00 0.00 0.00 0.00 0.00 0.01 0.02 0.03 0.03 0.00 0.02 0.08 0.42 0.62 0.44 0.23 0.05 0.02 0.01 0.00 0.00 0.00 0.00 0.00 0.00 0.00 0.00 0.01 0.00 0.00 0.00 0.00 0.01 0.01 0.01 0.01 0.01 0.00 0.00
0.00 0.00 0.00 0.00 0.00 0.00 0.00 0.00 0.00 0.00 0.01 0.00 0.00 0.00 0.00 0.00 0.00 0.00 0.02 0.02 0.04 0.08 0.09 0.81 1.57 0.68 0.34 0.14 0.04 0.02 0.00 0.00 0.01 0.00 0.00 0.00 0.00 0.01 0.01 0.02 0.01 0.00 0.01 0.02 0.01 0.01 0.01 0.00 0.00
0.00 0.00 0.00 0.00 0.00 0.00 0.00 0.00 0.00 0.01 0.00 0.00 0.00 0.00 0.00 0.00 0.00 0.00 0.00 0.01 0.10 0.11 0.07 0.16 0.69 1.01 0.77 0.29 0.13 0.07 0.00 0.00 0.01 0.01 0.00 0.00 0.00 0.00 0.01 0.02 0.02 0.01 0.01 0.01 0.01 0.01 0.01 0.00 0.00
0.00 0.00 0.00 0.00 0.00 0.00 0.00 0.00 0.00 0.00 0.00 0.00 0.00 0.00 0.00 0.00 0.00 0.00 0.00 0.00 0.15 0.20 0.27 0.40 0.33 0.64 0.88 0.77 0.71 0.42 0.08 0.01 0.03 0.02 0.00 0.00 0.00 0.00 0.00 0.01 0.01 0.02 0.01 0.01 0.01 0.00 0.00 0.00 0.00
0.00 0.00 0.00 0.00 0.00 0.00 0.00 0.00 0.00 0.00 0.00 0.00 0.00 0.00 0.00 0.00 0.00 0.00 0.00 0.05 0.24 0.47 1.09 0.64 1.11 1.27 1.44 1.16 1.34 1.40 0.92 0.18 0.23 0.13 0.03 0.03 0.00 0.00 0.00 0.00 0.00 0.01 0.01 0.01 0.01 0.00 0.00 0.00 0.00
0.00 0.00 0.00 0.00 0.00 0.00 0.00 0.00 0.00 0.00 0.00 0.00 0.00 0.00 0.00 0.00 0.00 0.01 0.00 0.14 0.39 0.73 1.41 1.21 1.70 3.29 3.17 2.45 2.30 2.17 1.86 1.15 0.51 0.22 0.12 0.14 0.03 0.00 0.01 0.00 0.00 0.00 0.00 0.01 0.00 0.00 0.00 0.00 0.00
0.00 0.00 0.00 0.00 0.00 0.00 0.00 0.00 0.00 0.00 0.00 0.01 0.00 0.00 0.00 0.00 0.01 0.04 0.01 0.12 0.50 0.63 1.26 1.39 1.89 3.86 4.94 5.27 4.21 3.64 3.11 2.92 1.71 0.54 0.16 0.07 0.02 0.01 0.01 0.01 0.00 0.00 0.00 0.00 0.00 0.00 0.00 0.00 0.00
0.00 0.00 0.00 0.00 0.00 0.00 0.00 0.00 0.00 0.00 0.00 0.01 0.00 0.01 0.01 0.01 0.10 0.12 0.03 0.20 0.60 0.34 1.04 1.13 1.73 3.59 3.41 4.03 3.96 3.30 3.92 2.68 2.55 2.00 0.73 0.22 0.01 0.00 0.01 0.02 0.00 0.01 0.01 0.00 0.00 0.00 0.00 0.00 0.00
0.00 0.00 0.00 0.00 0.00 0.00 0.00 0.00 0.00 0.00 0.01 0.01 0.00 0.01 0.04 0.07 0.08 0.08 0.11 0.14 0.31 0.31 0.59 1.09 2.60 3.60 4.30 3.66 2.98 2.41 2.84 4.55 2.22 2.34 1.69 0.57 0.02 0.01 0.01 0.04 0.00 0.01 0.00 0.00 0.00 0.00 0.00 0.00 0.00
0.00 0.00 0.00 0.00 0.00 0.00 0.00 0.00 0.00 0.00 0.00 0.01 0.00 0.02 0.05 0.05 0.04 0.05 0.07 0.20 0.20 0.33 0.92 1.23 1.19 1.22 1.76 2.09 2.07 1.70 2.24 3.82 3.27 2.29 1.52 0.35 0.03 0.03 0.02 0.06 0.02 0.00 0.00 0.00 0.00 0.00 0.00 0.00 0.00
0.00 0.00 0.00 0.00 0.00 0.00 0.00 0.00 0.00 0.00 0.03 0.02 0.00 0.01 0.01 0.02 0.02 0.03 0.03 0.08 0.24 0.35 0.77 0.72 0.24 0.09 0.25 0.48 0.75 1.00 1.98 2.42 2.85 1.87 1.27 0.29 0.10 0.10 0.07 0.07 0.03 0.00 0.00 0.00 0.00 0.00 0.00 0.00 0.00
0.00 0.00 0.00 0.00 0.00 0.00 0.00 0.00 0.00 0.02 0.06 0.01 0.00 0.00 0.00 0.00 0.01 0.01 0.04 0.10 0.29 0.38 0.32 0.32 0.15 0.08 0.03 0.10 0.26 0.48 1.02 2.12 1.74 1.73 1.08 0.48 0.09 0.05 0.06 0.02 0.01 0.00 0.00 0.00 0.00 0.00 0.00 0.00 0.00
0.00 0.00 0.00 0.00 0.00 0.00 0.00 0.00 0.00 0.00 0.00 0.00 0.00 0.00 0.00 0.00 0.02 0.02 0.08 0.10 0.19 0.33 0.27 0.15 0.13 0.09 0.03 0.02 0.05 0.20 0.48 1.78 1.11 1.82 0.96 0.48 0.06 0.03 0.03 0.03 0.02 0.00 0.00 0.00 0.00 0.00 0.00 0.00 0.00
0.00 0.00 0.00 0.00 0.00 0.00 0.00 0.00 0.00 0.00 0.00 0.00 0.00 0.00 0.00 0.02 0.01 0.00 0.03 0.07 0.13 0.25 0.29 0.26 0.16 0.09 0.03 0.01 0.01 0.07 0.36 0.89 0.90 1.45 0.69 0.36 0.06 0.04 0.04 0.05 0.02 0.00 0.00 0.00 0.00 0.00 0.00 0.00 0.00
0.00 0.00 0.00 0.00 0.00 0.00 0.00 0.00 0.00 0.00 0.00 0.00 0.00 0.00 0.00 0.00 0.00 0.00 0.01 0.01 0.04 0.15 0.24 0.34 0.37 0.13 0.07 0.01 0.02 0.03 0.31 0.62 0.54 0.75 0.46 0.21 0.07 0.03 0.03 0.04 0.04 0.00 0.00 0.00 0.00 0.00 0.00 0.00 0.00
0.00 0.00 0.00 0.00 0.00 0.00 0.00 0.00 0.00 0.00 0.00 0.00 0.00 0.00 0.00 0.00 0.00 0.00 0.00 0.00 0.01 0.04 0.19 0.43 0.43 0.36 0.20 0.05 0.04 0.03 0.22 0.49 0.47 0.47 0.29 0.11 0.06 0.04 0.05 0.05 0.02 0.00 0.00 0.00 0.00 0.00 0.00 0.00 0.00
0.00 0.00 0.00 0.00 0.00 0.00 0.00 0.00 0.00 0.00 0.00 0.00 0.00 0.00 0.00 0.00 0.00 0.00 0.00 0.00 0.00 0.00 0.06 0.43 0.57 0.36 0.17 0.07 0.08 0.07 0.13 0.34 0.33 0.30 0.15 0.06 0.04 0.03 0.02 0.07 0.07 0.02 0.03 0.00 0.00 0.00 0.00 0.00 0.00
0.00 0.00 0.00 0.00 0.00 0.00 0.00 0.00 0.00 0.00 0.00 0.00 0.00 0.00 0.00 0.00 0.00 0.00 0.00 0.00 0.00 0.00 0.01 0.15 0.67 0.47 0.25 0.16 0.11 0.23 0.16 0.26 0.24 0.22 0.19 0.06 0.02 0.02 0.02 0.03 0.08 0.08 0.05 0.02 0.00 0.00 0.00 0.00 0.00
0.00 0.00 0.00 0.00 0.00 0.00 0.00 0.00 0.00 0.00 0.00 0.00 0.00 0.00 0.00 0.00 0.00 0.00 0.00 0.00 0.00 0.00 0.01 0.05 0.35 0.53 0.26 0.23 0.16 0.24 0.24 0.19 0.17 0.16 0.15 0.09 0.02 0.03 0.02 0.02 0.07 0.02 0.07 0.06 0.01 0.00 0.00 0.00 0.00
0.00 0.00 0.00 0.00 0.00 0.00 0.00 0.00 0.00 0.00 0.00 0.00 0.00 0.00 0.00 0.00 0.00 0.00 0.00 0.00 0.00 0.00 0.00 0.01 0.17 0.29 0.32 0.27 0.18 0.10 0.16 0.22 0.13 0.11 0.09 0.07 0.03 0.01 0.06 0.08 0.06 0.03 0.07 0.09 0.04 0.02 0.02 0.01 0.00
0.00 0.00 0.00 0.00 0.00 0.00 0.00 0.00 0.00 0.00 0.00 0.00 0.00 0.00 0.00 0.00 0.00 0.00 0.00 0.00 0.00 0.00 0.00 0.01 0.03 0.07 0.12 0.27 0.24 0.21 0.20 0.20 0.26 0.15 0.07 0.03 0.04 0.02 0.02 0.05 0.07 0.09 0.07 0.08 0.07 0.05 0.05 0.03 0.03
0.00 0.00 0.00 0.00 0.00 0.00 0.00 0.00 0.00 0.00 0.00 0.00 0.00 0.00 0.00 0.00 0.00 0.00 0.00 0.00 0.00 0.00 0.00 0.00 0.02 0.02 0.01 0.04 0.08 0.12 0.14 0.08 0.04 0.04 0.04 0.01 0.01 0.07 0.08 0.05 0.03 0.13 0.13 0.11 0.09 0.06 0.06 0.09 0.09
0.00 0.00 0.00 0.00 0.00 0.00 0.00 0.00 0.00 0.00 0.01 0.00 0.00 0.00 0.00 0.00 0.00 0.00 0.00 0.00 0.00 0.00 0.00 0.00 0.01 0.02 0.01 0.01 0.00 0.01 0.03 0.05 0.02 0.02 0.02 0.01 0.01 0.04 0.10 0.09 0.07 0.09 0.17 0.18 0.20 0.19 0.10 0.11 0.21
0.00 0.01 0.00 0.00 0.00 0.00 0.00 0.00 0.00 0.00 0.00 0.00 0.00 0.00 0.00 0.00 0.00 0.00 0.00 0.00 0.00 0.00 0.00 0.00 0.00 0.01 0.01 0.01 0.00 0.00 0.00 0.02 0.03 0.02 0.02 0.01 0.01 0.03 0.10 0.22 0.17 0.13 0.13 0.22 0.21 0.24 0.23 0.19 0.22
0.00 0.03 0.04 0.02 0.00 0.00 0.00 0.00 0.00 0.00 0.00 0.00 0.00 0.00 0.00 0.00 0.00 0.00 0.00 0.00 0.00 0.00 0.00 0.00 0.00 0.00 0.01 0.01 0.00 0.00 0.00 0.00 0.00 0.00 0.01 0.00 0.00 0.04 0.10 0.16 0.13 0.09 0.14 0.18 0.24 0.26 0.26 0.31 0.38
0.00 0.01 0.03 0.03 0.01 0.00 0.00 0.00 0.00 0.00 0.00 0.00 0.00 0.00 0.00 0.00 0.00 0.00 0.00 0.00 0.00 0.00 0.00 0.00 0.00 0.00 0.00 0.01 0.01 0.00 0.00 0.00 0.00 0.00 0.00 0.00 0.01 0.01 0.08 0.11 0.13 0.10 0.10 0.14 0.18 0.17 0.19 0.23 0.28
0.03 0.02 0.00 0.06 0.02 0.01 0.00 0.00 0.00 0.00 0.00 0.00 0.00 0.00 0.00 0.00 0.00 0.00 0.00 0.00 0.00 0.00 0.00 0.00 0.00 0.00 0.00 0.00 0.00 0.00 0.00 0.00 0.00 0.01 0.01 0.00 0.01 0.04 0.04 0.04 0.09 0.12 0.11 0.10 0.09 0.10 0.10 0.11 0.12
0.01 0.01 0.13 0.19 0.04 0.01 0.00 0.00 0.00 0.00 0.00 0.00 0.00 0.00 0.00 0.00 0.00 0.00 0.00 0.00 0.00 0.01 0.03 0.07 0.05 0.03 0.09 0.03 0.00 0.00 0.00 0.03 0.03 0.02 0.03 0.06 0.08 0.09 0.06 0.03 0.02 0.05 0.05 0.04 0.05 0.05 0.07 0.08 0.07
0.00 0.03 0.11 0.06 0.01 0.00 0.01 0.01 0.01 0.00 0.00 0.00 0.00 0.00 0.00 0.00 0.00 0.00 0.00 0.00 0.00 0.02 0.04 0.04 0.09 0.14 0.12 0.11 0.04 0.01 0.00 0.13 0.16 0.11 0.13 0.16 0.22 0.24 0.23 0.18 0.11 0.06 0.08 0.10 0.08 0.05 0.07 0.06 0.06
0.00 0.00 0.02 0.11 0.06 0.00 0.00 0.01 0.00 0.00 0.00 0.00 0.00 0.00 0.00 0.00 0.00 0.00 0.00 0.00 0.00 0.00 0.00 0.00 0.04 0.03 0.04 0.11 0.14 0.12 0.07 0.12 0.27 0.45 0.52 0.51 0.33 0.26 0.24 0.26 0.24 0.20 0.16 0.16 0.14 0.13 0.12 0.12 0.11

GFSSGP_prec_precacc24_072.txt.gz
Total_Precipitation_Accumulation
0.00 0.00 0.00 0.00 0.00 0.00 0.00 0.00 0.00 0.00 0.00 0.00 0.00 0.00 0.00 0.01 0.02 0.03 0.03 0.00 0.02 0.04 0.02 0.02 0.02 0.09 0.04 0.02 0.01 0.00 0.00 0.00 0.00 0.00 0.00 0.00 0.00 0.01 0.00 0.00 0.00 0.00 0.01 0.02 0.01 0.02 0.02 0.01 0.00
0.00 0.00 0.00 0.00 0.00 0.00 0.00 0.00 0.00 0.00 0.00 0.00 0.00 0.00 0.00 0.00 0.00 0.00 0.01 0.02 0.03 0.08 0.04 0.06 0.05 0.17 0.27 0.13 0.04 0.02 0.00 0.00 0.01 0.00 0.00 0.00 0.00 0.01 0.01 0.02 0.01 0.00 0.02 0.02 0.02 0.03 0.02 0.00 0.00
0.00 0.00 0.00 0.00 0.00 0.00 0.00 0.00 0.00 0.00 0.00 0.00 0.00 0.00 0.00 0.00 0.00 0.00 0.00 0.01 0.09 0.08 0.03 0.09 0.08 0.14 0.47 0.28 0.13 0.07 0.00 0.00 0.01 0.01 0.00 0.00 0.00 0.00 0.01 0.02 0.02 0.01 0.02 0.02 0.02 0.01 0.01 0.00 0.00
0.00 0.00 0.00 0.00 0.00 0.00 0.00 0.00 0.00 0.00 0.00 0.00 0.00 0.00 0.00 0.00 0.00 0.00 0.00 0.00 0.14 0.15 0.13 0.12 0.16 0.26 0.43 0.74 0.71 0.42 0.08 0.01 0.03 0.02 0.00 0.00 0.00 0.00 0.00 0.01 0.01 0.03 0.03 0.02 0.01 0.01 0.00 0.00 0.00
0.00 0.00 0.00 0.00 0.00 0.00 0.00 0.00 0.00 0.00 0.00 0.00 0.00 0.00 0.00 0.00 0.00 0.00 0.00 0.02 0.17 0.42 0.90 0.32 0.22 0.38 0.75 1.09 1.41 1.41 0.94 0.19 0.24 0.14 0.03 0.04 0.01 0.00 0.00 0.00 0.01 0.02 0.02 0.02 0.01 0.00 0.00 0.00 0.00
0.00 0.00 0.00 0.00 0.00 0.00 0.00 0.00 0.00 0.00 0.00 0.00 0.00 0.00 0.00 0.00 0.00 0.00 0.00 0.08 0.23 0.63 1.35 0.99 0.84 1.07 2.07 2.08 2.44 2.70 2.28 1.64 0.81 0.40 0.23 0.25 0.21 0.07 0.01 0.00 0.01 0.01 0.01 0.01 0.00 0.00 0.00 0.00 0.00
0.00 0.00 0.00 0.00 0.00 0.00 0.00 0.00 0.00 0.00 0.00 0.00 0.00 0.00 0.00 0.00 0.00 0.01 0.00 0.07 0.36 0.60 1.24 1.37 1.50 2.03 3.41 4.17 3.54 3.82 3.78 4.22 3.03 1.20 0.62 0.37 0.47 0.24 0.04 0.01 0.00 0.00 0.01 0.00 0.00 0.00 0.00 0.00 0.00
0.00 0.00 0.00 0.00 0.00 0.00 0.00 0.00 0.00 0.00 0.00 0.00 0.00 0.00 0.00 0.00 0.01 0.04 0.02 0.12 0.38 0.26 0.83 1.05 1.46 1.86 2.43 3.21 3.34 3.29 4.25 3.18 3.06 2.50 1.94 1.19 0.56 0.29 0.05 0.02 0.00 0.01 0.01 0.00 0.00 0.00 0.00 0.00 0.00
0.00 0.00 0.00 0.00 0.00 0.00 0.00 0.00 0.00 0.00 0.00 0.00 0.00 0.00 0.00 0.00 0.02 0.05 0.07 0.10 0.18 0.21 0.43 0.86 2.45 2.71 2.91 2.81 2.54 2.31 2.94 4.69 2.35 2.47 2.33 2.11 0.83 0.30 0.09 0.04 0.00 0.01 0.00 0.00 0.00 0.00 0.00 0.00 0.00
0.00 0.00 0.00 0.00 0.00 0.00 0.00 0.00 0.00 0.00 0.00 0.00 0.00 0.00 0.00 0.00 0.00 0.01 0.05 0.18 0.16 0.29 0.83 1.16 1.16 1.19 1.52 1.46 1.61 1.55 2.23 3.83 3.28 2.30 1.66 1.09 1.07 0.35 0.07 0.06 0.02 0.00 0.00 0.00 0.00 0.00 0.00 0.00 0.00
0.00 0.00 0.00 0.00 0.00 0.00 0.00 0.00 0.00 0.00 0.00 0.00 0.00 0.00 0.00 0.00 0.00 0.00 0.01 0.07 0.23 0.34 0.75 0.69 0.23 0.10 0.25 0.36 0.56 0.94 1.98 2.42 2.85 1.87 1.49 0.88 0.65 0.33 0.09 0.07 0.03 0.00 0.00 0.00 0.00 0.00 0.00 0.00 0.00
0.00 0.00 0.00 0.00 0.00 0.00 0.00 0.00 0.00 0.00 0.00 0.00 0.00 0.00 0.00 0.00 0.00 0.00 0.03 0.10 0.27 0.36 0.31 0.32 0.15 0.08 0.03 0.09 0.25 0.47 1.01 2.12 1.74 1.73 1.37 1.01 0.31 0.11 0.06 0.02 0.01 0.00 0.00 0.00 0.00 0.00 0.00 0.00 0.00
0.00 0.00 0.00 0.00 0.00 0.00 0.00 0.00 0.00 0.00 0.00 0.00 0.00 0.00 0.00 0.00 0.02 0.01 0.06 0.10 0.19 0.32 0.23 0.14 0.13 0.09 0.02 0.02 0.05 0.20 0.48 1.78 1.11 1.84 1.14 0.96 0.10 0.04 0.03 0.03 0.02 0.00 0.00 0.00 0.00 0.00 0.00 0.00 0.00
0.00 0.00 0.00 0.00 0.00 0.00 0.00 0.00 0.00 0.00 0.00 0.00 0.00 0.00 0.00 0.00 0.00 0.00 0.01 0.04 0.11 0.18 0.22 0.23 0.15 0.09 0.03 0.01 0.01 0.07 0.36 0.89 0.92 1.62 0.83 0.95 0.07 0.04 0.04 0.05 0.02 0.00 0.00 0.00 0.00 0.00 0.00 0.00 0.00
0.00 0.00 0.00 0.00 0.00 0.00 0.00 0.00 0.00 0.00 0.00 0.00 0.00 0.00 0.00 0.00 0.00 0.00 0.00 0.00 0.03 0.11 0.12 0.25 0.32 0.11 0.07 0.01 0.02 0.03 0.31 0.63 0.62 0.99 0.60 0.50 0.08 0.04 0.03 0.04 0.03 0.00 0.00 0.00 0.00 0.00 0.00 0.00 0.00
0.00 0.00 0.00 0.00 0.00 0.00 0.00 0.00 0.00 0.00 0.00 0.00 0.00 0.00 0.00 0.00 0.00 0.00 0.00 0.00 0.01 0.03 0.13 0.30 0.28 0.31 0.19 0.03 0.02 0.02 0.22 0.49 0.53 0.66 0.50 0.35 0.08 0.03 0.04 0.05 0.02 0.00 0.00 0.00 0.00 0.00 0.00 0.00 0.00
0.00 0.00 0.00 0.00 0.00 0.00 0.00 0.00 0.00 0.00 0.00 0.00 0.00 0.00 0.00 0.00 0.00 0.00 0.00 0.00 0.00 0.00 0.04 0.33 0.42 0.27 0.15 0.05 0.06 0.07 0.12 0.34 0.39 0.48 0.37 0.21 0.06 0.02 0.02 0.07 0.06 0.02 0.03 0.00 0.00 0.00 0.00 0.00 0.00
0.00 0.00 0.00 0.00 0.00 0.00 0.00 0.00 0.00 0.00 0.00 0.00 0.00 0.00 0.00 0.00 0.00 0.00 0.00 0.00 0.00 0.00 0.01 0.14 0.63 0.40 0.22 0.16 0.11 0.23 0.16 0.25 0.25 0.30 0.29 0.14 0.05 0.02 0.01 0.02 0.07 0.08 0.05 0.02 0.00 0.00 0.00 0.00 0.00
0.00 0.00 0.00 0.00 0.00 0.00 0.00 0.00 0.00 0.00 0.00 0.00 0.00 0.00 0.00 0.00 0.00 0.00 0.00 0.00 0.00 0.00 0.01 0.04 0.35 0.53 0.26 0.23 0.17 0.24 0.25 0.19 0.17 0.16 0.19 0.12 0.04 0.03 0.02 0.01 0.04 0.02 0.07 0.06 0.01 0.00 0.00 0.00 0.00
0.00 0.00 0.00 0.00 0.00 0.00 0.00 0.00 0.00 0.00 0.00 0.00 0.00 0.00 0.00 0.00 0.00 0.00 0.00 0.00 0.00 0.00 0.00 0.01 0.17 0.29 0.32 0.27 0.18 0.11 0.16 0.23 0.14 0.12 0.14 0.15 0.06 0.02 0.06 0.05 0.05 0.03 0.07 0.09 0.04 0.02 0.02 0.01 0.00
0.00 0.00 0.00 0.00 0.00 0.00 0.00 0.00 0.00 0.00 0.00 0.00 0.00 0.00 0.00 0.00 0.00 0.00 0.00 0.00 0.00 0.00 0.00 0.01 0.03 0.07 0.13 0.27 0.24 0.21 0.21 0.21 0.28 0.18 0.14 0.16 0.09 0.04 0.03 0.04 0.07 0.07 0.07 0.07 0.05 0.04 0.05 0.03 0.03
0.00 0.00 0.00 0.00 0.00 0.00 0.00 0.00 0.00 0.00 0.00 0.00 0.00 0.00 0.00 0.00 0.00 0.00 0.00 0.00 0.00 0.00 0.00 0.00 0.02 0.02 0.01 0.05 0.08 0.12 0.14 0.08 0.04 0.05 0.06 0.05 0.06 0.09 0.06 0.03 0.03 0.07 0.07 0.12 0.10 0.07 0.06 0.09 0.09
0.00 0.00 0.00 0.00 0.00 0.00 0.00 0.00 0.00 0.00 0.00 0.00 0.00 0.00 0.00 0.00 0.00 0.00 0.00 0.00 0.00 0.00 0.00 0.00 0.01 0.02 0.01 0.01 0.00 0.01 0.04 0.05 0.02 0.02 0.03 0.03 0.05 0.05 0.10 0.06 0.04 0.07 0.09 0.16 0.22 0.19 0.10 0.10 0.21
0.00 0.01 0.00 0.00 0.00 0.00 0.00 0.00 0.00 0.00 0.00 0.00 0.00 0.00 0.00 0.00 0.00 0.00 0.00 0.00 0.00 0.00 0.00 0.00 0.00 0.01 0.01 0.01 0.00 0.00 0.00 0.02 0.03 0.02 0.02 0.01 0.01 0.02 0.03 0.07 0.06 0.09 0.11 0.19 0.22 0.25 0.22 0.19 0.22
0.00 0.05 0.05 0.03 0.00 0.00 0.00 0.00 0.00 0.00 0.00 0.00 0.00 0.00 0.00 0.00 0.00 0.00 0.00 0.00 0.00 0.00 0.00 0.00 0.00 0.00 0.01 0.01 0.00 0.00 0.00 0.00 0.00 0.00 0.01 0.00 0.00 0.00 0.01 0.04 0.05 0.08 0.11 0.16 0.22 0.26 0.27 0.30 0.35
0.00 0.02 0.05 0.05 0.02 0.00 0.00 0.00 0.00 0.00 0.00 0.00 0.00 0.00 0.00 0.00 0.00 0.00 0.00 0.00 0.00 0.00 0.00 0.00 0.00 0.00 0.00 0.01 0.01 0.00 0.00 0.00 0.00 0.00 0.00 0.00 0.00 0.00 0.03 0.08 0.10 0.10 0.07 0.11 0.16 0.18 0.19 0.24 0.29
0.04 0.04 0.01 0.11 0.05 0.02 0.00 0.00 0.00 0.00 0.00 0.00 0.00 0.00 0.00 0.00 0.00 0.00 0.00 0.00 0.00 0.00 0.00 0.00 0.00 0.00 0.00 0.00 0.00 0.01 0.00 0.00 0.00 0.00 0.00 0.00 0.00 0.00 0.02 0.03 0.09 0.12 0.09 0.09 0.09 0.10 0.10 0.11 0.13
0.01 0.03 0.18 0.30 0.12 0.04 0.00 0.01 0.00 0.00 0.00 0.00 0.00 0.00 0.00 0.00 0.00 0.00 0.00 0.00 0.00 0.01 0.03 0.04 0.02 0.01 0.02 0.00 0.00 0.00 0.00 0.00 0.00 0.00 0.00 0.02 0.07 0.08 0.04 0.03 0.02 0.05 0.05 0.04 0.05 0.05 0.07 0.08 0.07
0.01 0.14 0.16 0.10 0.02 0.04 0.02 0.06 0.01 0.00 0.00 0.00 0.00 0.00 0.00 0.00 0.00 0.00 0.00 0.00 0.00 0.02 0.04 0.04 0.08 0.12 0.05 0.03 0.02 0.01 0.00 0.01 0.01 0.02 0.05 0.04 0.13 0.18 0.17 0.17 0.11 0.06 0.07 0.08 0.08 0.05 0.06 0.06 0.06
0.00 0.01 0.10 0.18 0.10 0.01 0.02 0.13 0.07 0.02 0.00 0.00 0.00 0.00 0.00 0.00 0.00 0.00 0.00 0.00 0.00 0.00 0.00 0.00 0.04 0.02 0.01 0.08 0.12 0.11 0.03 0.01 0.02 0.04 0.09 0.22 0.22 0.18 0.17 0.23 0.22 0.20 0.15 0.15 0.14 0.13 0.12 0.12 0.11

GFSSGP_prec_precacc24_078.txt.gz
Total_Precipitation_Accumulation
0.00 0.00 0.00 0.00 0.00 0.00 0.00 0.00 0.00 0.00 0.00 0.00 0.00 0.00 0.00 0.00 0.00 0.02 0.03 0.00 0.01 0.01 0.02 0.02 0.00 0.02 0.03 0.02 0.01 0.00 0.00 0.00 0.00 0.00 0.00 0.00 0.00 0.01 0.01 0.01 0.00 0.00 0.01 0.02 0.02 0.03 0.05 0.07 0.02
0.00 0.00 0.00 0.00 0.00 0.00 0.00 0.00 0.00 0.00 0.00 0.00 0.00 0.00 0.00 0.00 0.00 0.00 0.00 0.01 0.01 0.02 0.01 0.00 0.00 0.03 0.13 0.07 0.04 0.02 0.00 0.00 0.00 0.00 0.00 0.00 0.00 0.01 0.04 0.06 0.01 0.01 0.02 0.02 0.03 0.05 0.05 0.04 0.01
0.00 0.00 0.00 0.00 0.00 0.00 0.00 0.00 0.00 0.00 0.00 0.00 0.00 0.00 0.00 0.00 0.00 0.00 0.00 0.01 0.09 0.07 0.01 0.01 0.01 0.08 0.20 0.12 0.08 0.07 0.00 0.00 0.00 0.00 0.00 0.00 0.00 0.00 0.02 0.03 0.02 0.01 0.03 0.03 0.03 0.04 0.04 0.02 0.01
0.00 0.00 0.00 0.00 0.00 0.00 0.00 0.00 0.00 0.00 0.00 0.00 0.00 0.00 0.00 0.00 0.00 0.00 0.00 0.00 0.12 0.11 0.07 0.07 0.10 0.21 0.14 0.35 0.54 0.39 0.08 0.00 0.01 0.01 0.00 0.00 0.00 0.00 0.00 0.01 0.01 0.03 0.04 0.05 0.04 0.03 0.02 0.01 0.00
0.00 0.00 0.00 0.00 0.00 0.00 0.00 0.00 0.00 0.00 0.00 0.00 0.00 0.00 0.00 0.00 0.00 0.00 0.00 0.00 0.08 0.28 0.47 0.27 0.18 0.22 0.48 0.72 0.99 1.28 0.92 0.18 0.22 0.12 0.03 0.04 0.01 0.01 0.01 0.00 0.01 0.03 0.04 0.04 0.03 0.02 0.02 0.00 0.00
0.00 0.00 0.00 0.00 0.00 0.00 0.00 0.00 0.00 0.00 0.00 0.00 0.00 0.00 0.00 0.00 0.00 0.00 0.00 0.00 0.03 0.33 0.98 0.69 0.63 0.54 0.74 1.12 1.72 2.58 2.48 1.82 0.88 0.46 0.45 0.53 0.48 0.26 0.12 0.03 0.01 0.03 0.04 0.03 0.01 0.01 0.01 0.00 0.00
0.00 0.00 0.00 0.00 0.00 0.00 0.00 0.00 0.00 0.00 0.00 0.00 0.00 0.00 0.00 0.00 0.00 0.00 0.00 0.00 0.02 0.23 0.92 0.80 1.08 1.58 1.41 1.36 2.20 3.50 3.95 5.18 4.53 2.56 1.80 1.46 1.21 0.77 0.40 0.19 0.08 0.07 0.03 0.01 0.00 0.00 0.00 0.00 0.00
0.00 0.00 0.00 0.00 0.00 0.00 0.00 0.00 0.00 0.00 0.00 0.00 0.00 0.00 0.00 0.00 0.00 0.00 0.00 0.01 0.11 0.05 0.41 0.57 0.90 1.37 1.26 0.97 1.70 2.84 4.33 3.53 4.71 4.47 3.41 2.11 1.51 1.02 0.62 0.45 0.23 0.15 0.04 0.00 0.00 0.00 0.00 0.00 0.00
0.00 0.00 0.00 0.00 0.00 0.00 0.00 0.00 0.00 0.00 0.00 0.00 0.00 0.00 0.00 0.00 0.00 0.00 0.01 0.02 0.05 0.08 0.20 0.32 0.84 1.44 1.22 1.16 1.28 1.80 2.85 4.90 2.57 2.68 2.75 2.62 1.39 1.00 0.69 0.47 0.37 0.28 0.11 0.00 0.00 0.00 0.00 0.00 0.00
0.00 0.00 0.00 0.00 0.00 0.00 0.00 0.00 0.00 0.00 0.00 0.00 0.00 0.00 0.00 0.00 0.00 0.00 0.00 0.03 0.04 0.07 0.40 0.36 0.52 0.98 1.38 0.96 0.87 1.26 2.08 3.62 3.26 2.40 1.67 1.14 1.23 0.67 0.43 0.51 0.40 0.33 0.09 0.00 0.00 0.00 0.00 0.00 0.00
0.00 0.00 0.00 0.00 0.00 0.00 0.00 0.00 0.00 0.00 0.00 0.00 0.00 0.00 0.00 0.00 0.00 0.00 0.01 0.01 0.08 0.14 0.33 0.33 0.16 0.08 0.24 0.34 0.43 0.65 1.87 2.27 2.58 1.74 1.45 0.90 0.78 0.67 0.34 0.33 0.39 0.25 0.08 0.00 0.00 0.00 0.00 0.00 0.00
0.00 0.00 0.00 0.00 0.00 0.00 0.00 0.00 0.00 0.00 0.00 0.00 0.00 0.00 0.00 0.00 0.00 0.00 0.03 0.08 0.16 0.18 0.14 0.22 0.12 0.05 0.03 0.10 0.23 0.37 0.92 2.02 1.64 1.63 1.33 1.01 0.37 0.43 0.22 0.10 0.13 0.11 0.01 0.00 0.00 0.00 0.00 0.00 0.00
0.00 0.00 0.00 0.00 0.00 0.00 0.00 0.00 0.00 0.00 0.00 0.00 0.00 0.00 0.00 0.00 0.00 0.00 0.03 0.07 0.13 0.16 0.07 0.04 0.06 0.06 0.01 0.02 0.06 0.20 0.47 1.75 1.07 1.78 1.07 0.96 0.13 0.19 0.10 0.10 0.09 0.04 0.01 0.00 0.00 0.00 0.00 0.00 0.00
0.00 0.00 0.00 0.00 0.00 0.00 0.00 0.00 0.00 0.00 0.00 0.00 0.00 0.00 0.00 0.00 0.00 0.00 0.01 0.02 0.05 0.07 0.03 0.03 0.05 0.03 0.01 0.01 0.01 0.07 0.36 0.89 0.91 1.60 0.80 1.03 0.11 0.11 0.08 0.08 0.08 0.04 0.01 0.00 0.00 0.00 0.00 0.00 0.00
0.00 0.00 0.00 0.00 0.00 0.00 0.00 0.00 0.00 0.00 0.00 0.00 0.00 0.00 0.00 0.00 0.00 0.00 0.00 0.00 0.01 0.03 0.02 0.04 0.06 0.06 0.05 0.01 0.01 0.03 0.31 0.62 0.61 0.98 0.59 0.86 0.23 0.10 0.06 0.07 0.08 0.03 0.00 0.00 0.00 0.00 0.00 0.00 0.00
0.00 0.00 0.00 0.00 0.00 0.00 0.00 0.00 0.00 0.00 0.00 0.00 0.00 0.00 0.00 0.00 0.00 0.00 0.00 0.00 0.00 0.02 0.03 0.05 0.05 0.14 0.15 0.02 0.01 0.01 0.21 0.50 0.53 0.67 0.51 0.66 0.45 0.12 0.09 0.08 0.06 0.02 0.00 0.00 0.00 0.00 0.00 0.00 0.00
0.00 0.00 0.00 0.00 0.00 0.00 0.00 0.00 0.00 0.00 0.00 0.00 0.00 0.00 0.00 0.00 0.00 0.00 0.00 0.00 0.00 0.00 0.03 0.07 0.04 0.05 0.03 0.03 0.02 0.03 0.10 0.34 0.44 0.56 0.46 0.62 0.51 0.13 0.13 0.13 0.09 0.04 0.03 0.00 0.00 0.00 0.00 0.00 0.00
0.00 0.00 0.00 0.00 0.00 0.00 0.00 0.00 0.00 0.00 0.00 0.00 0.00 0.00 0.00 0.00 0.00 0.00 0.00 0.00 0.00 0.00 0.01 0.05 0.08 0.04 0.04 0.04 0.04 0.09 0.11 0.26 0.32 0.55 0.50 0.64 0.50 0.22 0.18 0.11 0.11 0.10 0.05 0.02 0.00 0.00 0.00 0.00 0.00
0.00 0.00 0.00 0.00 0.00 0.00 0.00 0.00 0.00 0.00 0.00 0.00 0.00 0.00 0.00 0.00 0.00 0.00 0.00 0.00 0.00 0.00 0.01 0.02 0.10 0.14 0.12 0.08 0.11 0.11 0.13 0.18 0.19 0.25 0.46 0.74 0.64 0.38 0.18 0.05 0.06 0.03 0.06 0.04 0.01 0.00 0.00 0.00 0.00
0.00 0.00 0.00 0.00 0.00 0.00 0.00 0.00 0.00 0.00 0.00 0.00 0.00 0.00 0.00 0.00 0.00 0.00 0.00 0.00 0.00 0.00 0.00 0.01 0.13 0.18 0.27 0.20 0.15 0.08 0.11 0.21 0.12 0.14 0.24 0.56 0.66 0.52 0.24 0.06 0.05 0.02 0.04 0.07 0.04 0.02 0.02 0.01 0.00
0.00 0.00 0.00 0.00 0.00 0.00 0.00 0.00 0.00 0.00 0.00 0.00 0.00 0.00 0.00 0.00 0.00 0.00 0.00 0.00 0.00 0.00 0.00 0.01 0.03 0.06 0.12 0.27 0.23 0.17 0.15 0.19 0.29 0.21 0.18 0.30 0.39 0.38 0.28 0.10 0.06 0.07 0.06 0.07 0.05 0.03 0.04 0.02 0.03
0.00 0.00 0.00 0.00 0.00 0.00 0.00 0.00 0.00 0.00 0.00 0.00 0.00 0.00 0.00 0.00 0.00 0.00 0.00 0.00 0.00 0.00 0.00 0.00 0.02 0.02 0.01 0.05 0.08 0.10 0.08 0.06 0.04 0.07 0.09 0.23 0.19 0.23 0.20 0.14 0.04 0.07 0.07 0.12 0.08 0.04 0.04 0.07 0.07
0.00 0.00 0.00 0.00 0.00 0.00 0.00 0.00 0.00 0.00 0.00 0.00 0.00 0.00 0.00 0.00 0.00 0.00 0.00 0.00 0.00 0.00 0.00 0.00 0.01 0.02 0.01 0.01 0.00 0.01 0.03 0.05 0.03 0.03 0.06 0.14 0.27 0.16 0.27 0.22 0.12 0.08 0.10 0.15 0.20 0.16 0.05 0.06 0.16
0.00 0.02 0.00 0.00 0.01 0.04 0.00 0.00 0.00 0.00 0.00 0.00 0.00 0.00 0.00 0.00 0.00 0.00 0.00 0.00 0.00 0.00 0.00 0.00 0.00 0.01 0.01 0.01 0.00 0.00 0.00 0.02 0.03 0.02 0.02 0.03 0.15 0.24 0.16 0.27 0.24 0.14 0.13 0.20 0.19 0.22 0.19 0.16 0.19
0.01 0.07 0.08 0.07 0.05 0.02 0.00 0.00 0.00 0.00 0.00 0.00 0.00 0.00 0.00 0.00 0.00 0.00 0.00 0.00 0.00 0.00 0.00 0.00 0.00 0.00 0.01 0.01 0.00 0.00 0.00 0.00 0.00 0.00 0.01 0.01 0.02 0.11 0.21 0.16 0.19 0.14 0.10 0.16 0.24 0.25 0.24 0.26 0.29
0.01 0.04 0.09 0.09 0.03 0.00 0.00 0.00 0.00 0.00 0.00 0.00 0.00 0.00 0.00 0.00 0.00 0.00 0.00 0.00 0.00 0.00 0.00 0.00 0.00 0.00 0.00 0.01 0.01 0.00 0.00 0.00 0.00 0.00 0.00 0.00 0.01 0.03 0.15 0.24 0.22 0.15 0.11 0.10 0.16 0.18 0.15 0.18 0.26
0.07 0.07 0.04 0.23 0.09 0.03 0.00 0.00 0.00 0.00 0.00 0.00 0.00 0.00 0.00 0.00 0.00 0.00 0.00 0.00 0.00 0.00 0.00 0.00 0.00 0.00 0.00 0.00 0.01 0.01 0.00 0.00 0.00 0.00 0.00 0.00 0.00 0.01 0.02 0.04 0.09 0.15 0.14 0.12 0.09 0.10 0.10 0.13 0.15
0.03 0.05 0.21 0.38 0.18 0.07 0.00 0.01 0.01 0.00 0.00 0.00 0.00 0.00 0.00 0.00 0.00 0.00 0.00 0.00 0.00 0.00 0.00 0.00 0.00 0.00 0.00 0.00 0.00 0.01 0.01 0.00 0.00 0.00 0.00 0.00 0.00 0.00 0.00 0.00 0.00 0.02 0.01 0.02 0.04 0.05 0.07 0.14 0.10
0.02 0.16 0.19 0.14 0.04 0.07 0.05 0.10 0.02 0.01 0.01 0.00 0.00 0.00 0.00 0.00 0.00 0.00 0.00 0.00 0.00 0.00 0.00 0.01 0.03 0.01 0.01 0.00 0.00 0.01 0.00 0.01 0.01 0.00 0.00 0.00 0.00 0.00 0.00 0.00 0.00 0.00 0.00 0.00 0.02 0.02 0.03 0.04 0.06
0.01 0.02 0.13 0.33 0.17 0.04 0.07 0.20 0.12 0.07 0.03 0.00 0.00 0.00 0.00 0.00 0.00 0.00 0.00 0.00 0.00 0.00 0.02 0.03 0.02 0.00 0.00 0.01 0.01 0.00 0.00 0.00 0.01 0.00 0.00 0.00 0.00 0.00 0.00 0.00 0.00 0.00 0.01 0.01 0.02 0.05 0.06 0.07 0.09

GFSSGP_prec_precacc24_084.txt.gz
Total_Precipitation_Accumulation
0.00 0.00 0.00 0.00 0.00 0.00 0.00 0.00 0.00 0.00 0.00 0.00 0.00 0.00 0.00 0.00 0.00 0.02 0.03 0.00 0.00 0.00 0.01 0.01 0.00 0.02 0.03 0.02 0.01 0.00 0.00 0.00 0.00 0.00 0.00 0.00 0.00 0.01 0.01 0.02 0.01 0.01 0.01 0.03 0.02 0.03 0.05 0.08 0.02
0.00 0.00 0.00 0.00 0.00 0.00 0.00 0.00 0.00 0.00 0.00 0.00 0.00 0.00 0.00 0.00 0.00 0.00 0.00 0.00 0.00 0.00 0.01 0.00 0.00 0.03 0.13 0.07 0.04 0.02 0.01 0.00 0.03 0.00 0.00 0.00 0.00 0.01 0.05 0.08 0.02 0.01 0.02 0.03 0.03 0.06 0.06 0.05 0.01
0.00 0.00 0.00 0.00 0.00 0.00 0.00 0.00 0.00 0.00 0.00 0.00 0.00 0.00 0.00 0.00 0.00 0.00 0.00 0.00 0.00 0.00 0.00 0.00 0.00 0.06 0.19 0.11 0.08 0.07 0.01 0.00 0.01 0.00 0.00 0.00 0.02 0.03 0.02 0.05 0.04 0.02 0.03 0.05 0.07 0.08 0.06 0.02 0.01
0.00 0.00 0.00 0.00 0.00 0.00 0.00 0.00 0.00 0.00 0.00 0.00 0.00 0.00 0.00 0.00 0.00 0.00 0.00 0.00 0.00 0.00 0.01 0.02 0.01 0.07 0.12 0.33 0.54 0.39 0.09 0.02 0.04 0.02 0.09 0.11 0.13 0.11 0.06 0.09 0.08 0.07 0.10 0.12 0.15 0.14 0.05 0.01 0.00
0.00 0.00 0.00 0.00 0.00 0.00 0.00 0.00 0.00 0.00 0.00 0.00 0.00 0.00 0.00 0.00 0.00 0.00 0.00 0.00 0.00 0.03 0.14 0.09 0.02 0.03 0.27 0.64 0.93 1.26 0.92 0.20 0.24 0.15 0.16 0.25 0.20 0.22 0.27 0.25 0.21 0.18 0.14 0.16 0.16 0.08 0.03 0.00 0.00
0.00 0.00 0.00 0.00 0.00 0.00 0.00 0.00 0.00 0.00 0.00 0.00 0.00 0.00 0.00 0.00 0.00 0.00 0.00 0.00 0.00 0.01 0.06 0.10 0.20 0.26 0.48 0.80 1.50 2.38 2.48 1.88 0.94 0.56 0.62 0.95 1.25 1.10 0.73 0.49 0.43 0.39 0.35 0.24 0.16 0.04 0.01 0.00 0.00
0.00 0.00 0.00 0.00 0.00 0.00 0.00 0.00 0.00 0.00 0.00 0.00 0.00 0.00 0.00 0.00 0.00 0.00 0.00 0.00 0.00 0.01 0.03 0.04 0.19 0.73 0.89 0.82 1.63 2.79 3.65 5.27 4.77 2.81 2.24 2.25 1.76 1.31 0.92 0.61 0.44 0.38 0.31 0.25 0.12 0.03 0.01 0.00 0.00
0.00 0.00 0.00 0.00 0.00 0.00 0.00 0.00 0.00 0.00 0.00 0.00 0.00 0.00 0.00 0.00 0.00 0.00 0.00 0.00 0.00 0.01 0.05 0.03 0.09 0.32 0.50 0.42 1.27 2.37 3.72 3.39 4.76 4.58 3.55 2.19 1.69 1.29 0.81 0.65 0.45 0.37 0.27 0.18 0.09 0.08 0.04 0.01 0.00
0.00 0.00 0.00 0.00 0.00 0.00 0.00 0.00 0.00 0.00 0.00 0.00 0.00 0.00 0.00 0.00 0.00 0.00 0.00 0.00 0.01 0.02 0.02 0.03 0.01 0.06 0.14 0.21 0.55 1.27 2.28 4.40 2.43 2.71 2.80 2.66 1.44 1.09 0.80 0.60 0.57 0.51 0.35 0.16 0.22 0.14 0.08 0.05 0.02
0.00 0.00 0.00 0.00 0.00 0.00 0.00 0.00 0.00 0.00 0.00 0.00 0.00 0.00 0.00 0.00 0.00 0.00 0.00 0.01 0.01 0.01 0.05 0.10 0.07 0.04 0.10 0.15 0.18 0.58 1.38 3.13 2.86 2.33 1.71 1.15 1.23 0.71 0.53 0.60 0.58 0.71 0.60 0.51 0.35 0.13 0.08 0.05 0.02
0.00 0.00 0.00 0.00 0.00 0.00 0.00 0.00 0.00 0.00 0.00 0.00 0.00 0.00 0.00 0.00 0.00 0.00 0.00 0.00 0.01 0.04 0.04 0.10 0.05 0.05 0.02 0.10 0.16 0.36 1.30 1.81 2.14 1.52 1.45 0.93 0.80 0.68 0.35 0.34 0.53 0.67 0.85 0.47 0.28 0.10 0.08 0.05 0.01
0.00 0.00 0.00 0.00 0.00 0.00 0.00 0.00 0.00 0.00 0.00 0.00 0.00 0.00 0.00 0.00 0.00 0.00 0.00 0.00 0.01 0.06 0.05 0.09 0.10 0.05 0.02 0.05 0.17 0.26 0.66 1.50 1.30 1.38 1.31 1.01 0.39 0.43 0.22 0.11 0.20 0.45 0.50 0.47 0.25 0.06 0.06 0.04 0.01
0.00 0.00 0.00 0.00 0.00 0.00 0.00 0.00 0.00 0.00 0.00 0.00 0.00 0.00 0.00 0.00 0.00 0.00 0.00 0.00 0.01 0.02 0.03 0.03 0.04 0.03 0.01 0.02 0.05 0.13 0.23 1.29 0.83 1.55 1.05 0.98 0.14 0.20 0.11 0.11 0.17 0.24 0.51 0.35 0.29 0.11 0.04 0.03 0.01
0.00 0.00 0.00 0.00 0.00 0.00 0.00 0.00 0.00 0.00 0.00 0.00 0.00 0.00 0.00 0.00 0.00 0.00 0.00 0.00 0.00 0.02 0.01 0.01 0.02 0.02 0.01 0.01 0.02 0.05 0.13 0.57 0.70 1.43 0.79 1.03 0.12 0.12 0.11 0.10 0.18 0.10 0.43 0.39 0.20 0.08 0.03 0.01 0.00
0.00 0.00 0.00 0.00 0.00 0.00 0.00 0.00 0.00 0.00 0.00 0.00 0.00 0.00 0.00 0.00 0.00 0.00 0.00 0.00 0.00 0.01 0.01 0.00 0.01 0.01 0.00 0.00 0.01 0.02 0.19 0.39 0.44 0.86 0.58 0.86 0.24 0.12 0.10 0.14 0.18 0.09 0.12 0.35 0.23 0.09 0.03 0.01 0.00
0.00 0.00 0.00 0.00 0.00 0.00 0.00 0.00 0.00 0.00 0.00 0.00 0.00 0.00 0.00 0.00 0.00 0.00 0.00 0.00 0.00 0.00 0.02 0.00 0.00 0.00 0.00 0.01 0.00 0.01 0.16 0.36 0.43 0.58 0.51 0.66 0.46 0.14 0.13 0.16 0.15 0.10 0.08 0.13 0.15 0.07 0.02 0.01 0.00
0.00 0.00 0.00 0.00 0.00 0.00 0.00 0.00 0.00 0.00 0.00 0.00 0.00 0.00 0.00 0.00 0.00 0.00 0.00 0.00 0.00 0.00 0.01 0.01 0.00 0.00 0.00 0.00 0.01 0.02 0.08 0.27 0.38 0.51 0.45 0.63 0.53 0.17 0.24 0.23 0.18 0.10 0.14 0.07 0.09 0.05 0.02 0.01 0.00
0.00 0.00 0.00 0.00 0.00 0.00 0.00 0.00 0.00 0.00 0.00 0.00 0.00 0.00 0.00 0.00 0.00 0.00 0.00 0.00 0.00 0.00 0.01 0.01 0.01 0.00 0.00 0.00 0.02 0.03 0.07 0.24 0.28 0.52 0.46 0.63 0.51 0.27 0.51 0.41 0.22 0.16 0.16 0.09 0.06 0.02 0.01 0.00 0.00
0.00 0.00 0.00 0.00 0.00 0.00 0.00 0.00 0.00 0.00 0.00 0.00 0.00 0.00 0.00 0.00 0.00 0.00 0.00 0.00 0.00 0.00 0.01 0.01 0.02 0.01 0.00 0.01 0.02 0.03 0.04 0.16 0.17 0.24 0.45 0.74 0.67 0.46 0.47 0.70 0.36 0.20 0.14 0.09 0.05 0.01 0.01 0.00 0.00
0.00 0.00 0.00 0.00 0.00 0.00 0.00 0.00 0.00 0.00 0.00 0.00 0.00 0.00 0.00 0.00 0.00 0.00 0.00 0.00 0.00 0.00 0.00 0.01 0.02 0.02 0.09 0.03 0.02 0.01 0.02 0.08 0.10 0.14 0.25 0.60 0.77 0.72 0.52 0.61 0.60 0.35 0.15 0.13 0.10 0.03 0.01 0.00 0.00
0.00 0.00 0.00 0.00 0.00 0.00 0.00 0.00 0.00 0.00 0.00 0.00 0.00 0.00 0.00 0.00 0.00 0.00 0.00 0.00 0.00 0.00 0.00 0.01 0.02 0.02 0.07 0.17 0.05 0.05 0.06 0.09 0.17 0.18 0.19 0.34 0.62 0.89 0.67 0.42 0.70 0.50 0.20 0.12 0.11 0.04 0.01 0.00 0.00
0.00 0.00 0.00 0.00 0.00 0.00 0.00 0.00 0.00 0.00 0.00 0.00 0.00 0.00 0.00 0.00 0.00 0.00 0.00 0.00 0.00 0.00 0.00 0.00 0.01 0.02 0.01 0.04 0.02 0.01 0.01 0.03 0.04 0.07 0.09 0.25 0.28 0.59 0.78 0.62 0.45 0.44 0.28 0.22 0.11 0.06 0.01 0.05 0.04
0.00 0.00 0.00 0.00 0.00 0.01 0.00 0.00 0.00 0.00 0.00 0.00 0.00 0.00 0.00 0.00 0.00 0.00 0.00 0.00 0.00 0.00 0.00 0.00 0.00 0.01 0.01 0.01 0.00 0.00 0.01 0.01 0.02 0.05 0.08 0.16 0.29 0.22 0.48 0.62 0.52 0.40 0.28 0.22 0.22 0.17 0.04 0.03 0.15
0.00 0.02 0.00 0.00 0.01 0.05 0.00 0.00 0.00 0.00 0.00 0.00 0.00 0.00 0.00 0.00 0.00 0.00 0.00 0.00 0.00 0.00 0.00 0.00 0.00 0.01 0.01 0.01 0.00 0.00 0.00 0.02 0.02 0.03 0.04 0.08 0.22 0.28 0.18 0.37 0.59 0.48 0.33 0.29 0.23 0.20 0.16 0.13 0.17
0.01 0.08 0.08 0.08 0.07 0.03 0.00 0.00 0.00 0.00 0.00 0.00 0.00 0.00 0.00 0.00 0.00 0.00 0.00 0.00 0.00 0.00 0.00 0.00 0.00 0.00 0.01 0.02 0.01 0.00 0.00 0.00 0.00 0.01 0.01 0.03 0.08 0.22 0.31 0.21 0.28 0.35 0.29 0.27 0.29 0.23 0.21 0.22 0.27
0.01 0.04 0.09 0.10 0.04 0.00 0.00 0.00 0.00 0.00 0.00 0.00 0.00 0.00 0.00 0.00 0.00 0.00 0.00 0.00 0.00 0.00 0.00 0.01 0.00 0.00 0.01 0.02 0.01 0.00 0.00 0.00 0.00 0.00 0.00 0.00 0.01 0.05 0.23 0.42 0.38 0.23 0.19 0.20 0.23 0.20 0.16 0.17 0.21
0.07 0.08 0.05 0.25 0.10 0.05 0.00 0.00 0.00 0.00 0.00 0.00 0.00 0.00 0.00 0.00 0.00 0.00 0.00 0.00 0.00 0.00 0.00 0.00 0.00 0.00 0.00 0.01 0.01 0.01 0.00 0.00 0.00 0.00 0.00 0.00 0.01 0.02 0.09 0.16 0.42 0.51 0.32 0.19 0.15 0.15 0.11 0.09 0.09
0.04 0.07 0.25 0.41 0.21 0.08 0.01 0.02 0.02 0.00 0.00 0.00 0.00 0.00 0.00 0.00 0.00 0.00 0.00 0.00 0.00 0.00 0.00 0.00 0.01 0.00 0.01 0.00 0.01 0.01 0.01 0.01 0.00 0.00 0.00 0.00 0.00 0.01 0.02 0.07 0.08 0.21 0.28 0.18 0.11 0.08 0.07 0.10 0.07
0.04 0.20 0.21 0.19 0.07 0.09 0.05 0.13 0.06 0.02 0.03 0.01 0.00 0.00 0.01 0.00 0.00 0.00 0.00 0.00 0.00 0.00 0.01 0.02 0.03 0.02 0.02 0.01 0.00 0.01 0.01 0.01 0.01 0.00 0.00 0.00 0.00 0.00 0.01 0.01 0.04 0.03 0.04 0.04 0.03 0.03 0.06 0.06 0.05
0.03 0.05 0.15 0.37 0.23 0.11 0.11 0.22 0.20 0.14 0.10 0.03 0.00 0.00 0.02 0.02 0.02 0.02 0.01 0.01 0.01 0.01 0.03 0.05 0.05 0.04 0.03 0.01 0.00 0.00 0.00 0.01 0.01 0.00 0.00 0.00 0.00 0.00 0.00 0.01 0.00 0.01 0.01 0.01 0.01 0.01 0.03 0.04 0.03

GFSSGP_prec_precacc24_087.txt.gz
Total_Precipitation_Accumulation
0.00 0.00 0.00 0.00 0.00 0.00 0.00 0.00 0.00 0.00 0.00 0.00 0.00 0.00 0.00 0.00 0.00 0.02 0.02 0.00 0.00 0.00 0.00 0.01 0.00 0.01 0.01 0.01 0.01 0.00 0.00 0.00 0.00 0.00 0.00 0.02 0.01 0.01 0.02 0.05 0.01 0.01 0.01 0.02 0.02 0.03 0.05 0.08 0.02
0.00 0.00 0.00 0.00 0.00 0.00 0.00 0.00 0.00 0.00 0.00 0.00 0.00 0.00 0.00 0.00 0.00 0.00 0.00 0.00 0.00 0.00 0.00 0.00 0.00 0.01 0.03 0.01 0.03 0.02 0.01 0.00 0.03 0.01 0.00 0.00 0.00 0.02 0.13 0.16 0.02 0.01 0.03 0.03 0.04 0.07 0.06 0.05 0.01
0.00 0.00 0.00 0.00 0.00 0.00 0.00 0.00 0.00 0.00 0.00 0.00 0.00 0.00 0.00 0.00 0.00 0.00 0.00 0.00 0.00 0.00 0.00 0.00 0.00 0.01 0.02 0.03 0.03 0.03 0.01 0.00 0.01 0.00 0.00 0.00 0.04 0.11 0.15 0.15 0.07 0.02 0.06 0.08 0.12 0.17 0.09 0.02 0.01
0.00 0.00 0.00 0.00 0.00 0.00 0.00 0.00 0.00 0.00 0.00 0.00 0.00 0.00 0.00 0.00 0.00 0.00 0.00 0.00 0.00 0.00 0.00 0.00 0.00 0.01 0.04 0.08 0.24 0.22 0.07 0.02 0.04 0.02 0.12 0.18 0.34 0.35 0.26 0.20 0.15 0.11 0.17 0.22 0.26 0.30 0.13 0.01 0.00
0.00 0.00 0.00 0.00 0.00 0.00 0.00 0.00 0.00 0.00 0.00 0.00 0.00 0.00 0.00 0.00 0.00 0.00 0.00 0.00 0.00 0.00 0.03 0.01 0.01 0.01 0.17 0.38 0.56 0.78 0.79 0.20 0.24 0.18 0.29 0.40 0.34 0.34 0.41 0.43 0.39 0.45 0.39 0.43 0.40 0.26 0.05 0.00 0.00
0.00 0.00 0.00 0.00 0.00 0.00 0.00 0.00 0.00 0.00 0.00 0.00 0.00 0.00 0.00 0.00 0.00 0.00 0.00 0.00 0.00 0.00 0.00 0.00 0.02 0.02 0.22 0.37 1.02 1.87 2.35 1.88 0.95 0.66 0.70 1.07 1.34 1.23 0.85 0.66 0.66 0.73 0.88 0.61 0.36 0.19 0.02 0.00 0.01
0.00 0.00 0.00 0.00 0.00 0.00 0.00 0.00 0.00 0.00 0.00 0.00 0.00 0.00 0.00 0.00 0.00 0.00 0.00 0.00 0.00 0.00 0.00 0.01 0.03 0.17 0.38 0.21 0.66 1.82 3.23 5.26 4.77 2.90 2.30 2.39 1.90 1.41 1.00 0.68 0.53 0.40 0.38 0.44 0.37 0.21 0.06 0.01 0.07
0.00 0.00 0.00 0.00 0.00 0.00 0.00 0.00 0.00 0.00 0.00 0.00 0.00 0.00 0.00 0.00 0.00 0.00 0.00 0.00 0.00 0.00 0.00 0.00 0.01 0.06 0.19 0.15 0.43 1.26 2.87 3.15 4.74 4.60 3.59 2.21 1.71 1.30 0.80 0.63 0.48 0.39 0.29 0.24 0.23 0.36 0.27 0.19 0.09
0.00 0.00 0.00 0.00 0.00 0.00 0.00 0.00 0.00 0.00 0.00 0.00 0.00 0.00 0.00 0.00 0.00 0.00 0.00 0.00 0.00 0.01 0.01 0.00 0.00 0.03 0.06 0.07 0.15 0.36 1.13 3.61 2.27 2.68 2.76 2.68 1.47 1.16 0.83 0.60 0.59 0.54 0.36 0.18 0.26 0.23 0.18 0.18 0.14
0.00 0.00 0.00 0.00 0.00 0.00 0.00 0.00 0.00 0.00 0.00 0.00 0.00 0.00 0.00 0.00 0.00 0.00 0.00 0.01 0.00 0.00 0.02 0.02 0.00 0.00 0.01 0.01 0.03 0.11 0.39 2.50 2.72 2.27 1.70 1.18 1.29 0.75 0.58 0.71 0.60 0.73 0.62 0.62 0.48 0.19 0.15 0.17 0.07
0.00 0.00 0.00 0.00 0.00 0.00 0.00 0.00 0.00 0.00 0.00 0.00 0.00 0.00 0.00 0.00 0.00 0.00 0.00 0.00 0.00 0.00 0.01 0.06 0.04 0.04 0.01 0.00 0.02 0.08 0.39 1.37 1.97 1.46 1.42 0.89 0.80 0.71 0.36 0.31 0.52 0.70 0.94 0.64 0.39 0.17 0.20 0.17 0.10
0.00 0.00 0.00 0.00 0.00 0.00 0.00 0.00 0.00 0.00 0.00 0.00 0.00 0.00 0.00 0.00 0.00 0.00 0.00 0.00 0.00 0.00 0.00 0.06 0.08 0.04 0.01 0.01 0.03 0.08 0.25 0.97 1.13 1.28 1.19 0.93 0.41 0.49 0.23 0.11 0.19 0.47 0.56 0.56 0.37 0.18 0.18 0.15 0.10
0.00 0.00 0.00 0.00 0.00 0.00 0.00 0.00 0.00 0.00 0.00 0.00 0.00 0.00 0.00 0.00 0.00 0.00 0.00 0.00 0.00 0.00 0.00 0.01 0.02 0.01 0.00 0.01 0.03 0.07 0.09 0.87 0.68 1.50 0.93 0.88 0.20 0.25 0.16 0.12 0.17 0.30 0.56 0.43 0.44 0.35 0.21 0.13 0.11
0.00 0.00 0.00 0.00 0.00 0.00 0.00 0.00 0.00 0.00 0.00 0.00 0.00 0.00 0.00 0.00 0.00 0.00 0.00 0.00 0.00 0.00 0.00 0.01 0.01 0.00 0.00 0.00 0.01 0.03 0.03 0.31 0.60 1.34 0.65 0.89 0.16 0.15 0.14 0.12 0.23 0.17 0.46 0.49 0.41 0.40 0.26 0.14 0.08
0.00 0.00 0.00 0.00 0.00 0.00 0.00 0.00 0.00 0.00 0.00 0.00 0.00 0.00 0.00 0.00 0.00 0.00 0.00 0.00 0.00 0.00 0.00 0.00 0.00 0.00 0.00 0.00 0.01 0.01 0.01 0.05 0.31 0.72 0.45 0.82 0.24 0.13 0.13 0.19 0.27 0.12 0.14 0.62 0.61 0.49 0.34 0.18 0.01
0.00 0.00 0.00 0.00 0.00 0.00 0.00 0.00 0.00 0.00 0.00 0.00 0.00 0.00 0.00 0.00 0.00 0.00 0.00 0.00 0.00 0.00 0.00 0.00 0.00 0.00 0.00 0.00 0.00 0.00 0.01 0.06 0.23 0.43 0.41 0.65 0.46 0.14 0.16 0.21 0.23 0.14 0.11 0.25 0.65 0.54 0.30 0.17 0.01
0.00 0.00 0.00 0.00 0.00 0.00 0.00 0.00 0.00 0.00 0.00 0.00 0.00 0.00 0.00 0.00 0.00 0.00 0.00 0.00 0.00 0.00 0.00 0.00 0.00 0.00 0.00 0.00 0.00 0.01 0.02 0.08 0.19 0.37 0.41 0.62 0.54 0.18 0.25 0.26 0.25 0.14 0.16 0.11 0.30 0.49 0.29 0.11 0.03
0.00 0.00 0.00 0.00 0.00 0.00 0.00 0.00 0.00 0.00 0.00 0.00 0.00 0.00 0.00 0.00 0.00 0.00 0.00 0.00 0.00 0.00 0.00 0.00 0.01 0.00 0.00 0.00 0.01 0.02 0.05 0.10 0.16 0.42 0.41 0.64 0.52 0.28 0.52 0.44 0.29 0.20 0.17 0.13 0.14 0.23 0.21 0.07 0.01
0.00 0.00 0.00 0.00 0.00 0.00 0.00 0.00 0.00 0.00 0.00 0.00 0.00 0.00 0.00 0.00 0.00 0.00 0.00 0.00 0.00 0.00 0.00 0.01 0.01 0.01 0.00 0.00 0.01 0.03 0.04 0.09 0.13 0.17 0.39 0.73 0.68 0.46 0.48 0.74 0.41 0.25 0.16 0.11 0.08 0.10 0.15 0.10 0.01
0.00 0.00 0.00 0.00 0.00 0.00 0.00 0.00 0.00 0.00 0.00 0.00 0.00 0.00 0.00 0.00 0.00 0.00 0.00 0.00 0.00 0.00 0.00 0.01 0.02 0.01 0.01 0.00 0.00 0.01 0.01 0.06 0.07 0.10 0.22 0.59 0.77 0.74 0.54 0.64 0.69 0.42 0.20 0.17 0.16 0.09 0.09 0.08 0.04
0.00 0.00 0.00 0.00 0.00 0.00 0.00 0.00 0.00 0.00 0.00 0.00 0.00 0.00 0.00 0.00 0.00 0.00 0.00 0.00 0.00 0.00 0.00 0.00 0.01 0.01 0.01 0.04 0.03 0.03 0.02 0.07 0.11 0.13 0.16 0.35 0.64 0.93 0.72 0.44 0.81 0.71 0.36 0.21 0.18 0.10 0.05 0.04 0.04
0.00 0.00 0.00 0.00 0.00 0.00 0.00 0.00 0.00 0.00 0.00 0.00 0.00 0.00 0.00 0.00 0.00 0.00 0.00 0.00 0.00 0.00 0.00 0.00 0.00 0.01 0.01 0.02 0.01 0.01 0.01 0.03 0.04 0.07 0.08 0.25 0.27 0.56 0.78 0.68 0.51 0.75 0.54 0.38 0.26 0.17 0.06 0.08 0.02
0.00 0.00 0.00 0.00 0.00 0.01 0.00 0.00 0.00 0.00 0.00 0.00 0.00 0.00 0.00 0.00 0.00 0.00 0.00 0.00 0.00 0.00 0.00 0.00 0.00 0.00 0.00 0.00 0.00 0.00 0.00 0.01 0.02 0.06 0.09 0.16 0.29 0.20 0.43 0.69 0.67 0.52 0.54 0.44 0.36 0.33 0.18 0.09 0.07
0.00 0.02 0.00 0.00 0.01 0.05 0.00 0.00 0.00 0.00 0.00 0.00 0.00 0.00 0.00 0.00 0.00 0.00 0.00 0.00 0.00 0.00 0.00 0.00 0.00 0.00 0.01 0.01 0.00 0.00 0.00 0.00 0.02 0.03 0.04 0.07 0.22 0.27 0.16 0.37 0.73 0.76 0.48 0.44 0.50 0.36 0.33 0.20 0.20
0.01 0.08 0.08 0.08 0.07 0.03 0.00 0.00 0.00 0.00 0.00 0.00 0.00 0.00 0.00 0.00 0.00 0.00 0.00 0.00 0.00 0.00 0.00 0.00 0.00 0.00 0.01 0.01 0.00 0.00 0.00 0.00 0.00 0.02 0.01 0.02 0.08 0.23 0.31 0.21 0.33 0.61 0.52 0.43 0.59 0.49 0.40 0.29 0.27
0.01 0.04 0.10 0.10 0.05 0.01 0.01 0.00 0.00 0.00 0.00 0.00 0.00 0.00 0.00 0.00 0.00 0.00 0.00 0.00 0.00 0.00 0.00 0.01 0.01 0.00 0.01 0.01 0.01 0.00 0.00 0.00 0.00 0.01 0.01 0.01 0.02 0.05 0.24 0.43 0.38 0.37 0.40 0.45 0.44 0.50 0.32 0.25 0.21
0.07 0.08 0.05 0.26 0.11 0.05 0.01 0.00 0.01 0.00 0.00 0.00 0.00 0.00 0.00 0.00 0.00 0.00 0.00 0.00 0.00 0.00 0.00 0.00 0.01 0.00 0.00 0.00 0.01 0.01 0.00 0.00 0.00 0.01 0.01 0.01 0.02 0.03 0.10 0.17 0.42 0.52 0.45 0.35 0.31 0.31 0.25 0.14 0.10
0.06 0.10 0.29 0.44 0.23 0.10 0.01 0.02 0.07 0.02 0.00 0.00 0.00 0.00 0.00 0.00 0.00 0.00 0.00 0.00 0.00 0.00 0.00 0.01 0.01 0.00 0.01 0.00 0.01 0.01 0.00 0.00 0.00 0.00 0.00 0.01 0.01 0.02 0.03 0.08 0.09 0.22 0.30 0.26 0.19 0.16 0.16 0.16 0.09
0.06 0.23 0.24 0.23 0.09 0.12 0.07 0.18 0.13 0.03 0.03 0.01 0.00 0.00 0.01 0.00 0.00 0.00 0.00 0.00 0.00 0.00 0.01 0.02 0.03 0.02 0.02 0.01 0.02 0.01 0.01 0.01 0.00 0.00 0.01 0.00 0.00 0.01 0.02 0.02 0.05 0.04 0.05 0.05 0.04 0.04 0.08 0.08 0.07
0.09 0.10 0.21 0.42 0.27 0.13 0.13 0.30 0.26 0.15 0.10 0.03 0.00 0.00 0.02 0.02 0.02 0.03 0.03 0.03 0.02 0.02 0.04 0.06 0.06 0.04 0.03 0.02 0.01 0.00 0.00 0.01 0.01 0.00 0.00 0.01 0.01 0.01 0.02 0.02 0.01 0.01 0.01 0.02 0.01 0.01 0.03 0.04 0.04

GFSSGP_prec_precacc24_090.txt.gz
Total_Precipitation_Accumulation
0.00 0.00 0.00 0.00 0.00 0.00 0.00 0.00 0.00 0.00 0.00 0.00 0.00 0.00 0.00 0.00 0.00 0.00 0.01 0.00 0.00 0.00 0.00 0.00 0.00 0.00 0.00 0.00 0.00 0.00 0.00 0.00 0.00 0.00 0.00 0.02 0.03 0.04 0.06 0.06 0.00 0.01 0.05 0.03 0.02 0.02 0.04 0.08 0.02
0.00 0.00 0.00 0.00 0.00 0.00 0.00 0.00 0.00 0.00 0.00 0.00 0.00 0.00 0.00 0.00 0.00 0.00 0.00 0.00 0.00 0.00 0.00 0.00 0.00 0.01 0.00 0.00 0.00 0.00 0.00 0.00 0.03 0.01 0.00 0.01 0.02 0.05 0.17 0.22 0.08 0.03 0.08 0.05 0.03 0.07 0.07 0.05 0.01
0.00 0.00 0.00 0.00 0.00 0.00 0.00 0.00 0.00 0.00 0.00 0.00 0.00 0.00 0.00 0.00 0.00 0.00 0.00 0.00 0.00 0.00 0.00 0.00 0.00 0.00 0.00 0.00 0.00 0.00 0.01 0.00 0.01 0.00 0.00 0.01 0.06 0.18 0.22 0.28 0.15 0.08 0.14 0.14 0.14 0.21 0.12 0.02 0.01
0.00 0.00 0.00 0.00 0.00 0.00 0.00 0.00 0.00 0.00 0.00 0.00 0.00 0.00 0.00 0.00 0.00 0.00 0.00 0.00 0.00 0.00 0.00 0.00 0.00 0.00 0.03 0.01 0.00 0.03 0.01 0.01 0.04 0.01 0.12 0.18 0.39 0.39 0.31 0.24 0.28 0.31 0.32 0.36 0.37 0.45 0.20 0.01 0.00
0.00 0.00 0.00 0.00 0.00 0.00 0.00 0.00 0.00 0.00 0.00 0.00 0.00 0.00 0.00 0.00 0.00 0.00 0.00 0.00 0.00 0.00 0.00 0.00 0.00 0.01 0.16 0.31 0.21 0.29 0.31 0.12 0.18 0.17 0.30 0.42 0.37 0.37 0.44 0.52 0.55 0.76 0.82 0.76 0.71 0.55 0.30 0.01 0.00
0.00 0.00 0.00 0.00 0.00 0.00 0.00 0.00 0.00 0.00 0.00 0.00 0.00 0.00 0.00 0.00 0.00 0.00 0.00 0.00 0.00 0.00 0.00 0.00 0.02 0.01 0.10 0.20 0.61 1.19 1.45 1.43 0.79 0.64 0.69 1.08 1.35 1.25 0.89 0.71 0.76 0.93 1.10 0.98 0.66 0.49 0.26 0.05 0.01
0.00 0.00 0.00 0.00 0.00 0.00 0.00 0.00 0.00 0.00 0.00 0.00 0.00 0.00 0.00 0.00 0.00 0.00 0.00 0.00 0.00 0.00 0.00 0.00 0.01 0.07 0.15 0.05 0.21 0.93 1.48 3.87 4.50 2.86 2.30 2.42 1.91 1.43 1.07 0.75 0.59 0.42 0.39 0.70 0.61 0.40 0.36 0.20 0.17
0.00 0.00 0.00 0.00 0.00 0.00 0.00 0.00 0.00 0.00 0.00 0.00 0.00 0.00 0.00 0.00 0.00 0.00 0.00 0.00 0.00 0.00 0.00 0.00 0.00 0.01 0.12 0.11 0.25 0.54 0.82 1.62 4.24 4.53 3.59 2.21 1.72 1.30 0.81 0.63 0.48 0.39 0.29 0.24 0.24 0.40 0.38 0.34 0.17
0.00 0.00 0.00 0.00 0.00 0.00 0.00 0.00 0.00 0.00 0.00 0.00 0.00 0.00 0.00 0.00 0.00 0.00 0.00 0.00 0.00 0.00 0.00 0.00 0.00 0.01 0.04 0.05 0.12 0.25 0.39 0.65 1.03 2.42 2.68 2.68 1.49 1.19 0.84 0.58 0.59 0.54 0.36 0.18 0.27 0.23 0.19 0.20 0.19
0.00 0.00 0.00 0.00 0.00 0.00 0.00 0.00 0.00 0.00 0.00 0.00 0.00 0.00 0.00 0.00 0.00 0.00 0.00 0.00 0.00 0.00 0.00 0.00 0.00 0.00 0.00 0.01 0.03 0.10 0.19 0.29 0.71 1.93 1.63 1.18 1.30 0.73 0.57 0.72 0.62 0.77 0.63 0.66 0.55 0.22 0.16 0.18 0.10
0.00 0.00 0.00 0.00 0.00 0.00 0.00 0.00 0.00 0.00 0.00 0.00 0.00 0.00 0.00 0.00 0.00 0.00 0.00 0.00 0.00 0.00 0.00 0.04 0.02 0.03 0.01 0.00 0.02 0.05 0.16 0.24 0.74 1.07 1.36 0.86 0.82 0.68 0.31 0.29 0.56 0.74 0.96 0.70 0.50 0.23 0.22 0.19 0.11
0.00 0.00 0.00 0.00 0.00 0.00 0.00 0.00 0.00 0.00 0.00 0.00 0.00 0.00 0.00 0.00 0.00 0.00 0.00 0.00 0.00 0.00 0.00 0.01 0.06 0.03 0.00 0.01 0.02 0.04 0.06 0.09 0.43 0.92 1.09 0.86 0.44 0.53 0.21 0.11 0.20 0.49 0.56 0.59 0.42 0.21 0.25 0.20 0.16
0.00 0.00 0.00 0.00 0.00 0.00 0.00 0.00 0.00 0.00 0.00 0.00 0.00 0.00 0.00 0.00 0.00 0.00 0.00 0.00 0.00 0.00 0.00 0.00 0.02 0.01 0.00 0.00 0.01 0.03 0.04 0.06 0.20 1.08 0.79 0.82 0.23 0.33 0.21 0.11 0.18 0.31 0.58 0.44 0.44 0.41 0.33 0.26 0.23
0.00 0.00 0.00 0.00 0.00 0.00 0.00 0.00 0.00 0.00 0.00 0.00 0.00 0.00 0.00 0.00 0.00 0.00 0.00 0.00 0.00 0.00 0.00 0.00 0.00 0.00 0.00 0.00 0.00 0.02 0.03 0.06 0.23 1.07 0.55 0.87 0.22 0.25 0.20 0.14 0.25 0.21 0.49 0.49 0.42 0.43 0.41 0.33 0.24
0.00 0.00 0.00 0.00 0.00 0.00 0.00 0.00 0.00 0.00 0.00 0.00 0.00 0.00 0.00 0.00 0.00 0.00 0.00 0.00 0.00 0.00 0.00 0.00 0.00 0.00 0.00 0.00 0.00 0.00 0.01 0.04 0.26 0.65 0.39 0.78 0.27 0.21 0.22 0.28 0.30 0.15 0.19 0.64 0.62 0.53 0.57 0.56 0.23
0.00 0.00 0.00 0.00 0.00 0.00 0.00 0.00 0.00 0.00 0.00 0.00 0.00 0.00 0.00 0.00 0.00 0.00 0.00 0.00 0.00 0.00 0.00 0.00 0.00 0.00 0.00 0.00 0.00 0.00 0.01 0.03 0.17 0.38 0.37 0.63 0.46 0.17 0.17 0.23 0.27 0.19 0.16 0.29 0.68 0.61 0.46 0.69 0.42
0.00 0.00 0.00 0.00 0.00 0.00 0.00 0.00 0.00 0.00 0.00 0.00 0.00 0.00 0.00 0.00 0.00 0.00 0.00 0.00 0.00 0.00 0.00 0.00 0.00 0.00 0.00 0.00 0.00 0.00 0.01 0.02 0.14 0.31 0.36 0.61 0.53 0.20 0.29 0.27 0.27 0.21 0.16 0.13 0.34 0.69 0.46 0.46 0.39
0.00 0.00 0.00 0.00 0.00 0.00 0.00 0.00 0.00 0.00 0.00 0.00 0.00 0.00 0.00 0.00 0.00 0.00 0.00 0.00 0.00 0.00 0.00 0.00 0.00 0.00 0.00 0.00 0.01 0.01 0.03 0.03 0.10 0.36 0.36 0.62 0.52 0.28 0.52 0.45 0.29 0.23 0.17 0.14 0.16 0.41 0.51 0.30 0.31
0.00 0.00 0.00 0.00 0.00 0.00 0.00 0.00 0.00 0.00 0.00 0.00 0.00 0.00 0.00 0.00 0.00 0.00 0.00 0.00 0.00 0.00 0.00 0.00 0.01 0.00 0.00 0.00 0.01 0.02 0.02 0.05 0.06 0.12 0.36 0.71 0.68 0.46 0.49 0.74 0.41 0.25 0.16 0.12 0.09 0.14 0.32 0.33 0.32
0.00 0.00 0.00 0.00 0.00 0.00 0.00 0.00 0.00 0.00 0.00 0.00 0.00 0.00 0.00 0.00 0.00 0.00 0.00 0.00 0.00 0.00 0.00 0.00 0.01 0.01 0.01 0.00 0.00 0.00 0.01 0.05 0.05 0.08 0.21 0.57 0.78 0.74 0.54 0.65 0.71 0.43 0.23 0.20 0.18 0.13 0.15 0.21 0.25
0.00 0.00 0.00 0.00 0.00 0.00 0.00 0.00 0.00 0.00 0.00 0.00 0.00 0.00 0.00 0.00 0.00 0.00 0.00 0.00 0.00 0.00 0.00 0.00 0.00 0.01 0.01 0.00 0.00 0.00 0.01 0.05 0.10 0.11 0.15 0.35 0.64 0.93 0.72 0.45 0.82 0.74 0.39 0.23 0.21 0.18 0.08 0.08 0.20
0.00 0.00 0.00 0.00 0.00 0.00 0.00 0.00 0.00 0.00 0.00 0.00 0.00 0.00 0.00 0.00 0.00 0.00 0.00 0.00 0.00 0.00 0.00 0.00 0.00 0.01 0.01 0.00 0.00 0.00 0.00 0.02 0.04 0.07 0.07 0.25 0.28 0.56 0.79 0.71 0.53 0.77 0.59 0.38 0.30 0.34 0.19 0.10 0.12
0.00 0.00 0.00 0.00 0.00 0.01 0.00 0.00 0.00 0.00 0.00 0.00 0.00 0.00 0.00 0.00 0.00 0.00 0.00 0.00 0.00 0.00 0.00 0.00 0.00 0.00 0.00 0.00 0.00 0.00 0.00 0.00 0.02 0.06 0.09 0.17 0.29 0.20 0.40 0.67 0.68 0.52 0.56 0.45 0.37 0.48 0.43 0.19 0.10
0.00 0.02 0.00 0.00 0.01 0.05 0.00 0.00 0.00 0.00 0.00 0.01 0.00 0.00 0.00 0.00 0.00 0.00 0.00 0.00 0.00 0.00 0.00 0.00 0.00 0.00 0.00 0.00 0.00 0.00 0.00 0.00 0.01 0.03 0.04 0.08 0.22 0.27 0.15 0.34 0.72 0.77 0.49 0.48 0.51 0.36 0.44 0.29 0.24
0.01 0.07 0.09 0.09 0.08 0.03 0.00 0.00 0.00 0.00 0.00 0.00 0.00 0.00 0.00 0.00 0.00 0.00 0.00 0.00 0.00 0.00 0.00 0.00 0.00 0.00 0.00 0.01 0.00 0.00 0.00 0.00 0.00 0.02 0.02 0.03 0.08 0.23 0.30 0.19 0.30 0.65 0.66 0.55 0.68 0.61 0.46 0.34 0.33
0.01 0.04 0.10 0.11 0.06 0.03 0.06 0.03 0.01 0.00 0.01 0.00 0.00 0.00 0.00 0.00 0.00 0.00 0.00 0.00 0.00 0.00 0.00 0.01 0.01 0.00 0.00 0.01 0.01 0.00 0.00 0.00 0.00 0.01 0.01 0.01 0.02 0.05 0.23 0.40 0.35 0.37 0.51 0.65 0.65 0.78 0.59 0.39 0.30
0.07 0.09 0.05 0.28 0.11 0.05 0.05 0.03 0.10 0.05 0.00 0.00 0.00 0.00 0.00 0.00 0.00 0.00 0.00 0.01 0.00 0.00 0.01 0.04 0.05 0.00 0.01 0.00 0.00 0.01 0.00 0.00 0.00 0.01 0.01 0.01 0.02 0.03 0.10 0.16 0.41 0.50 0.48 0.46 0.51 0.58 0.64 0.40 0.25
0.06 0.10 0.30 0.46 0.24 0.10 0.01 0.02 0.14 0.25 0.02 0.00 0.00 0.00 0.00 0.00 0.00 0.00 0.00 0.04 0.04 0.01 0.05 0.09 0.08 0.02 0.02 0.01 0.01 0.01 0.00 0.01 0.00 0.00 0.01 0.01 0.02 0.03 0.03 0.08 0.09 0.20 0.30 0.32 0.30 0.35 0.45 0.43 0.27
0.06 0.25 0.28 0.27 0.10 0.15 0.09 0.27 0.41 0.16 0.11 0.02 0.00 0.00 0.01 0.00 0.00 0.01 0.00 0.04 0.03 0.03 0.02 0.03 0.11 0.05 0.02 0.03 0.04 0.03 0.01 0.01 0.00 0.00 0.01 0.01 0.01 0.02 0.02 0.02 0.05 0.04 0.06 0.08 0.09 0.12 0.27 0.33 0.27
0.11 0.11 0.23 0.46 0.29 0.14 0.15 0.37 0.64 0.28 0.12 0.03 0.00 0.00 0.02 0.02 0.02 0.03 0.04 0.04 0.05 0.05 0.05 0.07 0.07 0.05 0.06 0.07 0.07 0.04 0.02 0.01 0.01 0.00 0.00 0.01 0.01 0.01 0.02 0.02 0.01 0.01 0.01 0.02 0.03 0.02 0.07 0.16 0.15

GFSSGP_prec_precacc24_093.txt.gz
Total_Precipitation_Accumulation
0.00 0.00 0.00 0.00 0.00 0.00 0.00 0.00 0.00 0.00 0.00 0.00 0.00 0.00 0.00 0.00 0.00 0.00 0.00 0.00 0.00 0.00 0.00 0.00 0.00 0.00 0.00 0.00 0.00 0.00 0.00 0.00 0.00 0.00 0.00 0.02 0.03 0.04 0.06 0.06 0.00 0.01 0.05 0.04 0.01 0.02 0.09 0.13 0.04
0.00 0.00 0.00 0.00 0.00 0.00 0.00 0.00 0.00 0.00 0.00 0.00 0.00 0.00 0.00 0.00 0.00 0.00 0.00 0.00 0.00 0.00 0.00 0.00 0.00 0.01 0.00 0.00 0.00 0.00 0.00 0.00 0.03 0.01 0.00 0.01 0.02 0.06 0.17 0.22 0.08 0.03 0.08 0.09 0.04 0.09 0.08 0.06 0.02
0.00 0.00 0.00 0.00 0.00 0.00 0.00 0.00 0.00 0.00 0.00 0.00 0.00 0.00 0.00 0.00 0.00 0.00 0.00 0.00 0.00 0.00 0.00 0.00 0.00 0.00 0.00 0.00 0.00 0.00 0.01 0.00 0.01 0.00 0.00 0.01 0.06 0.18 0.23 0.28 0.15 0.09 0.24 0.40 0.35 0.31 0.13 0.02 0.01
0.00 0.00 0.00 0.00 0.00 0.00 0.00 0.00 0.00 0.00 0.00 0.00 0.00 0.00 0.00 0.00 0.00 0.00 0.00 0.00 0.00 0.00 0.00 0.00 0.00 0.00 0.01 0.01 0.00 0.00 0.00 0.01 0.03 0.01 0.12 0.18 0.40 0.40 0.31 0.23 0.31 0.40 0.59 0.68 0.68 0.67 0.29 0.01 0.00
0.00 0.00 0.00 0.00 0.00 0.00 0.00 0.00 0.00 0.00 0.00 0.00 0.00 0.00 0.00 0.00 0.00 0.00 0.00 0.00 0.00 0.00 0.00 0.00 0.00 0.00 0.01 0.06 0.10 0.03 0.03 0.03 0.04 0.08 0.27 0.39 0.39 0.40 0.45 0.53 0.62 0.92 1.01 0.90 0.82 0.71 0.50 0.09 0.03
0.00 0.00 0.00 0.00 0.00 0.00 0.00 0.00 0.00 0.00 0.00 0.00 0.00 0.00 0.00 0.00 0.00 0.00 0.00 0.00 0.00 0.00 0.00 0.00 0.00 0.00 0.01 0.04 0.25 0.72 0.74 0.75 0.49 0.49 0.59 0.94 1.34 1.26 0.91 0.74 0.84 0.99 1.11 0.97 0.66 0.53 0.45 0.27 0.14
0.00 0.00 0.00 0.00 0.00 0.00 0.00 0.00 0.00 0.00 0.00 0.00 0.00 0.00 0.00 0.00 0.00 0.00 0.00 0.00 0.00 0.00 0.00 0.00 0.00 0.01 0.02 0.02 0.12 0.39 0.97 2.43 3.13 2.42 2.14 2.36 1.91 1.45 1.10 0.79 0.65 0.42 0.39 0.70 0.62 0.41 0.40 0.26 0.27
0.00 0.00 0.00 0.00 0.00 0.00 0.00 0.00 0.00 0.00 0.00 0.00 0.00 0.00 0.00 0.00 0.00 0.00 0.00 0.00 0.00 0.00 0.00 0.00 0.00 0.00 0.02 0.03 0.13 0.32 0.60 0.98 2.31 2.66 2.87 1.99 1.71 1.30 0.81 0.63 0.48 0.39 0.28 0.24 0.24 0.40 0.38 0.34 0.18
0.00 0.00 0.00 0.00 0.00 0.00 0.00 0.00 0.00 0.00 0.00 0.00 0.00 0.00 0.00 0.00 0.00 0.00 0.00 0.00 0.00 0.00 0.00 0.00 0.00 0.00 0.01 0.01 0.08 0.22 0.37 0.58 0.48 0.45 1.14 2.13 1.48 1.19 0.84 0.58 0.59 0.54 0.36 0.18 0.28 0.23 0.19 0.20 0.19
0.00 0.00 0.00 0.00 0.00 0.00 0.00 0.00 0.00 0.00 0.00 0.00 0.00 0.00 0.00 0.00 0.00 0.00 0.00 0.00 0.00 0.00 0.00 0.00 0.00 0.00 0.00 0.01 0.03 0.10 0.19 0.26 0.32 0.20 0.24 0.84 1.29 0.73 0.57 0.72 0.63 0.78 0.63 0.66 0.59 0.29 0.21 0.19 0.10
0.00 0.00 0.00 0.00 0.00 0.00 0.00 0.00 0.00 0.00 0.00 0.00 0.00 0.00 0.00 0.00 0.00 0.00 0.00 0.00 0.00 0.00 0.00 0.00 0.00 0.01 0.01 0.00 0.02 0.05 0.16 0.18 0.23 0.22 0.33 0.70 0.81 0.67 0.31 0.30 0.62 0.79 0.97 0.70 0.52 0.26 0.28 0.24 0.14
0.00 0.00 0.00 0.00 0.00 0.00 0.00 0.00 0.00 0.00 0.00 0.00 0.00 0.00 0.00 0.00 0.00 0.00 0.00 0.00 0.00 0.00 0.00 0.00 0.01 0.00 0.00 0.01 0.02 0.04 0.06 0.09 0.12 0.19 0.47 0.66 0.43 0.53 0.21 0.15 0.33 0.60 0.59 0.59 0.43 0.22 0.29 0.31 0.26
0.00 0.00 0.00 0.00 0.00 0.00 0.00 0.00 0.00 0.00 0.00 0.00 0.00 0.00 0.00 0.00 0.00 0.00 0.00 0.00 0.00 0.00 0.00 0.00 0.00 0.00 0.00 0.00 0.01 0.03 0.04 0.05 0.05 0.13 0.32 0.63 0.23 0.37 0.33 0.37 0.34 0.38 0.63 0.47 0.47 0.42 0.34 0.27 0.35
0.00 0.00 0.00 0.00 0.00 0.00 0.00 0.00 0.00 0.00 0.00 0.00 0.00 0.00 0.00 0.00 0.00 0.00 0.00 0.00 0.00 0.00 0.00 0.00 0.00 0.00 0.00 0.00 0.00 0.02 0.02 0.03 0.04 0.22 0.24 0.76 0.20 0.26 0.28 0.36 0.47 0.31 0.55 0.56 0.49 0.44 0.41 0.33 0.31
0.00 0.00 0.00 0.00 0.00 0.00 0.00 0.00 0.00 0.00 0.00 0.00 0.00 0.00 0.00 0.00 0.00 0.00 0.00 0.00 0.00 0.00 0.00 0.00 0.00 0.00 0.00 0.00 0.00 0.00 0.01 0.02 0.10 0.26 0.19 0.72 0.25 0.20 0.29 0.48 0.52 0.24 0.26 0.72 0.66 0.54 0.57 0.57 0.28
0.00 0.00 0.00 0.00 0.00 0.00 0.00 0.00 0.00 0.00 0.00 0.00 0.00 0.00 0.00 0.00 0.00 0.00 0.00 0.00 0.00 0.00 0.00 0.00 0.00 0.00 0.00 0.00 0.00 0.01 0.01 0.02 0.09 0.23 0.25 0.59 0.44 0.15 0.17 0.26 0.34 0.21 0.20 0.34 0.74 0.63 0.48 0.73 0.55
0.00 0.00 0.00 0.00 0.00 0.00 0.00 0.00 0.00 0.00 0.00 0.00 0.00 0.00 0.00 0.00 0.00 0.00 0.00 0.00 0.00 0.00 0.00 0.00 0.00 0.00 0.00 0.00 0.00 0.00 0.01 0.02 0.13 0.28 0.33 0.59 0.51 0.18 0.29 0.25 0.27 0.22 0.15 0.17 0.39 0.71 0.48 0.53 0.78
0.00 0.00 0.00 0.00 0.00 0.00 0.00 0.00 0.00 0.00 0.00 0.00 0.00 0.00 0.00 0.00 0.00 0.00 0.00 0.00 0.00 0.00 0.00 0.00 0.00 0.00 0.00 0.00 0.01 0.01 0.02 0.02 0.09 0.33 0.32 0.61 0.51 0.27 0.51 0.44 0.26 0.20 0.16 0.16 0.17 0.42 0.54 0.39 0.60
0.00 0.00 0.00 0.00 0.00 0.00 0.00 0.00 0.00 0.00 0.00 0.00 0.00 0.00 0.00 0.00 0.00 0.00 0.00 0.00 0.00 0.00 0.00 0.00 0.00 0.00 0.00 0.00 0.01 0.02 0.02 0.04 0.05 0.11 0.32 0.68 0.66 0.46 0.48 0.74 0.40 0.26 0.11 0.09 0.09 0.14 0.32 0.40 0.55
0.00 0.00 0.00 0.00 0.00 0.00 0.00 0.00 0.00 0.00 0.00 0.00 0.00 0.00 0.00 0.00 0.00 0.00 0.00 0.00 0.00 0.00 0.00 0.00 0.00 0.00 0.01 0.00 0.00 0.01 0.01 0.03 0.04 0.06 0.17 0.55 0.77 0.74 0.54 0.66 0.71 0.45 0.22 0.18 0.18 0.13 0.15 0.25 0.47
0.00 0.00 0.00 0.00 0.00 0.00 0.00 0.00 0.00 0.00 0.00 0.00 0.00 0.00 0.00 0.00 0.00 0.00 0.00 0.00 0.00 0.00 0.00 0.00 0.00 0.00 0.00 0.00 0.01 0.01 0.01 0.03 0.08 0.10 0.14 0.34 0.64 0.93 0.72 0.46 0.83 0.75 0.40 0.24 0.22 0.19 0.09 0.09 0.33
0.00 0.00 0.00 0.00 0.00 0.00 0.00 0.00 0.00 0.00 0.00 0.00 0.00 0.00 0.00 0.00 0.00 0.00 0.00 0.00 0.00 0.00 0.00 0.00 0.00 0.01 0.01 0.00 0.00 0.00 0.00 0.01 0.04 0.07 0.07 0.25 0.29 0.56 0.79 0.72 0.54 0.78 0.60 0.39 0.32 0.36 0.21 0.11 0.16
0.00 0.00 0.00 0.00 0.00 0.01 0.00 0.00 0.00 0.00 0.00 0.00 0.01 0.00 0.00 0.00 0.00 0.00 0.00 0.00 0.00 0.00 0.00 0.00 0.00 0.00 0.00 0.00 0.00 0.00 0.00 0.00 0.02 0.06 0.09 0.17 0.30 0.21 0.40 0.68 0.68 0.53 0.57 0.47 0.40 0.50 0.49 0.28 0.13
0.00 0.01 0.00 0.00 0.01 0.05 0.00 0.00 0.00 0.00 0.01 0.02 0.05 0.03 0.01 0.00 0.00 0.00 0.00 0.00 0.00 0.00 0.00 0.00 0.00 0.00 0.00 0.01 0.00 0.00 0.00 0.00 0.01 0.03 0.04 0.08 0.22 0.27 0.16 0.34 0.72 0.76 0.49 0.49 0.54 0.41 0.48 0.39 0.30
0.01 0.05 0.05 0.07 0.08 0.03 0.00 0.00 0.00 0.00 0.03 0.06 0.06 0.02 0.02 0.00 0.00 0.00 0.00 0.00 0.00 0.00 0.00 0.02 0.01 0.01 0.00 0.02 0.00 0.00 0.00 0.01 0.00 0.02 0.02 0.03 0.08 0.23 0.31 0.19 0.30 0.65 0.67 0.57 0.73 0.67 0.51 0.36 0.37
0.01 0.04 0.08 0.08 0.05 0.03 0.07 0.04 0.02 0.07 0.09 0.05 0.01 0.00 0.00 0.00 0.00 0.00 0.00 0.00 0.00 0.00 0.00 0.02 0.06 0.09 0.05 0.08 0.02 0.01 0.01 0.01 0.00 0.01 0.01 0.01 0.02 0.05 0.23 0.40 0.35 0.37 0.51 0.69 0.82 1.02 0.79 0.49 0.36
0.04 0.07 0.06 0.26 0.10 0.05 0.05 0.03 0.11 0.35 0.33 0.25 0.01 0.00 0.00 0.00 0.00 0.00 0.00 0.01 0.00 0.01 0.10 0.11 0.14 0.05 0.17 0.09 0.01 0.02 0.01 0.00 0.00 0.01 0.01 0.01 0.02 0.03 0.10 0.16 0.41 0.50 0.48 0.50 0.69 0.88 0.87 0.60 0.41
0.05 0.09 0.23 0.33 0.24 0.10 0.01 0.02 0.16 0.33 0.41 0.23 0.00 0.00 0.00 0.00 0.00 0.00 0.00 0.05 0.05 0.09 0.29 0.47 0.45 0.28 0.20 0.11 0.05 0.04 0.04 0.03 0.01 0.00 0.01 0.01 0.02 0.03 0.03 0.08 0.09 0.20 0.30 0.32 0.39 0.52 0.65 0.67 0.45
0.09 0.23 0.19 0.25 0.12 0.16 0.10 0.31 0.52 0.47 0.51 0.18 0.01 0.00 0.01 0.00 0.00 0.01 0.00 0.05 0.04 0.08 0.10 0.17 0.31 0.23 0.21 0.13 0.05 0.07 0.04 0.03 0.01 0.01 0.01 0.01 0.01 0.02 0.02 0.02 0.05 0.04 0.06 0.07 0.12 0.18 0.45 0.56 0.57
0.16 0.20 0.27 0.39 0.26 0.16 0.15 0.40 0.83 0.63 0.26 0.32 0.02 0.00 0.02 0.02 0.02 0.03 0.04 0.05 0.06 0.07 0.09 0.11 0.11 0.09 0.13 0.11 0.10 0.11 0.05 0.03 0.01 0.01 0.01 0.02 0.02 0.01 0.02 0.02 0.01 0.01 0.01 0.02 0.03 0.04 0.21 0.38 0.50

GFSSGP_prec_precacc24_096.txt.gz
Total_Precipitation_Accumulation
0.00 0.00 0.00 0.00 0.00 0.00 0.00 0.00 0.00 0.00 0.00 0.00 0.00 0.00 0.00 0.00 0.00 0.00 0.00 0.00 0.00 0.00 0.00 0.00 0.00 0.00 0.00 0.00 0.00 0.00 0.00 0.00 0.00 0.00 0.00 0.02 0.03 0.04 0.06 0.06 0.00 0.01 0.05 0.04 0.01 0.06 0.15 0.17 0.04
0.00 0.00 0.00 0.00 0.00 0.00 0.00 0.00 0.00 0.00 0.00 0.00 0.00 0.00 0.00 0.00 0.00 0.00 0.00 0.00 0.00 0.00 0.00 0.00 0.00 0.01 0.00 0.00 0.00 0.00 0.00 0.00 0.03 0.01 0.00 0.01 0.02 0.06 0.17 0.22 0.08 0.03 0.09 0.11 0.06 0.11 0.13 0.08 0.02
0.00 0.00 0.00 0.00 0.00 0.00 0.00 0.00 0.00 0.00 0.00 0.00 0.00 0.00 0.00 0.00 0.00 0.00 0.00 0.00 0.00 0.00 0.00 0.00 0.00 0.00 0.00 0.00 0.00 0.00 0.01 0.00 0.01 0.00 0.00 0.01 0.07 0.19 0.23 0.28 0.15 0.09 0.29 0.58 0.53 0.49 0.19 0.03 0.01
0.00 0.00 0.00 0.00 0.00 0.00 0.00 0.00 0.00 0.00 0.00 0.00 0.00 0.00 0.00 0.00 0.00 0.00 0.00 0.00 0.00 0.00 0.00 0.00 0.00 0.00 0.01 0.00 0.00 0.00 0.00 0.01 0.03 0.01 0.12 0.18 0.40 0.41 0.31 0.24 0.34 0.45 0.63 0.73 0.78 0.84 0.31 0.01 0.02
0.00 0.00 0.00 0.00 0.00 0.00 0.00 0.00 0.00 0.00 0.00 0.00 0.00 0.00 0.00 0.00 0.00 0.00 0.00 0.00 0.00 0.00 0.00 0.00 0.00 0.00 0.00 0.00 0.02 0.02 0.00 0.02 0.03 0.07 0.27 0.38 0.38 0.40 0.45 0.55 0.68 0.94 1.00 0.89 0.82 0.72 0.50 0.09 0.04
0.00 0.00 0.00 0.00 0.00 0.00 0.00 0.00 0.00 0.00 0.00 0.00 0.00 0.00 0.00 0.00 0.00 0.00 0.00 0.00 0.00 0.00 0.00 0.00 0.00 0.00 0.01 0.01 0.02 0.19 0.32 0.26 0.18 0.31 0.48 0.83 1.16 1.20 0.90 0.75 0.87 0.99 1.11 0.97 0.66 0.53 0.45 0.27 0.14
0.00 0.00 0.00 0.00 0.00 0.00 0.00 0.00 0.00 0.00 0.00 0.00 0.00 0.00 0.00 0.00 0.00 0.00 0.00 0.00 0.00 0.00 0.00 0.00 0.00 0.00 0.01 0.01 0.07 0.16 0.30 1.13 1.82 1.76 1.69 2.06 1.46 1.22 1.07 0.79 0.65 0.42 0.39 0.70 0.62 0.42 0.40 0.26 0.27
0.00 0.00 0.00 0.00 0.00 0.00 0.00 0.00 0.00 0.00 0.00 0.00 0.00 0.00 0.00 0.00 0.00 0.00 0.00 0.00 0.00 0.00 0.00 0.00 0.00 0.00 0.00 0.01 0.11 0.16 0.26 0.48 1.81 2.16 1.66 1.03 1.16 1.02 0.77 0.63 0.48 0.39 0.29 0.24 0.24 0.40 0.38 0.34 0.18
0.00 0.00 0.00 0.00 0.00 0.00 0.00 0.00 0.00 0.00 0.00 0.00 0.00 0.00 0.00 0.00 0.00 0.00 0.00 0.00 0.00 0.00 0.00 0.00 0.00 0.00 0.00 0.01 0.04 0.13 0.25 0.45 0.36 0.32 0.50 0.59 0.67 0.90 0.76 0.58 0.59 0.57 0.43 0.18 0.28 0.23 0.19 0.20 0.19
0.00 0.00 0.00 0.00 0.00 0.00 0.00 0.00 0.00 0.00 0.00 0.00 0.00 0.00 0.00 0.00 0.00 0.00 0.00 0.00 0.00 0.00 0.00 0.00 0.00 0.00 0.00 0.00 0.02 0.10 0.18 0.25 0.32 0.20 0.10 0.10 0.25 0.41 0.52 0.72 0.63 0.86 0.70 0.66 0.59 0.29 0.21 0.19 0.12
0.00 0.00 0.00 0.00 0.00 0.00 0.00 0.00 0.00 0.00 0.00 0.00 0.00 0.00 0.00 0.00 0.00 0.00 0.00 0.00 0.00 0.00 0.00 0.00 0.00 0.00 0.00 0.00 0.02 0.05 0.16 0.18 0.23 0.22 0.11 0.12 0.25 0.45 0.29 0.30 0.62 0.82 1.01 0.72 0.52 0.26 0.28 0.24 0.19
0.00 0.00 0.00 0.00 0.00 0.00 0.00 0.00 0.00 0.00 0.00 0.00 0.00 0.00 0.00 0.00 0.00 0.00 0.00 0.00 0.00 0.00 0.00 0.00 0.00 0.00 0.00 0.01 0.02 0.04 0.06 0.09 0.12 0.19 0.17 0.14 0.20 0.47 0.21 0.15 0.34 0.65 0.63 0.70 0.46 0.24 0.29 0.31 0.29
0.00 0.00 0.00 0.00 0.00 0.00 0.00 0.00 0.00 0.00 0.00 0.00 0.00 0.00 0.00 0.00 0.00 0.00 0.00 0.00 0.00 0.00 0.00 0.00 0.00 0.00 0.00 0.00 0.01 0.03 0.04 0.05 0.05 0.11 0.14 0.14 0.18 0.36 0.33 0.38 0.37 0.43 0.65 0.54 0.49 0.47 0.36 0.28 0.35
0.00 0.00 0.00 0.00 0.00 0.00 0.00 0.00 0.00 0.00 0.00 0.00 0.00 0.00 0.00 0.00 0.00 0.00 0.00 0.00 0.00 0.00 0.00 0.00 0.00 0.00 0.00 0.00 0.00 0.02 0.02 0.03 0.02 0.05 0.10 0.17 0.18 0.26 0.28 0.36 0.49 0.35 0.62 0.65 0.57 0.51 0.47 0.34 0.32
0.00 0.00 0.00 0.00 0.00 0.00 0.00 0.00 0.00 0.00 0.00 0.00 0.00 0.00 0.00 0.00 0.00 0.00 0.00 0.00 0.00 0.00 0.00 0.01 0.00 0.01 0.01 0.00 0.00 0.00 0.01 0.02 0.02 0.02 0.05 0.43 0.24 0.20 0.29 0.48 0.54 0.28 0.37 0.91 0.82 0.61 0.61 0.59 0.30
0.00 0.00 0.00 0.00 0.00 0.00 0.00 0.00 0.00 0.00 0.00 0.00 0.00 0.00 0.00 0.00 0.00 0.00 0.00 0.00 0.00 0.00 0.00 0.00 0.00 0.00 0.04 0.02 0.00 0.01 0.01 0.02 0.03 0.04 0.04 0.35 0.41 0.15 0.17 0.26 0.34 0.23 0.30 0.54 0.94 0.75 0.53 0.75 0.55
0.00 0.00 0.00 0.00 0.00 0.00 0.00 0.00 0.00 0.00 0.00 0.00 0.00 0.00 0.00 0.00 0.00 0.00 0.00 0.00 0.00 0.00 0.00 0.00 0.00 0.00 0.01 0.02 0.01 0.03 0.01 0.02 0.07 0.10 0.12 0.43 0.48 0.18 0.29 0.25 0.27 0.23 0.19 0.29 0.55 0.82 0.54 0.56 0.79
0.00 0.00 0.00 0.00 0.00 0.00 0.00 0.00 0.00 0.00 0.00 0.00 0.00 0.00 0.00 0.00 0.00 0.00 0.00 0.00 0.00 0.00 0.00 0.00 0.00 0.00 0.05 0.05 0.05 0.07 0.03 0.02 0.09 0.26 0.22 0.53 0.47 0.27 0.51 0.44 0.26 0.20 0.16 0.20 0.21 0.46 0.56 0.40 0.63
0.00 0.00 0.00 0.00 0.00 0.00 0.00 0.00 0.00 0.00 0.00 0.00 0.00 0.00 0.00 0.00 0.00 0.00 0.00 0.00 0.00 0.00 0.00 0.00 0.00 0.01 0.03 0.01 0.03 0.03 0.02 0.04 0.04 0.10 0.28 0.64 0.64 0.45 0.48 0.74 0.40 0.26 0.12 0.09 0.11 0.15 0.33 0.41 0.57
0.00 0.00 0.00 0.00 0.00 0.00 0.00 0.00 0.00 0.00 0.00 0.00 0.00 0.00 0.00 0.00 0.00 0.00 0.00 0.00 0.00 0.00 0.00 0.00 0.00 0.01 0.01 0.01 0.03 0.05 0.02 0.03 0.04 0.05 0.13 0.47 0.73 0.73 0.53 0.66 0.71 0.44 0.22 0.18 0.18 0.13 0.16 0.25 0.47
0.00 0.00 0.00 0.00 0.00 0.00 0.00 0.00 0.00 0.00 0.00 0.00 0.00 0.00 0.00 0.00 0.00 0.00 0.00 0.00 0.00 0.00 0.00 0.00 0.00 0.00 0.02 0.03 0.05 0.05 0.06 0.04 0.06 0.07 0.07 0.22 0.59 0.91 0.71 0.45 0.83 0.76 0.41 0.24 0.22 0.20 0.10 0.09 0.33
0.00 0.00 0.00 0.00 0.00 0.00 0.00 0.00 0.00 0.00 0.00 0.00 0.00 0.00 0.00 0.00 0.00 0.00 0.00 0.00 0.00 0.00 0.00 0.00 0.00 0.01 0.00 0.00 0.01 0.01 0.01 0.01 0.03 0.06 0.05 0.21 0.24 0.54 0.78 0.71 0.54 0.79 0.61 0.39 0.32 0.38 0.24 0.12 0.17
0.00 0.00 0.00 0.00 0.00 0.01 0.00 0.00 0.00 0.00 0.00 0.00 0.01 0.01 0.01 0.01 0.00 0.00 0.00 0.00 0.00 0.00 0.00 0.00 0.00 0.00 0.01 0.01 0.01 0.00 0.01 0.00 0.02 0.06 0.09 0.15 0.26 0.19 0.40 0.68 0.68 0.54 0.58 0.49 0.40 0.55 0.55 0.32 0.15
0.00 0.01 0.00 0.00 0.01 0.05 0.00 0.00 0.00 0.00 0.01 0.02 0.09 0.09 0.06 0.05 0.02 0.01 0.00 0.00 0.00 0.00 0.03 0.01 0.00 0.00 0.00 0.01 0.00 0.00 0.00 0.00 0.01 0.03 0.04 0.07 0.21 0.26 0.16 0.35 0.73 0.77 0.49 0.48 0.53 0.41 0.50 0.45 0.33
0.00 0.03 0.04 0.07 0.08 0.03 0.00 0.00 0.00 0.00 0.04 0.09 0.11 0.06 0.05 0.03 0.03 0.03 0.01 0.00 0.00 0.00 0.01 0.09 0.09 0.05 0.03 0.06 0.04 0.02 0.01 0.01 0.00 0.02 0.02 0.03 0.08 0.23 0.31 0.19 0.31 0.65 0.67 0.56 0.74 0.71 0.53 0.38 0.41
0.01 0.02 0.07 0.06 0.04 0.03 0.07 0.05 0.02 0.09 0.13 0.12 0.05 0.03 0.02 0.02 0.01 0.00 0.01 0.00 0.00 0.00 0.00 0.04 0.11 0.17 0.19 0.21 0.13 0.07 0.06 0.01 0.00 0.01 0.01 0.01 0.02 0.05 0.23 0.41 0.35 0.36 0.51 0.69 0.83 1.04 0.90 0.57 0.39
0.04 0.06 0.05 0.24 0.11 0.07 0.05 0.03 0.11 0.35 0.34 0.51 0.52 0.22 0.06 0.00 0.00 0.00 0.00 0.01 0.00 0.03 0.12 0.19 0.25 0.17 0.23 0.19 0.12 0.10 0.04 0.01 0.00 0.01 0.01 0.01 0.02 0.03 0.10 0.16 0.41 0.50 0.48 0.50 0.71 0.93 1.05 0.89 0.56
0.05 0.08 0.19 0.25 0.22 0.10 0.01 0.02 0.18 0.34 0.46 0.58 0.44 0.16 0.02 0.00 0.00 0.00 0.00 0.05 0.06 0.12 0.34 0.58 0.67 0.60 0.50 0.32 0.20 0.16 0.08 0.04 0.01 0.01 0.01 0.01 0.02 0.03 0.03 0.08 0.09 0.21 0.31 0.33 0.39 0.57 0.88 0.98 0.71
0.09 0.15 0.16 0.24 0.12 0.14 0.09 0.29 0.65 0.51 0.78 0.57 0.09 0.01 0.01 0.00 0.00 0.01 0.00 0.05 0.05 0.10 0.15 0.27 0.47 0.60 0.91 0.78 0.40 0.20 0.11 0.05 0.03 0.02 0.02 0.01 0.01 0.02 0.02 0.02 0.05 0.04 0.06 0.08 0.12 0.21 0.54 0.86 0.88
0.16 0.21 0.28 0.54 0.30 0.17 0.16 0.29 0.77 0.64 0.34 0.61 0.07 0.01 0.02 0.02 0.02 0.03 0.04 0.05 0.06 0.07 0.11 0.18 0.16 0.16 0.32 0.41 0.36 0.26 0.11 0.07 0.06 0.09 0.08 0.03 0.02 0.01 0.02 0.02 0.01 0.01 0.01 0.02 0.03 0.05 0.25 0.49 0.73

GFSSGP_prec_precacc24_099.txt.gz
Total_Precipitation_Accumulation
0.00 0.00 0.00 0.00 0.00 0.00 0.00 0.00 0.00 0.00 0.00 0.00 0.00 0.00 0.00 0.00 0.00 0.00 0.00 0.00 0.00 0.00 0.00 0.00 0.00 0.00 0.00 0.00 0.00 0.00 0.00 0.00 0.00 0.00 0.00 0.02 0.03 0.04 0.06 0.06 0.00 0.01 0.05 0.03 0.01 0.06 0.16 0.20 0.09
0.00 0.00 0.00 0.00 0.00 0.00 0.00 0.00 0.00 0.00 0.00 0.00 0.00 0.00 0.00 0.00 0.00 0.00 0.00 0.00 0.00 0.00 0.00 0.00 0.00 0.01 0.00 0.00 0.00 0.00 0.00 0.00 0.03 0.01 0.00 0.01 0.02 0.06 0.17 0.22 0.08 0.03 0.09 0.11 0.07 0.11 0.14 0.14 0.05
0.00 0.00 0.00 0.00 0.00 0.00 0.00 0.00 0.00 0.00 0.00 0.00 0.00 0.00 0.00 0.00 0.00 0.00 0.00 0.00 0.00 0.00 0.00 0.00 0.00 0.00 0.00 0.00 0.00 0.00 0.01 0.00 0.01 0.00 0.00 0.01 0.07 0.19 0.23 0.31 0.19 0.09 0.30 0.61 0.55 0.49 0.17 0.03 0.00
0.00 0.00 0.00 0.00 0.00 0.00 0.00 0.00 0.00 0.00 0.00 0.00 0.00 0.00 0.00 0.00 0.00 0.00 0.00 0.00 0.00 0.00 0.00 0.00 0.00 0.00 0.01 0.00 0.00 0.00 0.00 0.01 0.03 0.01 0.12 0.18 0.40 0.41 0.32 0.25 0.39 0.46 0.62 0.74 0.80 0.83 0.30 0.01 0.02
0.00 0.00 0.00 0.00 0.00 0.00 0.00 0.00 0.00 0.00 0.00 0.00 0.00 0.00 0.00 0.00 0.00 0.00 0.00 0.00 0.00 0.00 0.00 0.00 0.00 0.00 0.00 0.00 0.00 0.01 0.00 0.02 0.03 0.07 0.27 0.38 0.38 0.40 0.45 0.56 0.69 0.93 0.99 0.88 0.81 0.71 0.49 0.08 0.04
0.00 0.00 0.00 0.00 0.00 0.00 0.00 0.00 0.00 0.00 0.00 0.00 0.00 0.00 0.00 0.00 0.00 0.00 0.00 0.00 0.00 0.00 0.00 0.00 0.00 0.00 0.00 0.00 0.00 0.07 0.14 0.11 0.09 0.24 0.38 0.74 1.09 1.16 0.89 0.75 0.86 0.97 1.09 0.96 0.65 0.52 0.45 0.27 0.14
0.00 0.00 0.00 0.00 0.00 0.00 0.00 0.00 0.00 0.00 0.00 0.00 0.00 0.00 0.00 0.00 0.00 0.00 0.00 0.00 0.00 0.00 0.00 0.00 0.00 0.00 0.01 0.01 0.01 0.03 0.09 0.31 0.47 0.83 1.18 1.67 1.09 0.93 0.89 0.72 0.62 0.41 0.38 0.70 0.62 0.41 0.41 0.26 0.27
0.00 0.00 0.00 0.00 0.00 0.00 0.00 0.00 0.00 0.00 0.00 0.00 0.00 0.00 0.00 0.00 0.00 0.00 0.00 0.00 0.00 0.00 0.00 0.00 0.00 0.00 0.00 0.01 0.05 0.08 0.04 0.08 0.19 0.48 0.92 0.63 0.66 0.54 0.44 0.49 0.45 0.35 0.28 0.24 0.24 0.40 0.38 0.34 0.18
0.00 0.00 0.00 0.00 0.00 0.00 0.00 0.00 0.00 0.00 0.00 0.00 0.00 0.00 0.00 0.00 0.00 0.00 0.00 0.00 0.00 0.00 0.00 0.00 0.00 0.00 0.00 0.01 0.03 0.10 0.10 0.17 0.19 0.14 0.21 0.30 0.40 0.51 0.44 0.42 0.57 0.54 0.44 0.19 0.28 0.23 0.19 0.20 0.21
0.00 0.00 0.00 0.00 0.00 0.00 0.00 0.00 0.00 0.00 0.00 0.00 0.00 0.00 0.00 0.00 0.00 0.00 0.00 0.00 0.00 0.00 0.00 0.00 0.00 0.00 0.00 0.00 0.01 0.08 0.13 0.13 0.19 0.15 0.08 0.09 0.15 0.15 0.28 0.53 0.58 0.85 0.72 0.68 0.60 0.29 0.21 0.20 0.12
0.00 0.00 0.00 0.00 0.00 0.00 0.00 0.00 0.00 0.00 0.00 0.00 0.00 0.00 0.00 0.00 0.00 0.00 0.00 0.00 0.00 0.00 0.00 0.00 0.00 0.00 0.00 0.00 0.01 0.04 0.14 0.17 0.22 0.21 0.11 0.11 0.13 0.11 0.06 0.15 0.55 0.82 1.02 0.75 0.56 0.27 0.28 0.24 0.20
0.00 0.00 0.00 0.00 0.00 0.00 0.00 0.00 0.00 0.00 0.00 0.00 0.00 0.00 0.00 0.00 0.00 0.00 0.01 0.00 0.00 0.00 0.00 0.00 0.00 0.00 0.00 0.00 0.01 0.03 0.05 0.09 0.12 0.19 0.17 0.14 0.15 0.16 0.07 0.12 0.33 0.65 0.64 0.73 0.57 0.31 0.31 0.31 0.40
0.00 0.00 0.00 0.00 0.00 0.00 0.00 0.00 0.00 0.00 0.00 0.00 0.00 0.00 0.00 0.00 0.00 0.00 0.00 0.00 0.01 0.00 0.00 0.00 0.00 0.00 0.00 0.00 0.01 0.03 0.04 0.05 0.05 0.11 0.14 0.14 0.16 0.22 0.27 0.38 0.37 0.43 0.65 0.60 0.61 0.54 0.40 0.29 0.41
0.00 0.00 0.00 0.00 0.00 0.00 0.00 0.00 0.00 0.00 0.00 0.00 0.00 0.00 0.00 0.00 0.00 0.00 0.00 0.00 0.00 0.00 0.00 0.00 0.00 0.00 0.00 0.00 0.01 0.02 0.02 0.03 0.02 0.05 0.10 0.09 0.15 0.19 0.26 0.36 0.49 0.35 0.62 0.71 0.66 0.58 0.54 0.41 0.36
0.00 0.00 0.00 0.00 0.00 0.00 0.00 0.00 0.00 0.00 0.00 0.00 0.00 0.00 0.00 0.00 0.00 0.00 0.00 0.00 0.00 0.00 0.00 0.01 0.00 0.01 0.01 0.00 0.02 0.02 0.01 0.02 0.02 0.02 0.05 0.06 0.10 0.16 0.27 0.48 0.54 0.28 0.37 0.96 0.99 0.80 0.73 0.66 0.32
0.00 0.00 0.00 0.00 0.00 0.00 0.00 0.00 0.00 0.00 0.00 0.00 0.00 0.00 0.00 0.00 0.00 0.00 0.00 0.00 0.00 0.00 0.00 0.00 0.00 0.00 0.04 0.02 0.02 0.03 0.01 0.02 0.02 0.02 0.03 0.04 0.06 0.12 0.16 0.26 0.34 0.23 0.30 0.55 1.09 0.95 0.64 0.83 0.59
0.00 0.00 0.00 0.00 0.00 0.00 0.00 0.00 0.00 0.00 0.00 0.00 0.00 0.00 0.00 0.00 0.00 0.00 0.00 0.00 0.00 0.00 0.00 0.00 0.00 0.00 0.01 0.04 0.03 0.05 0.02 0.01 0.01 0.02 0.03 0.03 0.07 0.13 0.28 0.25 0.27 0.23 0.19 0.29 0.61 0.98 0.70 0.66 0.83
0.00 0.00 0.00 0.00 0.00 0.00 0.00 0.00 0.00 0.00 0.00 0.00 0.00 0.00 0.00 0.00 0.00 0.00 0.00 0.00 0.00 0.00 0.00 0.00 0.00 0.00 0.05 0.07 0.08 0.09 0.04 0.04 0.03 0.02 0.04 0.10 0.21 0.20 0.50 0.44 0.26 0.20 0.17 0.20 0.22 0.51 0.66 0.48 0.69
0.00 0.00 0.00 0.00 0.00 0.00 0.00 0.00 0.00 0.00 0.00 0.00 0.00 0.00 0.00 0.00 0.00 0.00 0.00 0.00 0.00 0.00 0.00 0.00 0.00 0.01 0.03 0.01 0.03 0.03 0.02 0.04 0.07 0.05 0.11 0.27 0.31 0.36 0.47 0.74 0.40 0.26 0.12 0.10 0.11 0.15 0.34 0.41 0.59
0.00 0.00 0.00 0.00 0.00 0.00 0.00 0.00 0.00 0.00 0.00 0.00 0.00 0.00 0.00 0.00 0.00 0.00 0.00 0.00 0.00 0.00 0.00 0.00 0.00 0.01 0.01 0.01 0.03 0.05 0.05 0.11 0.12 0.17 0.16 0.36 0.61 0.61 0.51 0.66 0.71 0.44 0.22 0.19 0.19 0.13 0.16 0.25 0.48
0.00 0.00 0.00 0.00 0.00 0.00 0.00 0.00 0.00 0.00 0.00 0.00 0.00 0.00 0.00 0.00 0.00 0.00 0.00 0.00 0.00 0.00 0.00 0.00 0.00 0.00 0.02 0.03 0.05 0.06 0.10 0.12 0.11 0.09 0.05 0.17 0.56 0.87 0.65 0.45 0.83 0.76 0.41 0.24 0.23 0.20 0.10 0.10 0.34
0.00 0.00 0.00 0.00 0.00 0.00 0.00 0.00 0.00 0.00 0.00 0.00 0.00 0.00 0.00 0.00 0.00 0.00 0.00 0.00 0.00 0.00 0.00 0.00 0.00 0.01 0.00 0.00 0.01 0.01 0.01 0.00 0.03 0.06 0.04 0.04 0.16 0.49 0.74 0.67 0.54 0.78 0.61 0.39 0.33 0.39 0.28 0.15 0.19
0.00 0.00 0.00 0.00 0.00 0.01 0.00 0.00 0.00 0.00 0.00 0.00 0.01 0.01 0.01 0.01 0.00 0.00 0.00 0.00 0.00 0.00 0.00 0.00 0.00 0.00 0.01 0.01 0.01 0.00 0.01 0.00 0.02 0.06 0.12 0.07 0.07 0.12 0.31 0.62 0.65 0.54 0.58 0.48 0.42 0.58 0.60 0.39 0.21
0.00 0.00 0.00 0.00 0.01 0.03 0.00 0.00 0.00 0.00 0.01 0.02 0.09 0.09 0.07 0.06 0.04 0.03 0.02 0.01 0.01 0.00 0.03 0.01 0.00 0.00 0.00 0.01 0.00 0.00 0.00 0.00 0.01 0.04 0.07 0.08 0.13 0.15 0.10 0.29 0.67 0.76 0.48 0.44 0.50 0.41 0.52 0.49 0.38
0.00 0.02 0.02 0.04 0.06 0.02 0.00 0.00 0.00 0.01 0.04 0.10 0.12 0.07 0.05 0.04 0.07 0.07 0.03 0.02 0.02 0.01 0.01 0.10 0.09 0.05 0.05 0.08 0.05 0.03 0.03 0.03 0.03 0.05 0.05 0.05 0.08 0.21 0.28 0.17 0.28 0.62 0.67 0.54 0.67 0.65 0.50 0.37 0.40
0.00 0.01 0.03 0.04 0.04 0.03 0.07 0.05 0.02 0.10 0.14 0.12 0.05 0.04 0.03 0.04 0.03 0.02 0.02 0.01 0.00 0.03 0.02 0.04 0.16 0.23 0.21 0.25 0.19 0.15 0.15 0.11 0.08 0.06 0.02 0.02 0.02 0.05 0.23 0.40 0.35 0.35 0.49 0.68 0.81 1.01 0.88 0.55 0.40
0.02 0.05 0.03 0.17 0.10 0.08 0.05 0.03 0.11 0.36 0.34 0.51 0.52 0.24 0.17 0.07 0.02 0.02 0.02 0.01 0.01 0.05 0.15 0.20 0.36 0.27 0.36 0.30 0.22 0.20 0.15 0.08 0.05 0.04 0.03 0.02 0.02 0.03 0.10 0.16 0.41 0.50 0.48 0.49 0.71 0.93 1.05 0.92 0.64
0.04 0.08 0.19 0.23 0.21 0.09 0.01 0.01 0.19 0.35 0.46 0.59 0.50 0.31 0.15 0.08 0.02 0.01 0.01 0.05 0.07 0.16 0.39 0.67 0.78 0.70 0.65 0.49 0.35 0.29 0.22 0.17 0.11 0.06 0.04 0.04 0.02 0.03 0.03 0.08 0.09 0.21 0.31 0.32 0.39 0.57 0.89 1.03 0.83
0.08 0.14 0.16 0.27 0.15 0.15 0.07 0.26 0.65 0.51 0.78 0.61 0.16 0.12 0.09 0.03 0.00 0.01 0.00 0.05 0.06 0.13 0.22 0.34 0.55 0.71 1.11 1.02 0.79 0.44 0.30 0.24 0.15 0.08 0.07 0.05 0.02 0.02 0.02 0.02 0.05 0.04 0.06 0.08 0.12 0.21 0.55 0.91 1.06
0.16 0.21 0.26 0.48 0.34 0.23 0.17 0.26 0.76 0.62 0.32 0.67 0.29 0.15 0.03 0.02 0.02 0.03 0.04 0.05 0.06 0.08 0.13 0.23 0.20 0.24 0.40 0.53 0.86 1.02 0.61 0.32 0.18 0.15 0.12 0.07 0.06 0.02 0.03 0.02 0.01 0.01 0.02 0.03 0.03 0.05 0.26 0.52 0.90

GFSSGP_prec_precacc24_105.txt.gz
Total_Precipitation_Accumulation
0.00 0.00 0.00 0.00 0.00 0.00 0.00 0.00 0.00 0.00 0.00 0.00 0.00 0.00 0.00 0.00 0.00 0.00 0.00 0.00 0.00 0.00 0.00 0.00 0.00 0.00 0.00 0.00 0.00 0.00 0.00 0.00 0.00 0.00 0.00 0.02 0.03 0.04 0.05 0.05 0.00 0.00 0.06 0.03 0.01 0.06 0.16 0.16 0.08
0.00 0.00 0.00 0.00 0.00 0.00 0.00 0.00 0.00 0.00 0.00 0.00 0.00 0.00 0.00 0.00 0.00 0.00 0.00 0.00 0.00 0.00 0.00 0.00 0.00 0.00 0.00 0.00 0.00 0.00 0.00 0.00 0.03 0.01 0.00 0.01 0.02 0.06 0.13 0.16 0.07 0.03 0.09 0.10 0.07 0.11 0.13 0.11 0.04
0.00 0.00 0.00 0.00 0.00 0.00 0.00 0.00 0.00 0.00 0.00 0.00 0.00 0.00 0.00 0.00 0.00 0.00 0.00 0.00 0.00 0.00 0.00 0.00 0.00 0.00 0.00 0.00 0.00 0.00 0.00 0.00 0.01 0.00 0.00 0.01 0.07 0.19 0.21 0.29 0.18 0.09 0.29 0.59 0.53 0.48 0.16 0.02 0.00
0.00 0.00 0.00 0.00 0.00 0.00 0.00 0.00 0.00 0.00 0.00 0.00 0.00 0.00 0.00 0.00 0.00 0.00 0.00 0.00 0.00 0.00 0.00 0.00 0.00 0.00 0.00 0.00 0.00 0.00 0.00 0.00 0.01 0.00 0.11 0.18 0.40 0.39 0.27 0.23 0.38 0.45 0.60 0.71 0.75 0.80 0.28 0.01 0.02
0.00 0.00 0.00 0.00 0.00 0.00 0.00 0.00 0.00 0.00 0.00 0.00 0.00 0.00 0.00 0.00 0.00 0.00 0.00 0.00 0.00 0.00 0.00 0.00 0.00 0.00 0.00 0.00 0.00 0.00 0.00 0.02 0.01 0.06 0.26 0.35 0.33 0.28 0.29 0.43 0.66 0.92 0.98 0.86 0.79 0.70 0.48 0.08 0.04
0.00 0.00 0.00 0.00 0.00 0.00 0.00 0.00 0.00 0.00 0.00 0.00 0.00 0.00 0.00 0.00 0.00 0.00 0.00 0.00 0.00 0.00 0.00 0.00 0.00 0.00 0.00 0.00 0.00 0.00 0.01 0.03 0.04 0.17 0.18 0.25 0.37 0.56 0.44 0.45 0.68 0.86 1.02 0.93 0.65 0.52 0.44 0.27 0.14
0.00 0.00 0.00 0.00 0.00 0.00 0.00 0.00 0.00 0.00 0.00 0.00 0.00 0.00 0.00 0.00 0.00 0.00 0.00 0.00 0.00 0.00 0.00 0.00 0.00 0.00 0.00 0.00 0.00 0.00 0.00 0.02 0.10 0.18 0.25 0.58 0.34 0.33 0.44 0.39 0.43 0.29 0.30 0.69 0.62 0.41 0.41 0.26 0.27
0.00 0.00 0.00 0.00 0.00 0.00 0.00 0.00 0.00 0.00 0.00 0.00 0.00 0.00 0.00 0.00 0.00 0.00 0.00 0.00 0.00 0.00 0.00 0.00 0.00 0.00 0.00 0.00 0.00 0.00 0.00 0.00 0.04 0.09 0.17 0.06 0.08 0.13 0.09 0.08 0.09 0.14 0.18 0.22 0.24 0.39 0.38 0.34 0.18
0.00 0.00 0.00 0.00 0.00 0.00 0.00 0.00 0.00 0.00 0.00 0.00 0.00 0.00 0.00 0.00 0.00 0.00 0.00 0.00 0.00 0.00 0.00 0.00 0.00 0.00 0.00 0.01 0.00 0.01 0.01 0.01 0.00 0.01 0.03 0.05 0.08 0.17 0.12 0.05 0.03 0.08 0.17 0.11 0.24 0.23 0.19 0.20 0.21
0.00 0.00 0.00 0.00 0.00 0.00 0.00 0.00 0.00 0.00 0.00 0.00 0.00 0.00 0.00 0.00 0.00 0.00 0.00 0.00 0.00 0.00 0.00 0.00 0.00 0.00 0.00 0.00 0.01 0.02 0.04 0.05 0.05 0.02 0.01 0.04 0.09 0.09 0.15 0.21 0.07 0.18 0.23 0.47 0.60 0.39 0.34 0.24 0.12
0.00 0.00 0.00 0.00 0.00 0.00 0.00 0.00 0.00 0.00 0.00 0.00 0.00 0.00 0.00 0.00 0.00 0.01 0.01 0.00 0.00 0.00 0.00 0.00 0.00 0.00 0.01 0.00 0.01 0.02 0.05 0.06 0.13 0.12 0.03 0.07 0.12 0.10 0.04 0.02 0.13 0.23 0.43 0.59 0.59 0.32 0.31 0.24 0.20
0.00 0.00 0.00 0.00 0.00 0.00 0.00 0.00 0.00 0.00 0.00 0.00 0.00 0.00 0.00 0.00 0.00 0.00 0.01 0.00 0.00 0.00 0.00 0.00 0.00 0.00 0.00 0.00 0.00 0.01 0.02 0.03 0.07 0.15 0.15 0.13 0.13 0.15 0.05 0.07 0.16 0.25 0.36 0.58 0.57 0.35 0.36 0.32 0.43
0.00 0.00 0.00 0.00 0.00 0.00 0.00 0.00 0.00 0.00 0.00 0.00 0.00 0.00 0.00 0.00 0.00 0.00 0.00 0.00 0.01 0.00 0.00 0.01 0.00 0.00 0.00 0.00 0.00 0.01 0.01 0.02 0.02 0.10 0.14 0.13 0.15 0.21 0.25 0.31 0.27 0.29 0.53 0.51 0.61 0.58 0.43 0.32 0.45
0.00 0.00 0.00 0.00 0.00 0.00 0.00 0.00 0.00 0.00 0.00 0.00 0.00 0.00 0.00 0.00 0.00 0.00 0.00 0.00 0.00 0.00 0.00 0.02 0.02 0.00 0.01 0.01 0.01 0.01 0.01 0.01 0.01 0.05 0.10 0.08 0.14 0.18 0.23 0.33 0.42 0.28 0.56 0.67 0.67 0.64 0.63 0.46 0.41
0.00 0.00 0.00 0.00 0.00 0.00 0.00 0.00 0.00 0.00 0.00 0.00 0.00 0.00 0.00 0.00 0.00 0.00 0.00 0.00 0.00 0.00 0.00 0.01 0.00 0.01 0.02 0.04 0.04 0.02 0.01 0.01 0.01 0.01 0.05 0.06 0.08 0.13 0.25 0.45 0.48 0.22 0.33 0.93 1.01 0.88 0.82 0.74 0.36
0.00 0.00 0.00 0.00 0.00 0.00 0.00 0.00 0.00 0.00 0.00 0.00 0.00 0.00 0.00 0.00 0.00 0.00 0.00 0.00 0.00 0.00 0.00 0.00 0.00 0.00 0.04 0.03 0.04 0.04 0.02 0.01 0.01 0.01 0.02 0.04 0.04 0.05 0.11 0.22 0.29 0.15 0.25 0.52 1.12 1.02 0.71 0.89 0.62
0.00 0.00 0.00 0.00 0.00 0.00 0.00 0.00 0.00 0.00 0.00 0.00 0.00 0.00 0.00 0.00 0.00 0.00 0.00 0.00 0.00 0.00 0.00 0.00 0.00 0.00 0.01 0.05 0.05 0.09 0.06 0.03 0.04 0.02 0.02 0.02 0.03 0.04 0.11 0.15 0.22 0.16 0.11 0.26 0.61 1.01 0.73 0.70 0.89
0.00 0.00 0.00 0.00 0.00 0.00 0.00 0.00 0.00 0.00 0.00 0.00 0.00 0.00 0.00 0.00 0.00 0.00 0.00 0.00 0.00 0.00 0.00 0.00 0.00 0.00 0.05 0.08 0.13 0.16 0.05 0.04 0.04 0.01 0.01 0.02 0.02 0.02 0.07 0.14 0.15 0.13 0.10 0.17 0.22 0.51 0.68 0.50 0.74
0.00 0.00 0.00 0.00 0.00 0.00 0.00 0.00 0.00 0.00 0.00 0.00 0.00 0.00 0.00 0.00 0.00 0.00 0.00 0.00 0.00 0.00 0.00 0.00 0.00 0.01 0.03 0.01 0.04 0.04 0.01 0.02 0.06 0.02 0.02 0.02 0.01 0.02 0.08 0.24 0.21 0.15 0.07 0.08 0.12 0.16 0.35 0.43 0.62
0.00 0.00 0.00 0.00 0.00 0.00 0.00 0.00 0.00 0.00 0.00 0.00 0.00 0.00 0.00 0.00 0.00 0.00 0.00 0.00 0.00 0.00 0.00 0.00 0.00 0.01 0.01 0.01 0.03 0.05 0.04 0.09 0.11 0.16 0.15 0.07 0.05 0.03 0.07 0.41 0.48 0.36 0.20 0.18 0.20 0.15 0.17 0.27 0.51
0.00 0.00 0.00 0.00 0.00 0.00 0.00 0.00 0.00 0.00 0.00 0.00 0.00 0.00 0.00 0.00 0.00 0.00 0.00 0.00 0.00 0.00 0.00 0.00 0.00 0.00 0.02 0.03 0.05 0.07 0.12 0.17 0.11 0.07 0.05 0.07 0.11 0.18 0.15 0.18 0.59 0.69 0.40 0.25 0.24 0.22 0.11 0.11 0.35
0.00 0.00 0.00 0.00 0.00 0.00 0.00 0.00 0.00 0.00 0.00 0.00 0.00 0.00 0.00 0.00 0.00 0.00 0.00 0.00 0.00 0.00 0.00 0.00 0.00 0.00 0.00 0.00 0.01 0.01 0.01 0.00 0.01 0.01 0.02 0.06 0.05 0.19 0.35 0.31 0.35 0.74 0.60 0.40 0.34 0.41 0.29 0.16 0.21
0.00 0.00 0.00 0.00 0.00 0.00 0.00 0.00 0.00 0.00 0.00 0.00 0.01 0.01 0.01 0.01 0.00 0.00 0.00 0.00 0.00 0.00 0.00 0.00 0.00 0.00 0.01 0.01 0.02 0.01 0.01 0.00 0.01 0.03 0.05 0.04 0.03 0.06 0.16 0.34 0.50 0.50 0.57 0.50 0.43 0.59 0.62 0.42 0.23
0.00 0.00 0.00 0.00 0.00 0.00 0.00 0.00 0.00 0.00 0.01 0.02 0.09 0.09 0.07 0.06 0.04 0.03 0.02 0.01 0.01 0.00 0.03 0.01 0.00 0.00 0.00 0.01 0.01 0.01 0.01 0.00 0.01 0.03 0.04 0.04 0.02 0.05 0.08 0.18 0.52 0.69 0.46 0.44 0.52 0.43 0.55 0.54 0.44
0.00 0.00 0.01 0.02 0.02 0.00 0.00 0.00 0.00 0.01 0.04 0.10 0.12 0.07 0.05 0.04 0.07 0.07 0.03 0.02 0.02 0.01 0.01 0.10 0.09 0.05 0.05 0.07 0.05 0.04 0.04 0.03 0.03 0.05 0.04 0.04 0.06 0.07 0.06 0.02 0.15 0.55 0.62 0.51 0.66 0.66 0.50 0.38 0.43
0.00 0.01 0.02 0.02 0.02 0.03 0.07 0.05 0.02 0.10 0.14 0.12 0.05 0.04 0.03 0.04 0.03 0.02 0.02 0.01 0.00 0.03 0.03 0.05 0.18 0.25 0.22 0.25 0.19 0.16 0.16 0.13 0.12 0.11 0.05 0.02 0.01 0.01 0.09 0.12 0.07 0.20 0.45 0.63 0.74 0.96 0.85 0.55 0.38
0.01 0.02 0.02 0.10 0.06 0.05 0.05 0.03 0.11 0.36 0.34 0.51 0.52 0.24 0.17 0.07 0.03 0.03 0.02 0.02 0.02 0.06 0.16 0.23 0.42 0.31 0.41 0.38 0.24 0.25 0.19 0.14 0.12 0.13 0.13 0.11 0.11 0.11 0.17 0.19 0.13 0.11 0.24 0.36 0.62 0.86 1.01 0.90 0.63
0.03 0.05 0.14 0.16 0.16 0.07 0.00 0.01 0.18 0.34 0.46 0.59 0.50 0.31 0.15 0.09 0.03 0.03 0.03 0.06 0.09 0.17 0.42 0.69 0.87 0.81 0.74 0.61 0.50 0.40 0.31 0.29 0.25 0.19 0.14 0.16 0.18 0.18 0.20 0.15 0.12 0.11 0.14 0.18 0.30 0.52 0.86 0.95 0.79
0.07 0.10 0.14 0.21 0.14 0.18 0.09 0.24 0.63 0.50 0.75 0.60 0.16 0.11 0.10 0.05 0.02 0.01 0.00 0.06 0.07 0.15 0.26 0.39 0.60 0.86 1.30 1.20 1.04 0.70 0.45 0.47 0.42 0.32 0.28 0.28 0.22 0.19 0.16 0.15 0.16 0.10 0.08 0.07 0.11 0.18 0.50 0.87 1.03
0.14 0.19 0.25 0.40 0.28 0.18 0.16 0.25 0.71 0.58 0.29 0.63 0.30 0.21 0.06 0.01 0.01 0.02 0.04 0.05 0.06 0.08 0.13 0.24 0.25 0.32 0.52 0.70 1.20 1.46 0.97 0.61 0.43 0.34 0.30 0.27 0.23 0.14 0.12 0.10 0.07 0.04 0.02 0.02 0.03 0.04 0.23 0.49 0.88

GFSSGP_prec_precacc24_111.txt.gz
Total_Precipitation_Accumulation
0.00 0.00 0.00 0.00 0.00 0.00 0.00 0.00 0.00 0.00 0.00 0.00 0.00 0.00 0.00 0.00 0.00 0.00 0.00 0.00 0.00 0.00 0.00 0.00 0.00 0.00 0.00 0.00 0.00 0.00 0.00 0.00 0.00 0.00 0.00 0.00 0.01 0.03 0.04 0.01 0.00 0.00 0.06 0.03 0.01 0.06 0.15 0.15 0.08
0.00 0.00 0.00 0.00 0.00 0.00 0.00 0.00 0.00 0.00 0.00 0.00 0.00 0.00 0.00 0.00 0.00 0.00 0.00 0.00 0.00 0.00 0.00 0.00 0.00 0.00 0.00 0.00 0.00 0.00 0.00 0.00 0.00 0.00 0.00 0.01 0.02 0.04 0.05 0.09 0.06 0.03 0.08 0.10 0.05 0.08 0.12 0.10 0.04
0.00 0.00 0.00 0.00 0.00 0.00 0.00 0.00 0.00 0.00 0.00 0.00 0.00 0.00 0.00 0.00 0.00 0.00 0.00 0.00 0.00 0.00 0.00 0.00 0.00 0.00 0.00 0.00 0.00 0.00 0.00 0.00 0.00 0.00 0.00 0.00 0.03 0.09 0.08 0.18 0.15 0.08 0.27 0.55 0.45 0.35 0.11 0.02 0.00
0.00 0.00 0.00 0.00 0.00 0.00 0.00 0.00 0.00 0.00 0.00 0.00 0.00 0.00 0.00 0.00 0.00 0.00 0.00 0.00 0.00 0.00 0.00 0.00 0.00 0.00 0.00 0.00 0.00 0.00 0.00 0.00 0.00 0.00 0.00 0.00 0.05 0.06 0.06 0.07 0.25 0.38 0.48 0.55 0.57 0.56 0.19 0.01 0.02
0.00 0.00 0.00 0.00 0.00 0.00 0.00 0.00 0.00 0.00 0.00 0.00 0.00 0.00 0.00 0.00 0.00 0.00 0.00 0.00 0.00 0.00 0.00 0.00 0.00 0.00 0.00 0.00 0.00 0.00 0.00 0.00 0.00 0.00 0.00 0.02 0.04 0.05 0.04 0.12 0.31 0.53 0.65 0.49 0.43 0.47 0.46 0.08 0.04
0.00 0.00 0.00 0.00 0.00 0.00 0.00 0.00 0.00 0.00 0.00 0.00 0.00 0.00 0.00 0.00 0.00 0.00 0.00 0.00 0.00 0.00 0.00 0.00 0.00 0.00 0.00 0.00 0.00 0.00 0.00 0.00 0.01 0.01 0.00 0.01 0.03 0.03 0.06 0.09 0.22 0.31 0.29 0.38 0.33 0.35 0.43 0.27 0.14
0.00 0.00 0.00 0.00 0.00 0.00 0.00 0.00 0.00 0.00 0.00 0.00 0.00 0.00 0.00 0.00 0.00 0.00 0.00 0.00 0.00 0.00 0.00 0.00 0.00 0.00 0.00 0.00 0.00 0.00 0.00 0.00 0.01 0.01 0.01 0.03 0.02 0.05 0.10 0.12 0.13 0.05 0.04 0.35 0.30 0.22 0.35 0.24 0.20
0.00 0.00 0.00 0.00 0.00 0.00 0.00 0.00 0.00 0.00 0.00 0.00 0.00 0.00 0.00 0.00 0.00 0.00 0.00 0.00 0.00 0.00 0.00 0.00 0.00 0.00 0.00 0.00 0.00 0.00 0.00 0.00 0.00 0.01 0.01 0.00 0.01 0.00 0.00 0.01 0.05 0.05 0.04 0.05 0.05 0.04 0.11 0.16 0.09
0.00 0.00 0.00 0.00 0.00 0.00 0.00 0.00 0.00 0.00 0.00 0.00 0.00 0.00 0.00 0.00 0.00 0.00 0.00 0.00 0.00 0.00 0.00 0.00 0.00 0.00 0.00 0.00 0.00 0.00 0.00 0.00 0.00 0.00 0.00 0.00 0.02 0.03 0.01 0.00 0.01 0.07 0.11 0.05 0.06 0.00 0.01 0.02 0.07
0.00 0.00 0.00 0.00 0.00 0.00 0.00 0.00 0.00 0.00 0.00 0.00 0.00 0.00 0.00 0.00 0.00 0.00 0.00 0.00 0.00 0.00 0.00 0.00 0.00 0.00 0.00 0.00 0.00 0.00 0.00 0.00 0.00 0.00 0.00 0.01 0.02 0.01 0.01 0.03 0.04 0.17 0.12 0.12 0.22 0.21 0.19 0.07 0.05
0.00 0.00 0.00 0.00 0.00 0.00 0.00 0.00 0.00 0.00 0.00 0.00 0.00 0.00 0.00 0.00 0.00 0.01 0.01 0.00 0.00 0.00 0.00 0.00 0.00 0.00 0.01 0.00 0.00 0.00 0.00 0.00 0.00 0.01 0.01 0.02 0.03 0.04 0.02 0.03 0.12 0.15 0.08 0.13 0.24 0.16 0.13 0.08 0.15
0.00 0.00 0.00 0.00 0.00 0.00 0.00 0.00 0.00 0.00 0.00 0.00 0.00 0.00 0.00 0.00 0.00 0.00 0.01 0.00 0.00 0.00 0.00 0.00 0.00 0.00 0.00 0.00 0.00 0.00 0.00 0.01 0.00 0.02 0.04 0.06 0.06 0.07 0.03 0.05 0.16 0.19 0.10 0.18 0.23 0.18 0.18 0.20 0.36
0.00 0.00 0.00 0.00 0.00 0.00 0.00 0.00 0.00 0.00 0.00 0.00 0.00 0.00 0.00 0.00 0.00 0.00 0.00 0.00 0.01 0.01 0.01 0.01 0.00 0.00 0.00 0.00 0.00 0.00 0.00 0.00 0.01 0.01 0.03 0.05 0.07 0.14 0.18 0.27 0.20 0.14 0.10 0.18 0.20 0.25 0.24 0.23 0.39
0.00 0.00 0.00 0.00 0.00 0.00 0.00 0.00 0.00 0.00 0.00 0.00 0.00 0.00 0.00 0.00 0.00 0.00 0.00 0.00 0.00 0.00 0.00 0.02 0.02 0.00 0.01 0.01 0.01 0.00 0.00 0.00 0.00 0.01 0.02 0.05 0.09 0.14 0.17 0.28 0.27 0.18 0.17 0.22 0.27 0.27 0.41 0.38 0.42
0.00 0.00 0.00 0.00 0.00 0.00 0.00 0.00 0.00 0.00 0.00 0.00 0.00 0.00 0.00 0.00 0.00 0.00 0.00 0.00 0.00 0.00 0.00 0.01 0.00 0.01 0.02 0.04 0.04 0.02 0.00 0.00 0.01 0.00 0.01 0.03 0.06 0.10 0.19 0.33 0.30 0.16 0.23 0.34 0.42 0.41 0.51 0.61 0.39
0.00 0.00 0.00 0.00 0.00 0.00 0.00 0.00 0.00 0.00 0.00 0.00 0.00 0.00 0.00 0.00 0.00 0.00 0.00 0.00 0.00 0.00 0.00 0.00 0.00 0.00 0.04 0.03 0.04 0.04 0.01 0.00 0.00 0.00 0.01 0.02 0.02 0.04 0.06 0.11 0.14 0.09 0.19 0.30 0.47 0.48 0.42 0.73 0.63
0.00 0.00 0.00 0.00 0.00 0.00 0.00 0.00 0.00 0.00 0.00 0.00 0.00 0.00 0.00 0.00 0.00 0.00 0.00 0.00 0.00 0.00 0.00 0.00 0.00 0.00 0.01 0.05 0.05 0.09 0.05 0.02 0.03 0.01 0.00 0.01 0.01 0.02 0.06 0.06 0.09 0.11 0.07 0.18 0.31 0.52 0.46 0.61 0.87
0.00 0.00 0.00 0.00 0.00 0.00 0.00 0.00 0.00 0.00 0.00 0.00 0.00 0.00 0.00 0.00 0.00 0.00 0.00 0.00 0.00 0.00 0.00 0.00 0.00 0.00 0.05 0.08 0.13 0.16 0.04 0.03 0.04 0.01 0.00 0.00 0.01 0.00 0.01 0.02 0.04 0.08 0.05 0.09 0.08 0.28 0.48 0.44 0.74
0.00 0.00 0.00 0.00 0.00 0.00 0.00 0.00 0.00 0.00 0.00 0.00 0.00 0.00 0.00 0.00 0.00 0.00 0.00 0.00 0.00 0.00 0.00 0.00 0.00 0.01 0.02 0.01 0.04 0.04 0.00 0.01 0.04 0.01 0.01 0.02 0.01 0.00 0.00 0.01 0.02 0.03 0.03 0.03 0.04 0.06 0.21 0.34 0.61
0.00 0.00 0.00 0.00 0.00 0.00 0.00 0.00 0.00 0.00 0.00 0.00 0.00 0.00 0.00 0.00 0.00 0.00 0.00 0.00 0.00 0.00 0.00 0.00 0.00 0.00 0.01 0.01 0.03 0.05 0.04 0.09 0.11 0.15 0.14 0.05 0.02 0.00 0.01 0.02 0.03 0.03 0.05 0.07 0.05 0.06 0.08 0.20 0.48
0.00 0.00 0.00 0.00 0.00 0.00 0.00 0.00 0.00 0.00 0.00 0.00 0.00 0.00 0.00 0.00 0.00 0.00 0.00 0.00 0.00 0.00 0.00 0.00 0.00 0.00 0.02 0.03 0.05 0.07 0.12 0.16 0.11 0.06 0.03 0.03 0.05 0.03 0.01 0.03 0.03 0.06 0.07 0.08 0.08 0.13 0.07 0.08 0.32
0.00 0.00 0.00 0.00 0.00 0.00 0.00 0.00 0.00 0.00 0.00 0.00 0.00 0.00 0.00 0.00 0.00 0.00 0.00 0.00 0.00 0.00 0.00 0.00 0.00 0.00 0.00 0.00 0.01 0.01 0.01 0.00 0.00 0.00 0.01 0.05 0.05 0.08 0.06 0.06 0.05 0.04 0.09 0.09 0.13 0.26 0.24 0.11 0.20
0.00 0.00 0.00 0.00 0.00 0.00 0.00 0.00 0.00 0.00 0.00 0.00 0.01 0.01 0.01 0.01 0.00 0.00 0.00 0.00 0.00 0.00 0.00 0.00 0.00 0.00 0.01 0.01 0.02 0.01 0.01 0.00 0.00 0.01 0.04 0.03 0.03 0.04 0.08 0.07 0.07 0.05 0.07 0.12 0.18 0.38 0.48 0.36 0.20
0.00 0.00 0.00 0.00 0.00 0.00 0.00 0.00 0.00 0.00 0.01 0.02 0.09 0.09 0.07 0.06 0.04 0.03 0.02 0.01 0.01 0.00 0.03 0.01 0.00 0.00 0.00 0.01 0.01 0.01 0.01 0.00 0.00 0.01 0.03 0.03 0.02 0.06 0.08 0.09 0.07 0.11 0.10 0.12 0.17 0.25 0.38 0.47 0.40
0.00 0.00 0.01 0.01 0.01 0.00 0.00 0.00 0.00 0.01 0.04 0.10 0.12 0.07 0.05 0.04 0.07 0.07 0.03 0.02 0.02 0.01 0.01 0.09 0.09 0.05 0.05 0.07 0.05 0.04 0.04 0.03 0.03 0.04 0.05 0.05 0.05 0.04 0.03 0.04 0.05 0.10 0.20 0.25 0.31 0.38 0.33 0.32 0.40
0.00 0.01 0.02 0.03 0.01 0.02 0.06 0.05 0.02 0.10 0.14 0.12 0.05 0.04 0.03 0.04 0.03 0.02 0.02 0.01 0.00 0.03 0.02 0.05 0.17 0.25 0.22 0.25 0.19 0.16 0.16 0.13 0.13 0.10 0.05 0.05 0.03 0.02 0.05 0.11 0.11 0.09 0.26 0.43 0.51 0.64 0.69 0.51 0.37
0.00 0.01 0.02 0.09 0.06 0.04 0.05 0.03 0.11 0.36 0.34 0.51 0.52 0.24 0.17 0.07 0.03 0.03 0.02 0.02 0.02 0.06 0.15 0.23 0.42 0.31 0.41 0.39 0.28 0.27 0.20 0.14 0.13 0.14 0.13 0.11 0.12 0.13 0.18 0.21 0.21 0.15 0.24 0.32 0.48 0.67 0.86 0.86 0.66
0.00 0.02 0.09 0.13 0.14 0.05 0.00 0.01 0.15 0.34 0.47 0.59 0.50 0.31 0.15 0.09 0.03 0.03 0.03 0.06 0.09 0.17 0.43 0.72 0.90 0.84 0.75 0.65 0.57 0.46 0.37 0.34 0.27 0.22 0.17 0.20 0.19 0.20 0.21 0.20 0.23 0.27 0.29 0.30 0.28 0.45 0.76 0.92 0.78
0.04 0.05 0.10 0.15 0.10 0.14 0.07 0.18 0.57 0.51 0.75 0.59 0.16 0.11 0.10 0.05 0.02 0.00 0.00 0.05 0.07 0.15 0.27 0.41 0.63 0.92 1.34 1.24 1.12 0.86 0.61 0.79 0.72 0.54 0.45 0.40 0.31 0.27 0.21 0.19 0.22 0.17 0.17 0.19 0.17 0.22 0.49 0.86 1.03
0.07 0.13 0.17 0.32 0.21 0.13 0.11 0.16 0.60 0.53 0.26 0.63 0.30 0.21 0.06 0.00 0.00 0.00 0.01 0.02 0.04 0.08 0.14 0.28 0.33 0.49 0.75 0.89 1.28 1.55 1.09 0.88 0.84 0.79 0.67 0.60 0.43 0.36 0.32 0.20 0.21 0.17 0.15 0.09 0.07 0.08 0.27 0.50 0.89

GFSSGP_prec_precacc24_114.txt.gz
Total_Precipitation_Accumulation
0.00 0.00 0.00 0.00 0.00 0.00 0.00 0.00 0.00 0.00 0.00 0.00 0.00 0.00 0.00 0.00 0.00 0.00 0.00 0.00 0.00 0.00 0.00 0.00 0.00 0.00 0.00 0.00 0.00 0.00 0.00 0.00 0.00 0.00 0.00 0.00 0.00 0.00 0.00 0.00 0.00 0.00 0.02 0.02 0.00 0.06 0.15 0.15 0.07
0.00 0.00 0.00 0.00 0.00 0.00 0.00 0.00 0.00 0.00 0.00 0.00 0.00 0.00 0.00 0.00 0.00 0.00 0.00 0.00 0.00 0.00 0.00 0.00 0.00 0.00 0.00 0.00 0.00 0.00 0.00 0.00 0.00 0.00 0.00 0.00 0.00 0.00 0.00 0.01 0.01 0.00 0.03 0.08 0.05 0.08 0.11 0.10 0.04
0.00 0.00 0.00 0.00 0.00 0.00 0.00 0.00 0.00 0.00 0.00 0.00 0.00 0.00 0.00 0.00 0.00 0.00 0.00 0.00 0.00 0.00 0.00 0.00 0.00 0.00 0.00 0.00 0.00 0.00 0.00 0.00 0.00 0.00 0.00 0.00 0.00 0.01 0.01 0.04 0.06 0.03 0.18 0.50 0.43 0.31 0.08 0.02 0.00
0.00 0.00 0.00 0.00 0.00 0.00 0.00 0.00 0.00 0.00 0.00 0.00 0.00 0.00 0.00 0.00 0.00 0.00 0.00 0.00 0.00 0.00 0.00 0.00 0.00 0.00 0.00 0.00 0.00 0.00 0.00 0.00 0.00 0.00 0.00 0.00 0.01 0.02 0.01 0.02 0.12 0.18 0.34 0.41 0.45 0.40 0.12 0.01 0.02
0.00 0.00 0.00 0.00 0.00 0.00 0.00 0.00 0.00 0.00 0.00 0.00 0.00 0.00 0.00 0.00 0.00 0.00 0.00 0.00 0.00 0.00 0.00 0.00 0.00 0.00 0.00 0.00 0.00 0.00 0.00 0.00 0.00 0.00 0.00 0.00 0.02 0.02 0.01 0.03 0.15 0.22 0.23 0.15 0.12 0.18 0.20 0.08 0.04
0.00 0.00 0.00 0.00 0.00 0.00 0.00 0.00 0.00 0.00 0.00 0.00 0.00 0.00 0.00 0.00 0.00 0.00 0.00 0.00 0.00 0.00 0.00 0.00 0.00 0.00 0.00 0.00 0.00 0.00 0.00 0.00 0.00 0.01 0.00 0.00 0.02 0.01 0.02 0.04 0.12 0.12 0.07 0.02 0.03 0.05 0.19 0.22 0.13
0.00 0.00 0.00 0.00 0.00 0.00 0.00 0.00 0.00 0.00 0.00 0.00 0.00 0.00 0.00 0.00 0.00 0.00 0.00 0.00 0.00 0.00 0.00 0.00 0.00 0.00 0.00 0.00 0.00 0.00 0.00 0.00 0.00 0.01 0.01 0.00 0.01 0.02 0.03 0.04 0.07 0.06 0.05 0.10 0.08 0.05 0.05 0.06 0.09
0.00 0.00 0.00 0.00 0.00 0.00 0.00 0.00 0.00 0.00 0.00 0.00 0.00 0.00 0.00 0.00 0.00 0.00 0.00 0.00 0.00 0.00 0.00 0.00 0.00 0.00 0.00 0.00 0.00 0.00 0.00 0.00 0.00 0.01 0.00 0.00 0.00 0.00 0.00 0.01 0.05 0.08 0.07 0.07 0.06 0.02 0.00 0.00 0.01
0.00 0.00 0.00 0.00 0.00 0.00 0.00 0.00 0.00 0.00 0.00 0.00 0.00 0.00 0.00 0.00 0.00 0.00 0.00 0.00 0.00 0.00 0.00 0.00 0.00 0.00 0.00 0.00 0.00 0.00 0.00 0.00 0.00 0.00 0.00 0.00 0.00 0.00 0.00 0.00 0.02 0.07 0.12 0.06 0.06 0.01 0.00 0.00 0.02
0.00 0.00 0.00 0.00 0.00 0.00 0.00 0.00 0.00 0.00 0.00 0.00 0.00 0.00 0.00 0.00 0.00 0.00 0.00 0.00 0.00 0.00 0.00 0.00 0.01 0.01 0.01 0.00 0.00 0.00 0.00 0.00 0.00 0.00 0.00 0.00 0.00 0.00 0.00 0.00 0.02 0.13 0.12 0.09 0.16 0.18 0.18 0.06 0.03
0.00 0.00 0.00 0.00 0.00 0.00 0.00 0.00 0.00 0.00 0.00 0.00 0.00 0.00 0.00 0.00 0.00 0.01 0.01 0.00 0.00 0.00 0.00 0.00 0.01 0.02 0.02 0.00 0.00 0.00 0.00 0.00 0.00 0.00 0.00 0.00 0.00 0.00 0.00 0.02 0.08 0.12 0.07 0.07 0.13 0.11 0.11 0.05 0.14
0.00 0.00 0.00 0.00 0.00 0.00 0.00 0.00 0.00 0.00 0.00 0.00 0.00 0.00 0.00 0.00 0.00 0.00 0.01 0.00 0.00 0.00 0.00 0.04 0.01 0.00 0.02 0.00 0.00 0.00 0.00 0.00 0.00 0.00 0.00 0.00 0.00 0.00 0.00 0.05 0.16 0.17 0.10 0.16 0.18 0.14 0.12 0.15 0.31
0.00 0.00 0.00 0.00 0.00 0.00 0.00 0.00 0.00 0.00 0.00 0.00 0.00 0.00 0.00 0.00 0.00 0.00 0.00 0.00 0.01 0.01 0.02 0.19 0.15 0.02 0.01 0.01 0.00 0.02 0.00 0.00 0.00 0.00 0.00 0.00 0.00 0.04 0.12 0.27 0.20 0.13 0.08 0.17 0.19 0.19 0.13 0.10 0.27
0.00 0.00 0.00 0.00 0.00 0.00 0.00 0.00 0.00 0.00 0.00 0.00 0.00 0.00 0.00 0.00 0.00 0.00 0.00 0.00 0.00 0.00 0.00 0.02 0.06 0.20 0.12 0.06 0.07 0.03 0.00 0.00 0.00 0.00 0.00 0.00 0.00 0.03 0.08 0.23 0.24 0.14 0.13 0.22 0.27 0.23 0.26 0.20 0.27
0.00 0.00 0.00 0.00 0.00 0.00 0.00 0.00 0.00 0.00 0.00 0.00 0.00 0.00 0.00 0.00 0.00 0.00 0.00 0.00 0.00 0.00 0.00 0.01 0.00 0.04 0.16 0.15 0.11 0.05 0.01 0.00 0.01 0.00 0.00 0.00 0.00 0.01 0.07 0.20 0.23 0.13 0.18 0.32 0.42 0.37 0.29 0.24 0.19
0.00 0.00 0.00 0.00 0.00 0.00 0.00 0.00 0.00 0.00 0.00 0.00 0.00 0.00 0.00 0.00 0.00 0.00 0.00 0.00 0.00 0.00 0.00 0.00 0.00 0.00 0.05 0.04 0.07 0.04 0.01 0.00 0.00 0.00 0.00 0.00 0.00 0.00 0.01 0.04 0.07 0.05 0.14 0.26 0.45 0.41 0.26 0.22 0.23
0.00 0.00 0.00 0.00 0.00 0.00 0.00 0.00 0.00 0.00 0.00 0.00 0.00 0.00 0.00 0.00 0.00 0.00 0.00 0.00 0.00 0.00 0.00 0.00 0.00 0.00 0.01 0.06 0.05 0.09 0.05 0.02 0.02 0.00 0.00 0.00 0.00 0.00 0.01 0.01 0.01 0.03 0.05 0.16 0.28 0.32 0.29 0.25 0.51
0.00 0.00 0.00 0.00 0.00 0.00 0.00 0.00 0.00 0.00 0.00 0.00 0.00 0.00 0.00 0.00 0.00 0.00 0.00 0.00 0.00 0.00 0.00 0.00 0.00 0.00 0.05 0.08 0.13 0.16 0.04 0.03 0.03 0.00 0.00 0.00 0.00 0.00 0.00 0.01 0.01 0.04 0.04 0.08 0.06 0.10 0.18 0.22 0.45
0.00 0.00 0.00 0.00 0.00 0.00 0.00 0.00 0.00 0.00 0.00 0.00 0.00 0.00 0.00 0.00 0.00 0.00 0.00 0.00 0.00 0.00 0.00 0.00 0.00 0.01 0.02 0.01 0.04 0.04 0.00 0.01 0.04 0.01 0.01 0.01 0.00 0.00 0.00 0.01 0.01 0.03 0.02 0.02 0.04 0.03 0.04 0.11 0.31
0.00 0.00 0.00 0.00 0.00 0.00 0.00 0.00 0.00 0.00 0.00 0.00 0.00 0.00 0.00 0.00 0.00 0.00 0.00 0.00 0.00 0.00 0.00 0.00 0.00 0.00 0.01 0.01 0.03 0.05 0.04 0.09 0.11 0.15 0.14 0.04 0.03 0.01 0.03 0.01 0.02 0.02 0.03 0.04 0.03 0.03 0.03 0.07 0.28
0.00 0.00 0.00 0.00 0.00 0.00 0.00 0.00 0.00 0.00 0.00 0.00 0.00 0.00 0.00 0.00 0.00 0.00 0.00 0.00 0.00 0.00 0.00 0.00 0.00 0.00 0.02 0.03 0.04 0.07 0.12 0.16 0.11 0.06 0.03 0.03 0.05 0.05 0.07 0.02 0.02 0.04 0.05 0.04 0.05 0.06 0.04 0.04 0.17
0.00 0.00 0.00 0.00 0.00 0.00 0.00 0.00 0.00 0.00 0.00 0.00 0.00 0.00 0.00 0.00 0.00 0.00 0.00 0.00 0.00 0.00 0.00 0.00 0.00 0.00 0.00 0.00 0.01 0.01 0.01 0.00 0.00 0.00 0.01 0.05 0.04 0.07 0.10 0.08 0.03 0.03 0.05 0.06 0.09 0.10 0.11 0.08 0.09
0.00 0.00 0.00 0.00 0.00 0.00 0.00 0.00 0.00 0.00 0.00 0.00 0.01 0.01 0.01 0.01 0.00 0.00 0.00 0.00 0.00 0.00 0.00 0.00 0.00 0.00 0.01 0.01 0.02 0.01 0.01 0.00 0.00 0.01 0.04 0.03 0.02 0.04 0.08 0.08 0.07 0.05 0.06 0.09 0.12 0.14 0.21 0.24 0.13
0.00 0.00 0.00 0.00 0.00 0.00 0.00 0.00 0.00 0.00 0.00 0.02 0.09 0.09 0.07 0.06 0.04 0.03 0.02 0.01 0.01 0.00 0.03 0.01 0.00 0.00 0.00 0.01 0.01 0.01 0.01 0.00 0.00 0.01 0.03 0.03 0.02 0.06 0.11 0.15 0.12 0.11 0.07 0.08 0.10 0.13 0.16 0.30 0.28
0.00 0.01 0.02 0.03 0.00 0.00 0.00 0.00 0.00 0.01 0.04 0.10 0.12 0.07 0.05 0.04 0.07 0.07 0.03 0.02 0.02 0.01 0.01 0.09 0.09 0.05 0.05 0.07 0.05 0.04 0.04 0.03 0.03 0.03 0.04 0.05 0.05 0.07 0.12 0.17 0.10 0.06 0.07 0.13 0.18 0.18 0.14 0.16 0.26
0.00 0.01 0.05 0.06 0.03 0.02 0.03 0.04 0.06 0.11 0.16 0.16 0.06 0.04 0.03 0.04 0.03 0.02 0.01 0.01 0.00 0.03 0.02 0.05 0.17 0.25 0.22 0.25 0.19 0.16 0.16 0.13 0.13 0.10 0.05 0.05 0.03 0.02 0.09 0.20 0.22 0.14 0.16 0.24 0.33 0.36 0.39 0.33 0.33
0.00 0.01 0.02 0.11 0.07 0.05 0.01 0.04 0.10 0.31 0.34 0.51 0.52 0.24 0.17 0.07 0.03 0.03 0.02 0.01 0.02 0.06 0.14 0.19 0.38 0.31 0.40 0.39 0.28 0.27 0.20 0.14 0.13 0.14 0.12 0.11 0.12 0.14 0.22 0.27 0.24 0.18 0.21 0.23 0.31 0.43 0.53 0.64 0.60
0.00 0.01 0.09 0.15 0.16 0.06 0.00 0.01 0.16 0.21 0.45 0.59 0.50 0.31 0.15 0.09 0.03 0.03 0.03 0.02 0.05 0.16 0.38 0.64 0.84 0.83 0.74 0.64 0.57 0.46 0.37 0.33 0.28 0.22 0.17 0.19 0.19 0.21 0.27 0.27 0.28 0.29 0.30 0.26 0.22 0.33 0.55 0.76 0.68
0.04 0.04 0.05 0.12 0.10 0.12 0.05 0.12 0.33 0.43 0.69 0.61 0.16 0.11 0.10 0.05 0.02 0.00 0.00 0.01 0.04 0.12 0.25 0.40 0.55 0.89 1.33 1.23 1.10 0.84 0.60 0.78 0.73 0.55 0.47 0.42 0.31 0.29 0.27 0.28 0.34 0.25 0.20 0.20 0.14 0.19 0.36 0.75 0.96
0.05 0.12 0.15 0.28 0.18 0.11 0.10 0.09 0.26 0.42 0.24 0.63 0.30 0.21 0.06 0.00 0.00 0.00 0.00 0.02 0.02 0.04 0.12 0.27 0.31 0.48 0.72 0.85 1.26 1.53 1.08 0.88 0.85 0.80 0.69 0.66 0.50 0.46 0.43 0.33 0.33 0.30 0.33 0.16 0.08 0.11 0.28 0.46 0.89